GFSGL_prec_cthk_000.txt.gz
RH
40 40 41 41 42 43 44 45 45 46 48 52 54 55 54 55 57 56 57 60 62 67 72 74 77 80 83 82 82 82 83 82 84 61 75 80 78 79 82 92 87 85 84
45 44 43 42 42 42 43 43 43 43 43 42 42 44 49 55 60 63 63 64 66 67 69 72 79 85 86 93 93 93 92 92 89 76 78 83 80 85 87 93 95 89 90
46 47 47 47 47 46 46 45 43 42 42 41 40 40 41 44 48 50 54 58 63 67 70 73 72 76 78 82 88 87 85 88 85 90 78 90 88 88 91 96 98 95 95
47 47 46 46 46 45 45 46 46 45 44 42 40 38 37 38 41 43 50 57 60 61 62 64 66 69 72 76 82 81 82 90 88 88 86 88 85 86 93 97 94 94 98
50 49 48 49 49 48 47 47 47 46 46 45 43 42 43 42 40 43 44 46 51 53 56 60 64 66 67 68 80 78 83 88 95 98 92 92 87 88 91 97 97 97 96
55 54 54 52 51 50 49 48 48 49 48 47 46 46 45 45 45 44 47 50 47 46 48 50 57 61 64 66 71 79 83 86 94 98 97 87 88 91 94 97 98 98 98
58 57 56 54 52 51 52 51 50 48 47 48 49 49 48 46 47 51 55 54 53 50 50 50 51 57 64 70 71 74 76 80 88 98 92 93 89 90 94 96 98 98 97
57 55 54 54 53 51 49 46 45 44 43 42 42 45 47 49 53 58 55 52 45 44 48 50 53 54 61 72 79 76 76 77 89 94 91 90 89 99 97 98 97 98 97
54 52 49 46 43 37 32 31 31 33 37 38 40 42 47 49 51 46 44 41 39 39 46 48 52 55 56 63 71 78 84 90 89 87 97 91 98 95 98 98 98 98 98
49 46 41 38 32 28 28 28 27 28 26 26 25 30 37 42 41 40 39 42 42 43 39 39 47 54 56 63 69 74 89 93 93 92 94 95 97 98 98 99 96 98 98
44 40 34 31 29 26 24 23 24 22 23 21 22 22 26 30 36 39 40 42 49 46 42 42 45 53 56 63 70 81 93 97 92 95 95 94 97 98 99 98 99 99 97
35 32 31 28 25 23 23 22 20 19 19 21 22 21 20 18 18 28 41 48 54 50 47 49 54 61 63 64 72 82 95 98 94 95 97 97 99 97 99 98 99 98 97
33 30 25 22 20 20 20 18 17 16 16 20 20 20 17 13 14 16 29 46 56 56 53 57 64 71 72 70 75 83 92 94 96 97 99 96 99 99 98 98 99 95 92
27 24 22 21 21 20 18 18 18 17 20 21 20 17 17 17 17 20 28 37 49 56 54 62 72 79 80 78 78 82 92 98 97 98 99 98 99 98 99 97 95 98 98
25 24 23 22 20 19 19 20 21 22 24 26 26 26 27 25 22 28 32 33 43 55 57 66 71 76 77 83 85 90 97 97 95 99 99 98 98 99 98 97 98 98 98
27 25 23 23 23 23 23 21 21 25 26 28 30 34 33 30 26 31 29 26 34 54 61 67 72 79 84 87 93 94 95 97 98 98 98 98 98 98 99 98 98 98 89
30 28 28 28 27 27 27 28 29 23 29 32 36 37 36 33 28 27 30 25 34 52 63 69 73 83 94 94 95 91 94 97 98 97 98 98 98 98 98 98 98 92 76
34 33 31 29 30 30 31 33 34 36 37 33 36 40 41 39 28 29 31 26 32 52 60 67 71 89 97 97 94 94 97 97 98 98 97 97 97 97 98 98 96 78 65
35 33 32 32 33 35 36 36 38 41 41 41 40 39 40 38 32 27 27 29 32 51 60 67 68 88 97 97 97 97 97 98 98 98 97 97 97 97 98 95 79 64 53
35 34 36 37 38 38 39 42 44 43 43 44 43 43 42 43 39 28 25 28 32 46 56 66 68 85 97 97 97 97 97 97 97 98 97 97 98 97 97 79 63 52 43
37 37 39 40 40 42 44 47 49 50 48 46 46 47 51 52 45 36 28 28 32 44 54 63 70 84 95 97 97 97 97 97 97 97 97 97 98 98 83 64 51 43 30
44 42 43 43 44 48 51 52 53 55 56 55 53 53 52 51 47 42 33 29 32 44 54 64 71 82 94 97 97 97 97 97 97 97 97 97 98 88 66 50 42 29 22
44 46 45 46 52 54 53 54 60 63 64 63 61 59 58 55 50 46 38 31 32 43 53 61 70 80 92 97 97 97 97 97 97 97 97 97 95 65 49 42 29 22 18
48 46 51 54 56 56 59 60 63 65 66 66 64 63 63 58 53 49 42 32 31 40 51 58 69 81 91 97 97 97 97 97 97 97 97 97 65 49 45 28 22 18 22
48 51 56 57 58 60 62 64 66 66 67 66 67 66 65 61 56 51 45 33 32 40 46 56 69 83 93 97 97 97 97 97 97 97 97 75 51 44 29 22 18 21 26
55 57 58 60 64 66 67 67 68 68 67 66 67 68 63 60 57 52 47 35 33 38 45 57 70 86 95 97 97 97 97 97 97 97 86 54 44 30 20 18 20 26 31

GFSGL_prec_cthk_003.txt.gz
RH
40 39 40 40 40 41 41 42 43 43 43 43 42 42 42 42 42 43 45 48 51 54 59 64 65 67 69 73 74 75 83 89 93 77 80 78 78 78 81 77 77 81 86
38 39 40 40 40 41 41 41 41 41 41 42 42 43 42 42 43 42 42 42 51 55 59 61 61 62 64 66 69 71 75 82 91 86 80 84 83 80 84 76 82 82 83
40 42 42 43 42 43 43 44 43 42 42 42 44 46 46 47 49 48 48 50 51 49 50 52 52 52 54 56 58 61 62 63 74 85 81 86 84 85 92 88 90 91 86
44 45 46 47 47 47 48 45 44 42 41 42 44 44 46 47 46 48 50 49 47 47 48 49 47 48 52 53 57 61 65 68 71 73 79 78 85 80 87 92 88 91 95
47 49 50 49 48 47 45 43 41 41 41 41 41 40 42 44 48 49 48 50 51 51 50 49 48 46 47 50 56 59 69 73 72 71 71 74 80 91 80 98 96 95 92
52 50 48 47 44 40 37 34 32 31 33 35 40 42 41 42 42 44 51 53 56 54 51 44 44 46 48 51 53 58 64 69 75 79 72 73 68 80 95 98 91 98 98
50 48 44 37 33 31 31 29 29 30 30 29 31 30 34 35 38 49 58 57 53 51 48 46 45 48 45 48 48 48 50 54 69 74 73 73 75 76 94 99 88 90 95
46 39 36 33 32 31 31 32 31 31 31 33 32 31 32 26 36 53 59 59 51 45 44 45 43 40 42 47 53 49 48 49 53 60 67 69 81 85 87 92 91 98 98
42 39 37 36 35 34 33 32 31 31 29 27 26 26 25 26 40 45 44 43 40 39 43 48 43 40 43 48 56 55 48 44 51 56 60 62 73 89 97 97 95 98 98
41 39 39 38 37 35 34 33 30 27 24 24 22 21 22 27 33 32 29 22 25 30 40 42 42 44 44 49 60 59 54 50 54 54 57 62 75 91 96 99 97 99 99
40 40 38 36 35 33 30 27 25 24 22 20 19 19 22 19 16 12 12 19 23 32 36 37 43 46 49 56 65 66 64 63 59 62 62 79 90 91 95 96 99 99 99
39 37 36 35 31 28 26 23 23 24 22 20 21 21 20 19 16 16 19 21 28 39 37 37 41 47 57 64 64 68 72 74 71 69 68 82 95 96 94 97 98 99 98
38 37 32 28 25 24 25 25 25 24 23 24 24 24 24 22 20 21 25 30 36 43 38 32 38 54 62 64 67 72 80 82 77 75 79 90 95 98 98 98 98 98 98
35 29 26 27 27 28 27 27 26 25 25 26 27 29 30 28 30 33 33 36 38 34 31 28 43 58 68 68 71 78 80 80 80 84 88 93 98 98 98 98 98 98 98
27 29 31 31 30 29 28 27 26 25 30 33 34 38 40 39 40 44 46 44 41 35 34 37 44 58 71 73 79 84 81 84 86 90 93 96 98 98 98 98 98 98 98
32 34 34 33 32 30 29 26 24 26 31 34 37 43 43 46 48 48 44 39 39 34 36 38 47 67 73 72 83 86 89 89 89 92 95 97 98 98 97 97 98 98 97
37 35 33 34 33 33 33 35 35 28 31 36 39 42 43 47 45 47 48 45 35 34 36 38 51 67 72 75 87 92 95 95 95 96 97 97 97 97 97 97 97 97 96
33 34 37 36 37 39 41 42 43 43 40 35 36 44 44 44 47 50 51 42 31 30 37 37 53 65 71 75 92 97 97 97 97 97 97 97 97 97 97 97 97 97 82
36 39 39 39 40 43 45 47 48 48 47 47 44 44 44 43 48 52 51 47 40 34 35 35 52 63 71 77 97 97 97 97 97 97 97 97 97 97 97 97 97 74 62
36 37 39 40 42 46 48 48 48 51 52 51 50 51 49 51 53 49 49 48 44 37 35 36 51 62 70 84 97 97 97 96 97 97 97 97 97 97 97 95 68 58 47
36 34 39 42 44 47 48 49 53 55 55 56 56 59 65 64 60 55 53 51 48 40 36 36 53 60 69 87 97 97 97 97 97 97 97 97 97 96 93 64 53 43 33
35 39 42 44 45 47 50 54 55 56 56 58 59 60 67 67 63 59 58 54 50 40 35 38 54 57 73 90 97 97 97 96 97 97 97 97 97 89 61 50 39 31 29
40 42 44 45 49 53 55 55 58 59 59 60 63 66 65 65 65 64 61 54 49 39 34 40 52 56 75 91 97 97 97 97 97 97 97 96 89 57 49 35 29 26 20
43 44 48 52 54 56 59 62 63 64 65 65 65 65 65 68 65 62 59 54 49 39 36 42 52 61 78 95 97 97 97 97 97 97 96 88 57 46 32 29 21 21 28
46 49 52 55 58 62 65 67 69 71 71 72 70 70 68 68 65 62 58 54 49 39 36 45 53 66 85 97 97 97 97 97 97 97 84 61 43 30 27 19 23 31 46
50 53 56 60 63 64 69 72 74 76 76 76 75 74 72 70 67 63 60 54 47 38 38 47 55 71 91 97 97 97 97 97 97 82 62 41 30 23 18 24 33 47 65

GFSGL_prec_cthk_006.txt.gz
RH
36 35 36 37 38 39 39 39 39 39 39 38 38 38 39 40 42 43 44 44 45 47 49 52 52 54 55 58 60 61 62 67 73 55 65 66 71 72 80 80 87 88 85
36 37 38 39 40 41 41 41 41 40 39 38 37 37 40 40 42 46 46 50 53 53 54 56 56 57 55 55 56 57 58 59 67 66 55 59 62 60 65 71 78 83 88
41 41 43 44 44 42 41 39 37 35 34 33 33 33 33 36 39 41 48 53 50 52 53 54 55 56 55 55 54 56 56 55 58 63 56 58 59 59 61 63 69 78 85
46 46 46 46 43 39 36 32 29 27 24 23 22 22 23 25 25 29 33 38 43 46 48 52 53 52 51 47 51 53 55 59 60 63 68 65 64 63 68 66 65 69 74
50 48 45 41 37 32 29 26 24 23 23 23 21 22 22 23 26 31 33 37 43 45 44 43 42 44 45 52 51 48 54 61 60 62 62 69 72 69 72 71 68 68 65
50 45 40 37 35 30 28 25 24 23 23 23 23 23 24 26 28 26 27 37 41 42 43 43 41 42 43 41 42 46 50 58 59 60 57 55 54 59 69 74 77 77 74
44 41 39 33 30 28 26 26 26 25 25 27 28 27 26 24 23 25 32 41 40 39 39 38 36 36 43 42 39 40 43 50 58 63 60 55 56 55 62 66 69 70 79
43 41 35 31 30 29 29 28 28 28 28 27 24 23 21 19 19 26 30 30 31 28 31 30 27 32 35 40 40 42 42 49 54 60 61 54 56 56 62 66 71 70 72
44 40 34 31 31 32 31 31 30 29 27 24 22 20 19 21 23 23 21 17 16 18 19 16 22 29 31 42 52 52 51 51 56 61 59 56 57 58 66 74 74 76 71
40 36 35 36 35 33 33 33 30 26 24 24 23 24 24 24 24 24 26 26 26 26 27 27 31 31 33 34 44 53 61 64 64 58 58 57 64 64 67 75 78 81 86
37 39 41 40 39 39 38 32 28 28 27 27 27 25 25 26 26 28 30 36 36 42 42 39 35 29 29 29 36 61 71 71 69 68 61 63 67 68 70 70 79 92 92
41 43 43 41 41 35 30 30 30 29 28 28 28 28 27 27 28 32 38 42 46 45 43 39 32 31 30 36 42 60 71 76 80 71 68 74 75 72 73 79 93 98 99
43 42 37 30 30 32 33 31 29 29 29 30 32 32 31 29 30 36 41 47 46 47 44 39 32 33 35 35 38 62 73 84 82 74 82 81 82 77 84 98 98 98 98
30 28 30 33 35 33 30 28 27 28 33 37 42 43 43 40 42 43 50 47 45 44 41 34 31 33 32 34 42 71 81 87 80 87 82 83 84 89 98 98 98 98 97
31 34 35 34 30 27 26 28 30 33 41 47 46 46 47 46 46 53 53 51 51 49 42 35 28 26 27 35 54 76 81 87 93 86 84 87 93 96 97 97 97 97 97
38 36 31 28 28 29 29 27 28 32 36 42 46 50 48 52 55 54 53 53 52 49 42 38 31 28 32 46 69 75 79 92 91 90 93 95 95 97 97 97 97 97 97
32 28 28 30 31 31 32 33 33 27 35 39 41 47 50 55 55 54 56 55 50 48 42 41 32 30 37 60 71 76 85 97 97 97 97 93 96 97 97 97 97 97 97
29 30 32 32 32 33 35 37 40 38 36 34 37 46 50 50 52 57 58 53 45 45 47 42 31 32 45 63 70 79 93 97 97 97 97 97 97 97 97 97 97 97 97
31 32 33 34 34 37 39 38 39 39 42 42 44 45 46 48 58 64 63 58 53 47 48 40 33 35 53 62 71 84 97 97 97 97 97 97 96 97 97 97 97 95 74
32 33 35 36 38 39 38 39 41 45 48 48 49 50 47 50 60 62 59 60 56 50 47 40 32 40 55 61 75 89 97 97 97 97 97 97 97 97 97 97 86 65 54
30 32 36 35 35 36 40 46 48 51 52 53 52 53 57 60 58 55 58 62 57 50 46 40 34 44 56 65 79 95 97 97 97 97 97 97 97 97 93 67 55 46 40
31 29 30 35 38 43 47 50 52 54 58 59 59 58 61 60 58 59 64 60 54 50 46 40 38 50 56 70 86 97 97 97 97 97 97 97 96 78 57 46 41 33 27
28 31 35 40 44 47 49 52 57 60 62 63 66 66 67 65 64 63 61 57 54 48 45 39 41 52 61 74 96 97 97 97 97 97 97 93 72 53 43 36 28 23 36
35 39 41 43 46 51 56 58 61 63 66 69 70 71 71 69 69 65 63 58 53 48 43 38 46 55 67 87 97 97 97 97 97 97 90 72 51 40 30 23 28 50 66
40 41 43 46 51 55 59 62 65 67 70 72 74 74 74 72 69 65 63 57 51 47 41 40 50 61 74 97 97 97 97 97 97 87 66 45 32 23 23 36 61 70 70
41 43 46 50 54 59 64 67 69 71 72 73 75 76 77 74 69 66 60 54 49 45 40 44 55 70 91 97 97 97 97 97 86 59 38 25 21 26 44 66 73 72 59

GFSGL_prec_cthk_009.txt.gz
RH
37 36 37 37 39 40 40 40 38 36 33 31 29 26 24 23 23 24 26 29 35 38 39 43 45 52 56 59 64 64 63 66 72 57 60 58 57 58 60 62 63 64 64
39 39 40 42 42 42 40 36 33 30 27 24 22 21 19 19 18 18 18 22 25 24 26 32 38 43 43 46 48 51 52 56 66 66 53 55 58 59 57 59 63 64 66
43 43 44 44 43 40 35 31 28 25 23 22 21 20 20 19 20 20 21 23 23 25 30 38 44 43 42 42 42 47 47 42 43 51 56 57 58 58 60 61 64 65 63
47 45 42 39 35 31 29 27 25 24 24 24 22 21 21 22 23 22 23 25 27 30 33 40 41 42 43 41 46 50 45 40 44 49 51 53 53 52 61 65 63 70 74
45 44 39 34 33 31 30 29 27 26 24 23 22 22 24 25 26 24 23 24 28 27 27 29 30 31 31 34 41 37 38 37 38 43 48 52 52 55 60 59 58 56 55
48 45 37 35 35 34 30 28 27 26 25 25 26 27 28 28 26 24 24 25 25 22 23 24 26 27 28 31 32 35 40 46 42 42 43 48 48 61 60 58 58 57 48
51 42 39 38 38 33 30 28 28 28 28 30 33 33 31 28 25 23 25 27 25 23 23 22 19 20 22 25 24 25 26 30 38 47 51 53 56 59 61 59 60 59 53
42 42 42 38 33 32 31 31 31 32 35 37 35 32 29 27 25 25 26 25 25 25 25 24 25 27 29 31 30 32 32 24 22 35 54 63 62 61 66 65 60 59 53
45 44 38 35 33 32 33 33 35 35 31 30 30 29 27 25 25 26 28 29 29 29 31 32 34 33 33 35 37 34 31 25 27 36 46 58 64 67 72 74 68 68 59
43 41 37 34 33 33 32 30 29 30 31 30 28 26 24 23 24 29 34 37 38 42 45 44 39 37 38 37 39 39 45 46 45 38 40 59 69 73 76 81 79 73 67
39 36 35 31 28 26 28 30 31 30 27 23 21 20 21 25 26 30 37 41 48 52 47 45 40 42 45 37 39 43 45 47 39 46 56 65 72 80 81 79 79 79 73
34 29 26 23 26 29 31 30 25 22 22 22 22 22 24 26 29 34 41 47 52 54 51 48 48 46 42 38 34 35 39 42 46 60 71 75 78 77 76 79 83 82 79
23 21 23 28 31 31 26 22 22 23 25 25 28 28 30 32 33 35 39 47 48 52 52 51 47 44 43 33 29 37 41 46 61 83 86 85 83 83 86 87 90 83 83
22 24 30 32 29 24 24 24 25 26 27 30 33 39 40 38 38 39 49 49 48 49 52 48 44 42 42 34 29 35 44 62 84 85 85 89 93 89 90 91 87 94 97
26 33 33 30 25 25 24 24 26 26 34 41 43 42 41 40 44 52 53 52 54 62 55 47 42 44 41 31 31 37 55 76 84 87 94 94 93 92 90 94 97 97 97
34 34 31 27 26 26 24 22 24 29 33 35 40 43 42 45 48 53 52 53 59 60 56 50 46 48 43 34 34 44 67 78 85 96 97 97 93 93 96 97 97 97 97
35 32 29 28 27 26 25 26 27 26 30 27 35 40 45 46 50 52 53 55 61 61 56 51 50 49 42 35 42 62 71 82 94 97 97 97 97 97 97 97 97 97 97
34 33 30 28 27 26 27 27 28 31 32 33 33 40 45 47 48 52 55 53 48 54 61 55 51 49 42 39 54 67 76 90 97 97 97 97 97 97 97 97 97 97 97
35 31 29 28 27 27 27 28 31 34 38 40 39 41 46 49 53 57 54 49 53 63 61 53 52 48 41 48 62 72 86 97 97 97 97 97 97 97 97 97 97 97 85
32 30 29 27 27 28 30 32 36 38 41 45 47 49 48 53 60 57 53 52 58 63 57 52 51 46 43 55 66 77 96 97 97 97 97 97 97 97 97 97 89 72 63
31 28 26 28 29 32 34 38 41 45 48 50 50 51 56 64 62 60 57 58 62 60 54 53 49 42 48 61 73 89 97 97 97 97 97 97 97 97 83 70 59 54 51
28 29 31 33 34 36 39 44 48 51 53 58 57 57 62 64 65 64 63 64 63 58 54 51 46 43 55 66 84 97 97 97 97 97 97 96 80 65 58 53 47 39 41
31 35 34 35 37 40 42 45 49 51 56 61 63 63 64 67 68 67 67 65 61 55 51 48 44 48 59 79 95 97 97 97 97 97 93 74 59 54 43 37 38 56 72
38 38 38 38 41 43 45 46 50 54 60 64 65 65 67 69 71 69 66 62 58 52 48 46 48 56 74 91 98 97 97 97 97 93 68 55 45 35 35 58 70 70 62
41 40 39 40 41 43 45 49 54 60 64 66 66 66 67 70 70 68 64 60 55 48 45 46 53 68 87 97 97 97 97 97 90 57 44 33 31 56 73 74 64 50 41
39 39 38 40 43 46 50 55 59 64 67 66 66 66 68 71 70 67 62 58 51 45 44 51 61 84 96 97 97 97 97 81 46 32 32 40 63 72 68 53 40 41 48

GFSGL_prec_cthk_012.txt.gz
RH
41 40 40 41 42 39 36 32 28 26 24 22 22 21 21 21 21 19 18 18 18 18 20 21 25 30 38 42 42 45 45 49 61 46 47 42 40 42 47 55 61 65 65
43 42 44 42 39 37 32 28 26 25 24 24 23 22 22 22 21 19 18 18 20 21 24 28 32 35 37 39 39 41 42 51 55 50 36 34 35 36 40 44 48 51 58
46 46 45 40 37 34 32 30 28 26 26 24 23 22 21 21 21 21 22 23 26 28 34 33 30 30 30 31 31 32 41 49 48 43 33 30 28 28 31 36 41 46 50
47 46 44 41 38 37 33 29 29 29 26 25 24 22 22 24 26 27 29 30 31 33 35 32 29 28 27 28 29 30 39 45 46 46 41 34 28 26 32 32 34 43 49
48 45 41 40 38 32 31 32 30 27 25 24 23 24 25 27 26 25 25 26 28 30 28 26 25 23 25 28 34 31 35 39 43 44 44 37 33 27 30 33 39 38 49
50 47 43 38 34 33 32 29 27 25 24 24 24 23 21 23 24 24 27 27 26 25 24 23 24 25 28 32 34 35 42 44 42 39 40 34 32 29 32 38 46 45 41
52 49 43 35 33 33 29 27 26 25 22 20 20 21 22 21 18 17 24 25 25 24 24 25 27 31 36 37 35 39 42 44 43 39 40 36 36 32 43 46 44 50 47
46 41 39 35 33 29 28 26 21 18 19 21 21 19 17 17 17 20 26 25 25 26 30 32 38 36 36 44 48 49 49 42 35 42 44 51 54 59 56 46 54 56 52
43 42 38 34 31 26 20 18 20 22 22 19 18 18 18 16 19 25 29 31 32 33 32 34 44 41 42 51 54 51 45 38 33 31 39 46 49 44 49 60 62 69 59
44 40 34 28 22 18 20 23 25 23 20 19 18 19 19 19 20 26 35 37 36 34 38 41 40 47 49 52 52 54 50 38 34 32 33 37 44 54 63 75 76 72 75
37 31 25 20 20 23 25 27 24 22 21 21 20 19 19 23 26 29 37 38 40 45 45 37 39 49 51 49 50 51 48 45 36 37 40 46 58 72 79 86 87 83 78
28 22 21 22 25 28 28 25 24 24 23 22 20 19 23 26 29 31 38 40 46 49 42 42 53 55 52 46 47 49 45 39 40 45 51 68 81 86 88 87 87 87 85
22 22 24 26 30 30 26 26 25 24 24 23 25 26 25 27 29 32 36 42 49 49 46 58 59 55 48 42 45 44 36 36 43 51 73 85 86 87 89 89 90 88 85
24 25 27 31 29 27 28 28 26 25 26 28 29 31 30 33 36 37 44 47 48 48 52 58 58 52 44 45 44 38 33 41 52 71 83 85 89 93 95 92 88 87 89
27 28 31 30 28 28 27 27 26 26 30 32 33 37 38 38 40 49 52 51 53 55 54 51 50 50 45 43 43 35 35 44 67 84 90 95 95 94 92 91 91 91 95
29 32 30 29 28 28 27 25 25 27 29 28 31 39 41 44 47 52 55 57 58 56 49 48 56 54 47 47 42 36 42 65 84 92 97 97 95 91 90 93 95 96 97
32 31 30 29 29 29 27 27 28 25 26 25 30 37 44 47 50 54 58 59 57 54 50 57 58 53 49 48 41 45 65 81 93 97 97 96 95 93 96 96 97 97 97
33 32 31 32 31 28 29 33 33 32 29 27 31 40 47 51 53 55 61 58 55 54 56 60 57 53 51 45 46 63 77 93 98 97 97 97 98 98 97 97 97 97 97
34 34 34 32 30 32 34 33 34 35 35 36 39 42 46 51 57 61 62 61 62 59 59 59 56 52 49 46 59 73 91 97 97 97 98 98 97 97 97 97 97 96 89
37 37 34 32 32 34 35 37 38 38 39 41 45 46 49 56 62 59 60 64 65 64 62 58 53 50 46 54 70 89 98 97 97 98 97 97 98 97 97 93 84 78 67
39 35 33 34 34 36 38 40 40 41 41 44 45 50 59 65 62 62 65 67 66 63 60 54 50 46 50 66 87 98 98 98 98 97 97 98 91 81 74 69 64 60 60
38 35 35 37 37 38 42 42 41 40 43 46 50 55 62 64 62 65 68 67 64 61 55 50 46 50 62 84 98 97 97 97 97 97 92 78 70 64 58 55 62 75 86
37 37 38 38 40 42 40 40 39 41 46 51 55 61 63 64 64 66 70 66 61 56 50 46 48 59 78 98 98 98 97 97 97 84 69 57 50 55 65 73 77 76 69
40 41 40 41 41 43 40 38 40 45 51 55 60 64 65 65 65 69 68 63 58 50 45 50 60 75 96 98 97 97 97 96 73 57 45 55 74 84 81 67 57 53 50
42 41 41 41 40 40 39 41 45 50 55 60 65 67 66 66 68 69 65 61 53 46 47 58 70 93 98 97 97 97 91 56 46 48 63 77 77 58 50 48 48 50 57
41 40 40 40 40 40 42 46 51 55 62 66 68 69 69 69 71 67 63 57 48 45 55 65 87 98 97 97 97 71 48 45 47 62 76 69 54 50 46 49 52 54 57

GFSGL_prec_cthk_015.txt.gz
RH
44 43 43 41 40 40 36 33 30 28 25 24 24 22 22 21 20 20 20 19 20 20 20 22 27 28 26 25 28 33 36 38 42 31 36 38 40 34 30 30 24 23 29
46 45 43 42 42 39 37 32 29 27 25 24 23 23 22 21 21 20 18 16 15 16 19 23 22 23 23 25 27 31 37 41 43 48 50 40 37 37 36 34 27 26 21
48 46 45 45 44 39 37 33 28 26 26 24 23 22 22 21 18 15 15 15 15 15 18 19 18 19 19 21 24 28 34 37 42 46 46 43 43 46 39 36 36 27 23
47 47 47 48 43 37 33 28 27 26 25 23 22 21 19 16 16 16 14 13 14 17 19 19 19 21 22 26 31 34 39 40 39 40 41 38 33 32 34 32 29 26 23
48 50 50 45 39 33 30 29 28 26 24 22 19 17 17 17 15 14 15 16 18 18 18 19 21 23 27 34 40 38 42 40 44 46 43 45 41 32 32 31 34 28 28
51 49 40 41 36 31 30 29 26 23 20 18 18 18 16 15 15 15 17 22 23 23 21 21 24 28 33 37 37 39 46 54 52 56 54 49 43 42 42 44 49 52 51
48 43 40 38 36 31 29 25 21 19 20 20 19 17 17 16 16 18 26 25 25 25 27 29 28 35 40 38 37 45 44 43 43 51 53 54 51 39 47 51 57 62 63
48 43 40 39 33 28 23 20 21 22 22 20 18 18 17 17 19 22 26 26 26 29 33 32 36 39 39 43 47 53 41 33 38 43 49 47 47 45 47 51 49 47 42
44 42 39 32 26 22 21 23 24 22 20 19 19 19 18 19 21 25 29 30 27 31 33 37 42 37 43 51 61 52 41 35 36 43 44 44 44 43 52 56 54 63 58
43 40 31 24 22 23 24 25 23 21 20 20 19 19 20 21 21 26 33 32 32 34 38 42 39 42 48 59 64 57 44 39 42 39 31 31 43 48 59 69 72 77 80
40 30 25 24 24 25 26 25 22 22 21 20 19 20 22 24 25 27 34 35 39 43 44 40 40 43 57 55 57 54 51 51 44 35 33 41 49 62 76 87 90 92 87
29 26 25 25 27 28 26 23 24 22 22 22 20 21 25 27 28 30 35 38 44 49 49 45 49 51 49 47 50 55 50 49 39 38 44 53 75 87 88 93 94 90 85
27 26 26 28 29 27 23 23 23 23 24 23 25 29 29 28 30 33 36 43 50 51 51 52 53 46 45 46 51 52 48 43 41 46 61 83 91 91 92 94 95 96 89
27 27 30 30 27 24 24 25 25 25 26 30 33 36 36 34 34 36 44 50 53 54 55 51 48 47 50 52 50 47 45 43 52 69 83 91 95 96 95 94 93 90 92
29 32 32 29 26 24 25 27 26 29 33 37 38 43 42 40 40 47 52 53 57 59 56 51 50 52 51 50 48 45 41 53 72 88 96 97 96 95 94 91 91 91 94
34 33 30 27 25 27 27 25 29 31 37 39 40 45 44 44 44 48 52 57 61 58 58 58 55 57 57 51 46 41 57 75 93 98 98 98 97 94 91 92 96 97 97
35 32 30 28 29 29 28 30 31 33 35 37 40 40 44 43 45 49 56 62 58 59 62 59 60 59 55 50 48 63 78 97 98 98 98 98 98 95 97 97 97 97 97
35 34 32 33 31 30 33 37 37 37 37 38 36 38 41 44 47 52 61 57 54 60 64 63 61 55 51 50 63 79 98 98 98 98 98 98 97 98 97 97 97 97 97
37 36 36 33 32 36 39 38 38 41 41 39 37 36 38 43 50 57 59 57 60 64 63 61 56 50 51 60 77 98 98 98 98 98 98 98 98 98 98 97 96 92 85
40 39 35 34 36 39 39 38 40 43 42 41 39 39 40 47 52 55 56 59 65 64 61 56 50 51 61 74 97 98 98 98 98 98 98 97 95 90 86 82 73 67 62
39 37 36 40 40 39 38 40 43 44 43 41 40 41 50 55 57 58 59 62 66 62 57 51 50 60 71 97 98 98 98 98 98 98 90 78 70 65 64 67 73 82 86
39 38 41 42 41 40 42 44 42 43 42 41 42 46 54 58 60 60 61 65 63 59 52 51 61 71 95 98 98 98 98 98 92 75 68 70 72 78 84 89 93 89 84
41 42 41 40 40 41 40 40 40 41 41 44 49 54 59 61 62 62 65 64 60 53 50 62 69 91 98 98 98 98 96 77 67 72 75 81 83 75 66 62 60 60 60
43 43 41 40 39 40 39 38 39 41 46 51 54 61 62 63 64 66 67 62 54 50 60 69 89 98 98 98 97 85 67 67 70 74 69 61 54 50 50 51 54 57 61
42 41 38 38 37 37 36 36 41 46 50 54 61 63 62 65 65 68 65 58 51 58 67 83 98 98 97 92 70 63 60 64 67 64 60 56 52 52 54 57 61 63 66
39 37 36 36 35 35 36 42 47 51 53 60 65 62 64 65 66 66 61 52 56 66 76 96 98 94 88 64 60 58 57 66 72 67 58 55 53 58 59 62 63 64 64

GFSGL_prec_cthk_018.txt.gz
RH
47 47 47 46 44 41 40 39 35 31 27 25 24 23 22 22 22 20 17 17 18 17 16 16 16 22 22 22 23 24 25 30 39 28 34 23 24 27 32 36 39 46 46
49 50 49 47 44 43 42 39 33 28 26 26 24 24 23 21 18 17 17 16 17 17 16 17 19 24 22 25 26 27 36 38 44 44 36 35 33 34 37 39 38 39 43
51 51 49 48 45 45 38 31 29 28 27 26 24 23 20 19 18 16 16 17 17 17 19 21 25 27 27 28 30 36 38 40 41 44 38 40 37 36 39 40 43 40 35
52 50 48 46 45 40 33 31 30 28 26 24 23 21 21 19 15 16 16 18 18 20 24 28 29 29 29 29 34 38 41 41 39 45 48 46 43 36 40 39 35 29 38
51 48 47 47 43 38 34 32 30 26 25 24 23 23 19 16 16 15 15 19 20 23 29 29 30 30 30 33 41 42 44 41 45 52 50 44 35 34 40 39 54 44 34
50 50 49 44 40 37 33 29 27 25 25 25 24 20 17 17 15 14 16 22 23 30 30 30 32 34 36 37 42 44 45 51 54 62 56 45 38 47 45 46 44 46 43
53 52 47 43 38 34 30 27 26 26 26 25 21 18 17 16 16 16 23 24 32 32 33 34 33 36 40 43 43 44 52 55 58 64 62 50 48 45 50 47 46 55 49
53 50 43 39 35 31 28 26 26 28 26 22 20 18 18 18 19 24 25 28 34 34 38 39 39 41 44 45 44 47 56 52 50 53 57 55 54 52 50 48 49 51 47
51 45 41 36 32 29 26 27 29 27 23 20 19 20 19 20 23 26 29 35 35 34 37 40 42 45 46 49 56 58 56 47 43 49 56 52 48 40 44 53 55 64 64
49 43 38 33 29 27 28 30 28 23 21 20 20 20 22 23 26 30 38 38 35 35 36 44 47 49 50 53 61 55 51 45 47 49 43 40 37 41 52 66 81 85 89
47 39 33 29 27 29 31 29 23 21 20 21 21 23 26 28 30 34 40 39 40 38 43 45 48 54 56 54 56 57 56 53 53 48 41 38 44 59 78 93 94 90 90
39 32 29 27 30 32 28 24 22 23 22 23 24 26 32 36 36 38 41 40 44 47 46 48 54 57 55 59 59 57 56 58 50 46 50 59 70 82 89 96 96 94 97
31 28 28 31 32 30 26 23 25 25 26 27 28 31 37 40 42 42 41 41 44 47 51 56 58 58 57 55 58 57 56 51 54 66 73 82 94 95 96 96 96 95 95
27 30 33 34 31 28 25 27 28 29 29 30 32 36 39 43 43 42 41 43 46 48 56 58 55 59 59 57 56 53 51 62 71 79 89 97 97 97 97 96 94 92 94
32 35 36 33 30 27 28 30 30 30 31 36 37 39 42 44 43 45 47 48 49 55 60 54 57 58 57 56 52 51 59 74 86 97 98 98 95 95 92 93 95 97 98
36 38 35 32 30 30 30 30 31 33 37 40 41 41 44 47 45 45 46 49 53 59 57 59 61 60 57 53 53 59 76 96 98 98 98 98 98 98 98 98 98 98 97
40 39 36 34 33 33 31 32 32 34 38 40 41 43 46 46 45 43 46 52 54 57 58 63 61 57 53 56 66 85 98 98 98 98 98 98 98 98 98 98 98 98 98
44 41 37 34 34 34 35 35 36 37 39 41 41 44 45 45 43 44 51 54 56 57 64 63 58 54 55 67 87 98 98 98 98 98 98 98 98 98 98 98 98 98 96
47 41 36 34 35 36 37 38 39 41 45 44 43 42 43 42 44 50 56 59 59 61 64 59 54 55 68 88 98 98 98 98 98 98 98 96 92 90 87 83 80 80 78
46 39 36 35 38 39 39 40 40 44 44 44 43 42 40 43 50 56 60 61 61 65 62 54 55 69 89 98 98 98 98 98 98 93 84 79 79 79 80 83 88 91 89
43 38 37 37 39 40 40 41 44 44 43 42 40 41 47 52 58 61 62 62 66 64 55 56 68 88 98 98 98 98 98 94 84 83 87 94 97 95 95 97 98 98 98
42 40 37 39 40 40 40 40 40 40 38 39 40 43 51 59 60 62 63 67 65 58 55 69 86 98 98 98 98 96 82 83 87 93 88 80 75 72 71 73 74 75 76
42 38 40 41 41 40 38 38 37 35 37 42 46 50 57 60 60 64 67 66 59 54 68 82 97 98 98 98 88 81 87 86 76 64 59 57 55 53 54 56 59 60 62
41 42 43 42 39 38 36 33 34 37 42 46 50 55 61 59 61 65 66 61 55 67 77 94 98 98 96 82 82 77 73 74 67 62 61 60 60 59 62 66 68 69 73
43 43 41 39 36 35 32 34 38 41 45 49 54 60 61 59 62 65 62 57 65 74 85 98 98 92 78 76 69 63 72 71 66 65 65 62 61 63 63 64 66 67 66
39 38 35 33 33 31 33 37 40 44 49 54 60 62 59 59 62 62 58 63 73 80 95 95 87 74 71 62 60 70 70 68 67 68 71 71 67 66 63 64 65 66 69

GFSGL_prec_cthk_021.txt.gz
RH
53 48 46 46 46 45 44 39 35 30 27 27 27 27 26 23 21 22 22 20 18 17 17 18 19 20 22 23 25 25 28 36 39 30 30 28 27 29 29 37 37 40 34
50 47 47 48 48 46 42 39 32 29 28 28 28 25 23 23 24 24 21 18 17 17 18 19 22 24 25 28 28 30 37 38 39 44 36 35 29 32 37 42 38 36 31
49 49 51 51 48 46 43 36 31 30 30 28 25 24 25 26 25 22 19 17 17 17 18 22 24 28 29 30 34 37 36 40 46 51 43 36 38 45 44 40 34 26 28
55 53 51 51 50 45 40 35 32 31 28 26 26 27 28 27 22 19 17 16 17 18 20 24 30 32 33 35 37 41 43 45 44 49 44 46 51 48 51 47 35 37 36
54 52 53 53 48 43 38 33 31 29 27 27 28 30 27 21 17 16 17 18 19 21 23 30 33 34 37 43 45 46 47 50 49 49 48 56 54 49 44 45 47 40 32
53 55 55 51 45 39 34 32 30 29 28 30 30 26 21 17 17 18 20 21 23 25 32 33 34 34 39 42 44 44 53 57 57 60 59 62 55 48 45 50 52 48 38
55 56 53 48 40 36 33 31 30 30 30 29 25 20 18 18 19 20 22 25 26 33 34 35 36 38 43 43 43 47 53 58 65 62 62 62 55 48 55 55 51 46 37
56 53 49 43 38 34 31 31 29 30 29 24 21 19 19 19 21 23 25 27 32 36 38 42 44 42 42 48 53 55 57 60 56 60 63 59 57 60 60 55 45 42 48
53 49 45 40 35 32 29 28 30 28 23 21 20 20 20 22 24 27 30 35 37 39 43 46 47 48 47 52 60 62 56 50 54 58 59 59 61 57 53 49 52 66 70
50 46 42 37 32 27 27 29 28 24 21 21 21 22 23 24 28 32 39 41 41 42 42 45 48 47 49 61 65 63 59 55 58 54 53 50 49 46 54 65 75 85 88
46 46 38 30 25 27 30 28 24 22 23 23 23 23 25 29 34 39 43 46 50 48 48 46 45 47 60 63 63 64 61 61 58 54 50 53 59 69 81 90 95 94 91
48 36 27 25 28 30 29 26 24 25 25 24 24 25 28 33 36 38 44 48 52 53 50 47 46 57 60 59 63 62 61 60 53 58 67 73 83 93 95 96 97 98 98
31 25 26 29 31 31 28 27 27 27 26 25 26 28 31 34 36 42 44 44 48 50 49 49 52 57 55 59 57 61 57 56 67 75 84 94 96 96 96 96 94 92 94
25 27 30 33 33 31 30 29 28 27 28 29 30 32 35 37 39 41 43 47 49 46 48 52 54 56 60 58 55 53 57 72 84 95 96 97 97 97 96 96 96 95 97
28 31 35 36 35 33 31 30 29 30 33 35 36 37 39 39 41 46 51 49 48 51 54 56 56 58 58 54 52 56 74 94 98 98 98 97 98 98 98 98 98 98 98
32 36 38 39 37 33 31 30 31 33 33 34 36 43 44 46 46 47 47 48 54 58 60 59 60 62 56 53 60 84 98 98 98 98 98 98 98 98 98 98 98 98 98
36 39 40 41 37 34 34 32 31 28 31 33 38 43 44 47 46 44 47 53 57 62 61 62 64 57 54 65 92 98 98 98 98 98 98 98 98 98 97 98 97 97 96
39 43 44 42 37 37 35 34 33 31 31 33 36 40 41 42 42 47 53 58 57 59 63 65 59 55 69 94 98 98 98 98 98 98 98 96 94 93 93 91 89 90 91
44 47 47 42 39 38 35 34 33 34 37 37 35 31 37 41 46 53 59 61 63 64 66 60 55 71 95 98 98 98 98 98 98 95 94 97 98 98 98 98 98 98 98
48 49 46 43 40 36 36 34 35 38 36 35 34 37 41 45 49 54 59 62 65 68 62 54 71 96 98 98 98 98 97 93 95 98 98 97 94 95 98 98 98 98 97
51 49 46 43 39 38 36 36 38 36 35 34 36 41 47 52 55 60 60 64 68 63 56 72 94 98 98 98 98 91 92 98 88 82 78 71 70 74 80 84 85 89 94
51 47 44 40 39 38 37 37 36 36 34 35 38 42 49 53 59 59 63 67 64 57 74 88 98 98 98 93 88 93 90 79 70 68 66 63 61 57 59 63 68 73 75
49 43 42 41 39 37 36 36 35 34 34 37 42 46 50 56 58 58 64 63 58 73 84 95 98 98 91 89 84 79 75 72 70 71 68 66 65 65 68 69 71 75 75
42 43 41 39 37 36 35 34 33 33 38 43 47 50 54 57 56 60 62 60 72 80 87 98 96 89 81 78 71 73 75 73 76 78 70 68 67 67 70 72 73 76 73
41 40 38 36 35 36 35 33 34 38 45 49 50 54 56 56 57 60 60 71 78 83 92 92 84 79 72 64 72 75 76 79 84 85 79 72 68 68 70 72 74 74 80
38 36 34 35 36 35 34 33 38 45 50 51 53 56 55 56 59 59 69 77 82 84 87 81 77 69 63 71 74 76 79 83 89 89 87 83 74 72 71 69 73 81 81

GFSGL_prec_cthk_024.txt.gz
RH
47 52 55 48 46 44 45 46 43 34 28 26 27 27 26 24 24 24 24 22 20 17 15 14 15 16 17 20 23 27 31 35 42 26 26 26 27 28 25 31 35 37 37
53 58 51 49 47 49 50 46 39 33 28 28 27 26 25 26 26 25 22 19 16 14 13 14 15 17 19 24 29 31 35 38 42 42 34 36 33 30 30 33 39 42 50
60 59 54 54 54 51 48 44 37 30 28 28 27 27 27 27 24 21 17 16 15 14 14 15 17 21 26 31 33 38 39 43 47 51 43 38 39 37 39 39 44 43 43
65 61 57 55 53 51 48 41 32 29 28 29 27 28 27 23 20 17 17 17 17 18 18 18 23 28 33 36 41 45 48 52 52 47 56 53 49 47 55 58 51 45 37
68 60 56 56 54 50 44 35 30 29 30 28 28 26 22 20 18 18 18 19 20 20 20 23 28 35 38 46 49 50 53 52 55 58 56 58 59 60 60 54 52 44 37
63 57 56 54 52 48 38 31 30 30 28 27 24 22 19 18 17 20 22 23 22 23 24 28 34 38 40 47 49 49 54 60 58 63 63 63 54 58 57 57 55 51 46
57 57 55 52 49 40 32 32 31 28 27 24 21 18 18 18 19 21 22 24 25 28 33 36 37 40 44 46 46 50 55 56 63 67 63 61 59 62 60 56 57 53 48
56 53 53 50 41 33 33 31 28 27 24 21 19 19 19 19 20 21 24 28 31 35 38 41 44 44 48 51 52 54 53 56 58 63 64 64 66 62 63 59 59 55 64
52 52 49 41 36 34 29 27 28 25 22 20 20 19 19 19 20 24 33 36 37 37 41 47 52 50 50 54 58 57 57 56 57 59 63 64 60 57 62 70 71 78 77
50 48 42 38 34 28 28 29 26 23 22 21 20 20 20 21 23 29 37 39 40 43 44 48 48 50 48 56 60 60 61 58 59 58 51 47 54 66 84 92 93 91 91
46 44 41 33 27 29 30 29 26 23 22 21 21 21 22 24 26 30 38 42 51 50 49 44 41 46 56 60 60 64 64 62 56 52 60 76 93 97 98 99 99 97 93
47 41 31 27 30 31 31 29 25 24 23 23 23 23 24 26 29 31 40 46 51 51 49 43 45 55 58 61 64 64 61 59 61 77 94 97 98 98 98 99 97 96 97
38 28 26 30 32 33 32 28 25 26 26 26 26 26 27 29 30 34 41 44 47 48 47 53 57 60 61 59 60 58 59 71 91 96 97 98 99 99 97 96 95 98 98
27 27 30 32 33 34 32 28 28 28 28 28 29 30 31 32 34 37 45 44 45 46 52 58 57 58 60 60 52 58 82 99 99 99 98 98 98 98 98 98 98 97 96
28 30 32 34 35 35 32 30 30 30 32 32 33 35 37 37 39 45 45 47 51 56 59 57 55 58 56 51 65 93 98 98 98 98 98 98 98 98 98 98 98 97 98
30 32 35 37 38 37 32 30 31 31 31 33 34 39 38 42 45 45 47 51 56 59 59 58 62 59 54 77 97 97 98 98 98 98 98 98 98 98 97 98 98 98 98
31 34 37 40 40 37 35 32 29 28 31 32 31 34 39 40 39 43 51 53 57 59 61 64 60 57 86 99 99 99 98 98 98 98 98 98 98 98 98 97 97 98 98
34 37 40 44 42 38 36 34 34 33 31 26 27 32 35 37 41 45 51 54 51 58 65 61 59 86 99 99 99 98 98 98 98 98 98 98 97 98 97 98 98 98 98
37 41 46 46 43 40 35 36 35 33 30 29 30 30 31 35 43 48 55 55 60 64 61 60 84 98 98 99 99 98 98 98 94 88 83 82 81 84 92 98 98 98 97
43 47 48 45 42 36 37 35 34 31 30 32 33 31 35 42 45 48 53 55 63 61 63 83 95 98 99 99 97 96 98 90 77 72 71 69 66 66 74 85 89 96 97
48 50 47 42 37 37 36 36 32 30 32 33 32 37 45 49 49 54 52 59 61 64 82 91 97 99 98 94 95 89 80 73 74 75 72 68 66 65 67 68 74 83 89
51 48 42 37 38 37 37 33 29 32 32 32 35 41 46 48 53 53 56 59 65 80 89 95 98 95 91 86 80 78 76 77 80 80 70 68 69 71 73 73 76 76 75
47 40 37 38 38 36 31 29 31 33 33 36 41 46 48 51 52 54 57 64 76 86 89 96 92 84 81 74 76 77 79 81 84 83 72 69 70 72 74 75 77 76 74
38 37 36 37 35 31 29 31 33 32 35 39 46 49 50 52 51 56 61 74 83 85 89 87 82 77 71 76 77 83 86 91 91 89 78 72 71 72 74 75 73 76 81
37 36 36 35 31 29 31 33 32 33 38 46 50 50 51 50 53 59 71 80 82 81 82 80 74 72 77 78 83 86 89 89 89 94 89 77 74 71 73 78 82 82 80
36 36 35 31 29 31 33 33 34 38 45 50 50 50 49 51 55 65 76 79 76 77 76 72 73 77 80 84 86 86 86 85 86 90 93 88 79 74 75 77 77 78 80

GFSGL_prec_cthk_027.txt.gz
RH
52 54 51 51 60 61 54 49 49 48 38 29 26 24 24 25 27 26 23 20 17 14 13 13 13 13 14 16 18 23 28 34 36 23 25 26 26 28 30 35 42 40 38
54 55 57 58 65 61 54 52 50 41 34 27 25 25 27 29 26 22 19 15 14 14 15 16 15 14 16 20 23 28 32 34 44 43 30 34 33 34 39 38 41 44 50
57 58 58 61 68 63 56 52 46 38 29 26 26 29 29 25 22 17 15 16 17 18 18 18 17 18 21 25 30 34 38 45 48 50 43 37 43 47 43 46 48 45 50
60 64 64 68 70 58 56 51 42 31 27 27 30 29 25 21 17 15 17 18 19 18 18 20 21 23 27 34 36 43 48 47 46 46 53 55 51 50 56 52 44 47 51
68 68 66 73 62 59 55 43 32 29 28 32 30 25 20 17 16 18 19 20 19 20 21 24 25 30 35 38 46 44 47 48 53 58 56 57 55 47 53 51 51 51 52
70 66 75 65 60 56 42 34 29 29 33 30 25 20 18 17 17 18 20 20 21 24 27 29 30 34 35 38 42 49 52 59 57 59 61 58 54 57 54 56 57 56 54
70 77 67 62 55 45 35 29 31 34 30 26 21 19 19 17 16 20 21 24 27 30 32 32 33 34 39 42 40 48 48 55 60 62 59 61 60 58 59 58 60 68 71
77 67 60 55 47 35 29 33 34 30 27 23 21 19 18 18 19 23 24 29 32 32 34 36 36 38 42 47 47 50 56 57 58 62 67 63 62 62 64 72 78 81 86
63 57 52 48 36 31 35 34 31 28 25 22 20 19 19 20 22 26 31 31 30 33 33 34 42 42 43 48 57 60 58 57 58 62 62 60 63 84 96 94 92 93 89
53 50 47 36 34 36 33 32 31 27 23 22 21 21 22 23 24 29 34 37 35 31 30 33 37 44 50 60 64 61 61 57 60 56 61 86 92 94 98 99 98 94 94
49 45 38 36 35 34 33 32 29 26 24 23 22 22 24 26 26 31 35 39 40 41 38 37 40 50 61 60 61 62 61 59 66 88 94 94 96 97 98 98 99 98 96
44 39 37 33 34 34 33 32 29 26 25 24 23 25 27 28 30 30 36 38 45 45 45 45 52 58 59 58 58 57 61 83 95 96 97 97 97 96 97 98 98 98 98
42 36 32 33 34 35 34 33 30 28 26 24 26 28 29 29 29 30 34 40 43 45 50 55 55 56 56 53 52 70 94 96 96 96 98 98 98 98 98 97 97 98 97
33 32 33 34 35 36 36 34 31 29 26 29 30 30 29 30 30 34 39 39 42 47 53 51 54 57 55 53 78 95 98 98 97 97 98 98 98 98 98 98 97 97 97
32 32 34 35 36 37 37 34 32 29 30 32 32 32 32 29 31 39 43 45 49 54 54 53 55 52 50 86 94 97 98 98 98 98 98 97 98 98 98 98 98 98 98
33 34 35 36 38 38 36 34 31 30 30 31 33 32 30 34 37 37 43 46 52 53 54 58 54 59 90 96 96 96 97 98 98 98 97 97 95 96 98 98 98 98 97
34 35 37 39 40 39 36 31 28 29 29 28 29 31 32 33 37 40 44 47 52 52 59 56 65 88 96 97 97 98 97 98 96 90 85 83 84 86 91 97 97 98 98
35 36 38 41 41 39 33 31 31 28 26 24 24 27 30 32 40 44 47 48 46 56 58 66 85 96 97 98 97 97 98 94 83 76 75 76 75 70 77 89 96 97 98
34 38 42 43 40 34 32 31 30 29 28 25 23 24 28 34 40 42 47 49 53 56 65 83 92 97 97 95 97 94 83 76 75 79 75 71 69 64 65 77 88 96 98
38 44 43 41 34 32 32 30 29 29 26 25 26 28 31 38 40 42 46 51 56 66 81 90 95 97 92 89 82 79 78 80 82 83 72 70 70 69 68 70 75 83 90
45 45 42 34 31 32 31 30 29 26 25 27 28 31 39 45 43 47 49 54 66 80 88 92 94 87 84 79 80 79 81 83 84 83 72 69 72 70 75 75 78 80 84
46 41 34 31 31 31 30 29 27 25 27 28 29 33 42 43 46 48 53 64 77 85 88 90 82 79 78 79 78 82 86 90 91 87 74 70 70 73 76 77 76 78 80
40 33 31 30 30 30 28 26 25 27 29 29 33 39 42 45 47 50 60 73 81 81 81 81 76 78 82 82 86 90 90 89 91 93 75 73 72 75 78 78 80 81 79
32 30 30 30 29 28 26 25 28 29 30 34 39 43 44 44 47 56 70 76 75 75 78 76 79 85 87 89 89 87 85 86 90 96 85 77 74 77 80 83 82 81 79
31 30 29 29 28 27 26 28 28 30 35 39 43 45 43 43 51 64 72 71 73 72 77 81 84 82 81 80 80 81 82 82 88 95 92 80 77 80 82 81 83 84 83
30 29 28 28 27 27 27 28 30 35 39 43 44 42 42 45 59 65 67 72 69 75 77 79 78 76 77 75 79 81 82 81 88 93 87 78 76 75 76 80 84 83 82

GFSGL_prec_cthk_030.txt.gz
RH
46 49 54 58 61 58 58 62 69 60 49 42 35 31 30 25 26 28 26 22 18 16 16 16 17 17 16 16 16 19 22 27 33 22 22 24 27 30 33 44 50 48 44
51 56 58 61 63 63 66 67 70 57 44 38 34 31 27 29 28 26 21 18 16 16 17 18 18 18 19 18 20 23 26 29 38 40 29 28 29 31 38 41 46 50 50
56 59 62 64 66 71 69 70 63 47 40 36 29 29 29 29 26 22 18 16 16 18 19 20 21 22 21 22 26 30 34 38 42 45 39 35 38 37 39 45 47 43 43
60 63 64 66 73 75 69 69 52 43 36 31 32 29 31 26 22 18 16 17 18 20 21 22 23 26 26 30 35 38 45 44 43 46 48 45 45 50 55 52 42 44 45
62 62 66 75 77 71 75 58 47 36 33 32 31 33 27 23 19 17 19 20 20 21 22 24 27 29 32 36 43 43 44 44 49 52 47 54 58 53 54 53 51 50 49
63 67 76 79 75 77 63 48 37 33 33 34 34 27 24 20 18 19 22 22 22 24 25 27 27 30 32 34 35 41 45 53 52 61 64 61 57 59 57 57 56 57 66
66 79 81 79 80 65 49 38 36 33 37 34 28 25 22 20 19 19 22 23 24 26 27 28 29 31 31 32 33 43 44 57 65 65 61 59 58 56 61 74 86 90 86
80 81 82 81 65 50 38 34 33 39 35 30 26 23 22 20 20 20 21 24 26 26 28 30 34 31 33 40 47 50 57 51 51 56 59 59 72 89 96 95 93 90 89
82 82 76 63 46 36 34 35 40 36 31 28 26 24 22 21 22 22 28 27 27 27 29 33 36 35 38 50 58 54 51 49 48 54 74 93 97 98 100 95 93 96 92
78 69 55 45 37 33 36 41 37 33 30 28 26 24 23 23 23 25 31 34 33 28 30 31 34 41 50 54 56 56 50 47 70 87 91 90 93 96 99 98 97 96 96
56 50 45 36 33 38 40 37 34 33 30 28 25 23 23 24 25 28 34 37 35 35 33 33 36 46 54 55 56 52 57 83 90 90 88 91 94 96 97 98 99 98 94
49 44 36 33 39 40 38 37 35 33 30 26 24 23 24 25 26 26 35 35 43 40 39 38 45 50 54 54 48 66 90 93 92 90 93 95 96 96 97 98 98 98 98
45 35 33 38 40 38 38 37 35 32 28 26 24 25 25 25 25 27 34 34 37 44 39 46 49 52 50 43 70 90 92 92 93 94 96 96 97 97 97 97 97 98 97
34 34 38 39 38 39 39 37 34 30 27 26 26 26 26 26 26 31 33 33 40 40 44 45 49 49 45 75 87 89 92 95 95 95 95 92 91 90 93 97 97 97 96
35 37 38 37 39 39 37 35 33 29 27 28 28 28 28 26 29 34 35 40 43 44 46 46 46 49 74 89 90 92 94 96 97 93 86 81 79 81 86 94 97 97 98
38 37 37 38 39 38 37 36 32 28 27 26 25 27 26 28 27 34 37 41 43 46 45 48 54 75 89 92 93 94 95 96 90 78 77 76 75 74 72 87 97 98 96
38 37 37 39 39 38 37 33 27 26 26 25 24 23 26 27 29 36 40 43 42 44 49 57 74 87 92 93 92 93 90 79 75 80 80 70 69 68 65 76 92 98 97
37 37 38 40 40 39 34 29 27 25 24 24 23 23 23 27 31 41 41 40 39 46 56 74 85 92 93 89 87 83 78 78 82 83 79 70 69 71 70 69 81 97 97
37 37 41 42 40 34 29 28 26 25 24 23 21 21 23 26 34 39 40 41 45 53 72 83 89 90 82 82 82 80 80 83 83 84 75 72 72 73 75 74 73 88 97
38 42 43 41 34 30 28 27 25 24 24 23 22 23 25 31 35 36 39 43 53 71 81 83 83 78 80 82 81 81 86 89 90 90 76 74 74 76 77 77 80 82 88
44 45 42 34 29 28 27 25 24 24 25 23 23 25 33 38 38 38 41 51 69 79 78 78 75 79 82 82 86 92 93 92 91 92 78 75 75 75 77 75 76 81 83
45 40 32 28 27 27 25 24 24 25 24 23 25 28 34 37 38 39 49 64 73 73 72 75 80 84 87 88 90 90 89 89 90 94 83 76 76 79 83 84 85 83 81
37 30 28 28 27 25 24 24 24 23 24 26 30 34 37 38 38 43 58 66 68 69 75 80 83 81 81 82 81 82 82 84 92 94 84 76 78 82 85 86 83 82 80
30 28 28 27 25 24 24 23 22 24 27 31 34 38 39 38 40 53 59 64 67 70 74 76 77 78 80 80 82 83 82 85 95 92 80 79 81 82 85 86 86 85 82
29 28 27 25 24 23 22 22 24 27 31 34 37 39 38 38 50 55 59 65 67 67 73 76 75 75 78 80 84 84 87 92 93 83 79 78 77 81 86 84 81 81 80
28 27 25 24 22 21 22 25 28 31 34 37 38 38 38 47 53 56 62 66 64 72 73 71 73 74 75 78 81 85 90 92 83 78 73 72 79 86 83 82 81 81 81

GFSGL_prec_cthk_033.txt.gz
RH
45 46 47 51 54 58 61 64 64 62 61 57 55 38 32 37 34 30 28 27 28 23 19 18 18 19 20 20 21 22 24 28 31 20 18 18 18 22 27 33 38 44 43
48 49 52 56 58 63 66 68 66 66 63 56 46 35 39 34 31 29 29 28 23 19 18 19 20 21 22 23 24 25 26 27 35 35 26 20 22 23 27 38 46 52 56
52 53 55 60 64 68 69 68 71 70 59 55 39 40 34 32 30 30 29 23 20 20 21 21 22 23 24 25 26 27 30 33 36 36 31 32 33 38 41 47 50 51 51
53 57 62 65 68 68 69 73 75 65 61 45 39 35 33 31 32 29 23 21 21 22 22 23 23 25 25 27 30 33 34 33 33 37 40 42 50 52 55 54 48 46 45
59 63 66 68 67 70 74 80 72 66 51 38 36 33 31 34 29 24 22 22 23 22 23 23 23 23 25 30 33 31 34 40 42 45 49 56 55 52 49 47 56 66 78
64 67 69 68 69 77 83 79 70 53 39 35 33 33 35 30 24 23 22 23 23 23 22 22 22 22 25 29 31 34 43 47 54 57 54 53 47 51 67 84 89 89 81
69 69 68 70 81 85 81 72 53 37 35 34 34 36 31 26 24 22 22 26 23 23 23 23 23 27 28 28 31 39 46 52 57 57 49 51 68 86 90 89 90 92 90
67 66 74 85 86 82 71 49 36 36 35 37 38 32 28 26 23 22 23 22 23 24 24 26 30 28 31 36 43 47 44 45 45 47 66 84 91 93 94 93 90 91 91
70 81 85 85 80 67 42 37 36 36 40 38 33 30 27 24 23 21 21 23 24 24 26 31 32 35 36 45 48 49 46 41 50 81 90 92 91 94 96 91 90 92 87
82 82 81 77 52 41 37 36 37 42 39 34 33 28 25 23 22 20 26 25 25 27 30 30 34 37 40 48 53 49 45 61 83 86 86 87 90 92 96 97 96 93 91
80 78 60 47 42 37 35 39 42 39 37 35 30 26 24 23 21 21 26 28 31 32 29 31 33 38 43 48 49 48 74 85 86 86 86 87 91 93 94 96 98 97 92
59 51 50 43 36 35 41 41 40 39 36 31 28 25 23 22 21 21 27 33 33 32 33 34 37 42 46 45 48 78 87 88 87 88 88 89 84 81 82 87 91 98 98
53 49 42 33 37 41 41 42 40 37 33 29 26 23 22 21 21 23 27 32 33 35 37 40 41 42 42 49 77 87 87 87 89 90 89 80 77 76 76 79 84 95 96
48 38 33 38 40 41 42 41 38 35 31 27 24 24 21 21 22 26 31 32 34 38 40 39 39 43 52 75 84 86 88 90 92 87 76 75 72 67 69 70 82 92 93
37 37 37 39 41 42 41 40 38 34 28 26 25 24 24 24 25 33 34 34 37 40 41 38 41 52 74 85 87 86 89 90 82 74 77 76 65 63 64 63 78 94 95
37 36 40 41 42 41 40 40 36 30 26 25 23 23 23 24 26 26 33 36 41 39 39 42 54 73 85 87 85 87 85 79 75 80 80 75 66 65 65 65 68 95 96
37 40 41 41 41 41 40 36 29 27 25 23 22 21 21 21 26 28 35 34 37 38 42 55 72 84 89 82 82 82 77 75 80 82 81 71 69 70 68 70 68 87 96
41 41 41 42 43 42 36 30 26 24 22 21 21 21 22 21 27 31 34 34 34 39 54 72 82 86 78 80 80 79 77 80 85 86 84 73 73 72 72 74 76 78 95
42 41 43 45 43 37 30 26 24 23 22 21 20 21 21 22 30 32 33 35 38 52 71 79 79 77 79 83 84 84 87 91 89 89 85 76 76 73 72 72 76 80 93
43 46 47 44 36 29 26 25 24 22 22 21 20 20 22 28 30 32 34 36 49 68 72 74 77 81 85 85 86 88 90 88 89 91 88 79 76 77 78 77 78 78 81
48 48 43 34 28 26 25 24 23 22 21 20 20 23 30 34 34 35 35 45 63 67 73 73 78 81 82 83 83 83 84 84 87 96 88 79 80 82 84 85 85 83 82
48 41 33 29 27 25 24 23 22 20 19 20 22 25 29 33 35 35 43 57 61 69 69 74 79 80 81 81 82 83 83 84 94 97 85 83 86 87 88 87 84 81 80
39 32 29 27 25 24 23 22 20 19 20 23 27 29 32 34 35 40 53 56 63 64 71 77 78 77 81 82 85 84 89 96 97 86 83 83 83 87 86 84 84 82 80
32 29 27 26 24 23 22 20 20 22 24 27 31 33 35 34 37 51 53 60 62 66 74 73 74 75 77 80 86 92 93 89 83 79 77 80 87 88 84 81 79 78 78
29 28 26 24 23 22 20 21 22 25 28 31 33 34 34 35 50 52 57 59 63 68 71 73 74 73 72 77 86 87 84 82 80 77 80 88 90 86 86 85 82 80 77
28 26 25 24 22 21 22 23 26 29 32 33 34 35 35 47 50 55 59 60 62 68 72 72 72 73 75 80 83 83 82 80 78 82 87 87 88 89 89 88 86 85 81

GFSGL_prec_cthk_036.txt.gz
RH
61 55 51 47 48 51 54 58 62 63 66 68 65 63 53 44 38 37 35 32 30 28 29 26 22 22 22 23 25 26 26 27 26 15 16 14 15 20 22 29 37 40 40
57 57 50 48 52 55 59 63 65 68 69 67 67 61 50 45 39 36 32 29 29 29 26 23 22 22 22 24 24 24 24 24 31 27 17 18 21 23 29 37 39 41 40
60 51 50 53 58 61 63 68 70 70 68 70 67 58 52 41 35 31 30 30 30 27 24 23 21 22 22 21 22 24 26 29 31 32 29 29 30 39 39 39 39 37 51
52 51 56 59 61 66 70 71 70 70 71 72 65 55 42 34 32 31 31 30 26 24 22 21 20 19 19 22 25 29 31 30 29 35 40 44 46 43 41 41 56 70 73
54 57 59 62 68 71 74 73 69 74 77 69 58 43 34 34 33 32 31 27 25 22 21 21 21 20 22 26 30 31 33 34 39 44 48 47 43 41 57 70 75 76 79
58 62 65 69 74 77 74 70 77 80 71 58 42 35 35 34 35 32 27 25 22 23 22 21 20 20 22 24 27 34 39 45 47 48 45 42 52 73 75 80 81 81 75
66 69 72 75 77 72 72 82 82 72 56 38 36 36 37 36 32 28 24 23 24 22 21 21 21 23 23 25 28 34 44 48 49 46 45 66 77 80 82 82 81 83 85
72 74 76 74 72 79 86 81 73 50 37 38 37 38 37 33 29 25 23 22 23 22 22 22 24 23 28 34 37 43 40 40 38 52 78 81 85 86 88 87 84 83 83
76 74 71 77 86 85 80 67 42 39 39 38 40 38 35 30 25 23 22 24 23 22 22 25 29 32 34 39 45 41 41 37 61 79 83 87 86 87 90 85 81 83 79
74 75 85 86 83 75 54 42 40 37 40 41 40 37 31 26 24 22 24 25 24 23 25 27 30 35 38 41 42 44 43 67 78 80 81 83 85 84 83 82 81 81 82
86 85 82 78 62 49 43 39 37 42 42 41 38 33 28 25 23 21 21 26 25 30 30 30 32 37 40 41 46 45 73 81 81 80 80 82 79 73 72 75 80 80 83
79 77 62 54 49 42 35 38 43 42 42 39 34 29 26 24 22 20 21 25 29 33 33 33 35 39 37 41 44 75 83 83 81 81 82 75 68 68 62 62 66 71 93
56 56 53 48 38 35 41 41 43 43 40 35 29 27 24 22 20 18 21 25 32 32 34 37 37 36 38 42 74 83 83 81 83 82 71 69 72 67 60 61 62 63 92
56 54 44 36 39 40 41 43 44 42 37 31 28 25 22 20 18 22 28 29 31 33 35 34 33 37 44 73 83 83 80 83 78 70 70 73 72 62 63 65 62 61 87
51 40 38 39 38 41 43 44 43 39 33 29 26 23 22 20 23 29 32 32 34 36 37 32 35 46 71 85 83 78 81 78 75 73 76 76 71 65 69 68 69 66 87
42 41 38 39 41 43 45 45 42 35 30 26 24 22 20 20 24 25 28 34 34 34 33 35 49 70 82 78 73 79 78 77 75 79 83 84 74 70 70 70 72 71 85
39 36 39 42 44 46 46 42 34 30 26 24 21 20 20 18 18 25 28 30 31 31 34 48 69 76 76 74 80 80 78 81 86 88 87 87 74 75 73 69 68 73 81
37 40 43 45 48 48 41 33 29 26 23 20 20 19 17 17 19 27 30 30 29 32 45 64 72 75 75 81 81 82 83 84 84 82 85 87 78 73 72 72 71 72 79
42 44 46 50 48 39 32 28 26 24 22 20 18 16 17 18 23 28 30 32 32 41 59 69 71 74 80 81 83 82 82 81 81 81 89 85 77 78 79 80 81 79 80
46 48 52 48 38 31 28 26 24 21 21 18 17 18 19 23 26 28 31 32 41 55 64 66 72 79 80 80 81 83 83 83 83 91 90 81 82 84 85 85 83 80 80
51 53 47 36 31 28 26 23 22 21 19 18 19 20 25 32 31 31 32 40 52 59 63 69 76 76 76 79 83 84 88 92 94 90 84 84 83 84 87 84 84 81 77
53 44 35 31 28 26 23 22 22 20 19 20 21 23 27 30 31 31 38 49 53 60 64 71 72 73 72 78 85 88 88 89 87 84 82 82 87 89 84 81 80 82 78
41 34 30 28 26 24 22 21 20 20 21 22 25 27 29 30 31 35 48 51 56 60 67 71 71 71 74 79 85 88 85 82 81 80 83 89 90 87 85 84 79 75 74
33 30 28 26 24 23 22 20 21 23 24 26 28 30 30 32 33 49 51 53 57 62 70 70 71 73 76 81 84 84 84 84 84 86 90 89 92 92 89 86 82 79 76
30 28 26 24 23 22 21 22 23 25 27 29 30 31 33 34 49 50 52 55 59 68 68 70 71 74 77 81 82 85 87 88 88 89 92 94 97 97 94 91 89 82 76
28 26 25 24 23 23 22 24 25 28 30 31 32 32 34 48 49 53 54 57 66 67 68 69 70 73 75 78 79 82 84 86 86 88 91 94 97 98 97 97 94 89 81

GFSGL_prec_cthk_039.txt.gz
RH
72 73 71 66 63 58 55 54 57 61 64 66 67 69 67 60 56 49 46 40 37 29 29 29 28 27 26 23 22 20 19 20 21 14 18 17 21 25 28 33 37 37 34
75 72 67 63 59 61 58 58 62 64 67 70 71 69 63 59 54 52 43 38 30 30 29 29 28 25 23 20 18 17 19 22 24 21 18 20 24 27 33 35 35 32 38
75 70 65 62 64 63 59 64 66 68 72 74 72 67 62 59 55 44 38 32 32 30 30 28 26 23 21 19 19 22 23 26 29 31 25 24 29 35 35 31 35 55 63
74 70 65 66 66 61 65 68 71 74 77 76 70 65 63 58 47 37 33 33 31 30 28 26 24 22 21 21 25 29 31 31 31 34 35 39 39 34 33 52 60 66 68
72 68 68 64 62 66 71 75 78 80 79 71 69 68 61 47 36 35 34 32 31 29 26 24 23 21 21 26 30 32 32 32 33 38 45 42 36 42 63 67 69 70 72
71 66 60 63 69 74 78 81 82 80 73 75 70 61 45 37 36 35 33 32 29 26 24 22 21 22 22 24 25 33 35 38 41 46 43 40 54 68 71 74 75 75 67
61 62 66 71 76 80 83 83 76 77 80 71 57 41 39 37 36 34 32 29 26 24 22 22 23 23 22 23 25 33 35 41 44 43 45 63 71 75 78 77 76 74 70
65 70 74 78 81 83 80 76 84 82 68 50 40 40 38 38 35 33 29 26 24 23 22 22 23 22 25 30 32 33 36 36 40 48 74 76 80 82 82 79 74 67 65
73 76 79 82 82 78 82 88 80 60 42 41 40 39 40 36 33 29 26 25 24 23 22 22 23 26 29 33 37 36 38 38 48 76 79 81 81 82 81 76 71 66 54
79 82 83 80 82 89 84 71 47 41 41 39 42 41 38 34 30 27 26 27 27 25 24 24 25 27 33 36 39 41 41 52 77 80 79 79 81 78 75 77 72 61 59
84 82 85 89 84 74 54 43 40 38 40 43 42 40 35 31 29 26 23 27 26 27 24 23 26 28 36 38 42 42 58 80 80 78 81 81 73 72 70 69 66 68 62
86 85 81 72 54 49 43 38 38 43 43 43 41 36 32 30 27 22 20 26 25 26 26 26 27 35 34 37 40 62 81 81 78 81 78 67 65 69 68 64 65 68 70
77 64 54 53 50 41 36 40 43 43 45 42 36 33 31 26 21 19 21 23 23 27 27 29 30 32 31 37 66 80 79 74 75 72 69 67 71 70 64 63 65 66 68
57 56 53 47 38 38 42 40 44 46 42 36 34 30 25 20 19 20 23 22 23 27 29 29 28 30 40 67 79 73 73 76 75 74 71 75 78 78 72 71 66 64 63
54 50 43 40 41 40 41 45 47 43 38 34 29 24 22 20 21 24 25 28 33 33 32 28 28 40 66 75 72 75 79 79 79 79 82 82 82 80 71 71 69 64 65
45 43 41 40 39 42 46 48 45 38 32 28 24 21 19 18 21 24 25 29 31 30 29 28 41 61 69 69 75 78 80 80 81 82 81 79 82 76 71 71 72 70 66
44 41 39 39 43 47 49 45 37 33 28 24 20 19 18 17 18 24 26 28 28 27 28 40 57 64 68 75 76 77 78 80 81 82 80 83 86 78 76 77 78 78 75
40 40 40 45 49 50 43 36 31 27 23 19 18 17 16 16 17 25 28 26 25 28 39 54 62 67 73 73 75 77 79 81 83 82 89 90 84 83 83 85 84 81 77
40 42 48 51 49 41 35 30 27 23 20 19 17 16 17 18 20 24 26 27 28 39 51 59 64 69 70 72 77 83 86 90 92 93 89 86 86 85 87 87 84 83 78
46 50 51 47 39 34 30 26 22 20 19 18 18 18 19 21 23 25 26 28 40 48 56 59 66 68 69 73 79 83 86 88 88 86 85 85 87 88 88 83 81 81 78
50 51 43 37 32 29 25 23 21 20 20 19 20 22 23 27 26 27 28 39 47 54 56 62 67 68 71 76 81 82 82 83 83 82 84 87 88 89 88 85 81 77 78
49 41 35 31 28 25 23 21 21 20 20 21 22 23 24 26 28 29 38 45 50 53 58 65 66 68 73 78 81 83 85 86 87 89 91 91 92 93 91 87 82 76 73
38 33 30 28 25 23 21 21 21 21 22 23 24 25 26 28 30 37 45 49 52 56 64 65 67 72 76 79 81 83 85 87 89 92 96 97 97 96 91 87 83 76 74
32 29 27 25 23 22 22 21 21 22 24 25 26 28 28 30 37 46 49 51 54 62 65 66 69 71 73 76 80 82 84 88 91 93 96 97 97 96 94 92 89 82 74
29 27 25 23 22 22 21 20 22 24 26 28 29 29 30 34 46 49 51 54 60 64 64 66 68 67 69 73 75 78 81 85 91 94 97 98 98 98 98 96 89 83 75
28 26 24 23 22 21 20 22 25 27 29 31 31 30 32 44 51 52 55 62 64 65 65 65 65 66 68 71 73 76 80 84 87 92 97 98 98 98 98 97 92 82 74

GFSGL_prec_cthk_042.txt.gz
RH
60 61 67 68 70 79 81 80 69 64 64 62 66 68 69 66 64 62 59 53 48 43 39 33 28 29 30 30 30 28 26 23 21 19 22 26 28 29 28 34 35 31 29
67 66 71 75 77 80 76 68 66 69 67 66 70 70 69 68 66 63 57 52 49 41 32 29 31 31 28 29 29 26 24 25 29 25 23 26 27 29 32 35 38 32 38
70 70 80 77 79 73 69 66 69 72 67 71 72 72 72 70 67 58 57 54 42 32 31 31 30 29 30 29 26 26 30 31 31 31 27 27 29 33 34 34 36 49 60
78 82 82 77 73 68 68 70 74 69 71 74 76 77 75 70 59 63 55 40 33 33 32 30 30 30 29 27 27 32 32 31 30 31 31 30 36 35 34 40 52 64 67
82 83 79 73 70 72 72 75 70 72 76 79 80 78 69 63 66 54 38 35 35 34 32 32 32 28 24 27 29 33 32 31 32 33 41 42 36 34 46 60 65 68 72
86 82 78 73 76 74 75 70 74 78 81 83 80 66 70 64 50 37 36 33 36 34 34 32 30 29 27 26 32 33 33 35 35 44 43 40 38 54 68 71 71 71 66
87 82 77 78 76 71 73 77 81 83 85 77 69 72 60 44 39 36 35 34 34 34 32 31 29 26 27 31 32 32 34 36 40 40 41 43 60 74 75 74 75 70 66
81 80 74 70 73 78 82 83 85 84 76 76 67 52 41 39 36 37 34 33 34 34 32 29 26 28 31 32 32 33 36 36 40 41 52 68 77 78 81 78 72 64 59
71 70 72 80 83 84 85 87 84 82 73 57 42 41 39 39 38 34 33 31 34 32 27 26 29 31 32 32 33 33 35 38 43 60 76 79 82 83 83 75 64 65 53
77 80 82 84 88 88 87 89 81 62 43 40 41 39 41 38 35 33 30 31 29 27 27 29 30 31 32 34 36 36 38 44 67 79 80 81 82 79 73 69 70 66 59
83 86 89 88 88 92 85 68 44 40 41 39 41 42 37 35 33 31 27 26 27 25 29 29 30 32 33 34 36 38 47 74 79 75 76 75 73 70 68 74 76 72 67
88 87 90 90 83 66 48 42 41 39 41 44 42 38 35 34 31 25 21 24 24 27 30 30 31 33 30 29 33 49 76 75 70 73 73 73 71 70 75 78 77 74 76
88 83 75 61 51 50 42 38 40 43 43 42 38 36 35 30 25 22 20 23 26 30 30 30 33 27 26 29 54 73 67 69 73 74 73 74 75 78 78 76 73 71 72
70 59 53 51 45 38 39 43 42 43 41 38 38 37 31 27 24 22 23 27 30 31 32 29 27 27 36 60 68 67 72 76 76 75 76 78 80 80 76 75 70 69 66
56 53 48 41 38 42 41 41 44 43 38 36 33 27 25 24 22 23 24 25 30 31 31 27 28 42 62 66 67 72 73 74 76 78 78 78 78 79 81 76 74 73 74
50 43 39 41 42 40 42 46 44 38 35 31 25 21 18 17 20 24 23 24 27 28 28 30 45 58 63 65 67 68 73 78 80 80 81 82 85 86 80 81 81 81 80
42 42 42 40 40 44 48 43 37 34 29 24 20 18 17 17 17 22 24 26 25 23 29 45 54 59 62 66 68 74 78 84 87 90 90 89 85 84 84 83 84 82 80
44 42 40 42 48 47 40 36 32 27 23 20 18 17 17 17 17 24 25 21 23 28 42 52 56 61 65 67 72 77 82 84 85 86 85 85 86 85 84 84 84 78 79
42 41 46 50 45 39 34 30 26 22 20 18 18 17 17 17 17 19 21 23 27 41 49 52 58 63 65 69 75 81 84 84 84 84 85 87 88 87 87 86 84 80 77
44 50 49 43 37 33 29 25 22 20 19 19 19 19 19 20 20 21 24 27 40 46 48 54 61 63 67 73 77 80 83 87 88 90 94 95 94 93 91 88 84 81 74
50 48 40 35 31 28 25 22 20 20 20 19 18 19 21 22 23 26 27 39 45 47 52 59 62 67 71 75 78 81 85 89 91 94 97 99 98 95 94 91 85 79 75
46 39 34 30 27 24 22 21 20 20 18 19 20 21 22 23 26 28 35 44 47 50 58 62 65 68 70 73 76 79 83 88 94 98 99 99 97 96 94 90 85 82 74
37 32 29 27 25 23 21 21 19 18 19 21 23 24 24 26 28 34 43 48 50 58 63 65 65 67 70 74 77 81 85 89 93 97 99 99 97 96 93 91 88 84 75
31 29 28 25 23 22 21 18 19 20 23 24 26 26 27 28 31 43 49 51 59 64 63 64 65 66 69 75 81 87 90 90 95 97 97 97 98 99 95 92 87 81 75
30 29 26 23 22 20 18 19 21 23 25 27 28 28 28 28 42 50 52 60 65 65 63 64 65 67 71 76 82 88 93 93 95 99 99 98 98 98 98 93 84 76 72
29 26 24 23 19 19 21 22 24 25 27 29 30 30 28 36 49 52 60 65 66 64 64 65 67 69 73 77 83 88 94 93 92 94 98 98 98 97 96 90 83 77 78

GFSGL_prec_cthk_045.txt.gz
RH
55 52 54 59 64 68 71 76 71 77 81 77 75 67 69 68 64 64 62 61 60 59 53 49 43 37 31 30 31 33 31 29 27 25 27 28 26 26 28 27 29 27 25
59 60 62 66 69 71 75 72 79 79 83 73 67 70 73 68 67 65 65 64 63 57 51 45 37 33 31 33 33 31 29 28 30 28 28 26 28 28 30 34 32 31 27
66 68 69 70 70 73 80 87 83 83 74 70 71 74 72 69 69 69 68 66 58 55 47 38 32 33 35 34 31 30 29 30 30 29 25 27 28 33 36 35 30 31 42
71 73 74 72 77 81 82 82 81 73 72 73 76 75 71 72 73 70 68 60 56 47 37 34 35 36 34 32 30 30 28 29 30 29 28 28 34 37 37 34 36 46 58
79 80 78 79 77 82 83 79 74 73 75 77 77 74 76 76 73 67 62 54 43 35 34 36 36 34 31 32 30 29 32 31 30 30 33 38 36 33 35 42 52 64 67
82 83 83 82 81 81 76 73 75 77 79 75 76 80 78 75 66 63 51 38 34 33 37 34 33 32 30 28 30 32 31 33 34 38 37 41 36 37 49 60 67 70 68
87 85 84 80 82 78 76 77 82 80 75 80 82 80 74 67 58 46 37 34 34 35 34 34 32 29 27 28 30 30 31 32 37 41 42 41 43 59 66 68 74 75 69
80 85 85 83 83 81 86 81 76 80 85 85 80 72 63 51 40 37 34 34 34 34 34 32 28 26 26 29 29 30 30 33 34 37 42 52 68 72 76 77 75 63 52
85 84 88 85 86 79 74 80 88 89 86 78 68 54 42 40 37 35 34 33 32 32 29 26 24 27 28 30 35 32 31 30 31 42 64 73 75 76 76 72 66 62 55
92 85 77 73 73 83 87 94 90 84 72 56 41 41 39 39 36 35 33 31 28 27 24 22 24 28 30 34 38 34 31 31 44 68 71 69 71 72 74 74 70 67 67
73 72 79 85 87 92 95 88 77 55 41 41 40 41 39 36 36 34 30 25 26 25 22 23 25 30 31 32 33 32 36 60 67 63 67 70 71 72 73 74 77 79 74
85 87 90 93 97 90 76 56 42 41 39 41 42 37 38 39 36 32 25 24 24 26 25 25 26 32 32 31 31 47 64 64 62 67 68 69 70 73 77 80 81 80 79
92 95 94 85 71 55 45 40 37 39 43 40 38 38 37 34 30 26 24 24 22 23 25 29 30 26 25 32 51 61 60 62 63 65 68 70 73 74 76 75 77 78 74
82 77 68 53 49 42 36 37 41 42 40 39 38 35 30 26 24 23 19 20 21 23 25 24 25 25 36 50 55 58 61 64 70 72 74 75 77 79 80 82 80 78 77
64 57 52 45 39 37 40 41 42 42 39 36 32 27 22 20 20 20 22 23 25 27 28 23 23 37 47 52 56 60 64 70 75 78 81 83 84 84 83 83 84 83 82
55 50 43 39 41 41 40 43 42 37 34 30 24 21 19 17 18 18 23 24 24 25 24 24 38 45 50 55 58 61 67 73 78 81 81 81 82 82 84 85 84 83 80
47 42 42 42 40 42 45 41 36 33 28 24 21 19 18 17 17 17 23 24 19 24 25 37 45 49 54 58 60 65 70 74 79 82 84 86 86 87 86 84 84 84 81
44 43 42 41 45 45 39 35 31 26 23 21 20 19 18 16 16 24 24 20 22 24 35 45 49 54 58 62 67 71 75 79 84 87 89 92 95 94 91 91 90 86 80
44 42 43 46 43 37 33 28 25 23 21 19 18 17 16 16 18 23 23 24 25 31 46 47 53 58 63 67 71 75 80 84 88 92 96 97 98 97 95 94 90 88 81
42 46 47 41 36 31 27 25 23 20 19 18 17 18 19 19 20 20 22 25 28 45 47 52 58 62 65 69 74 80 87 92 94 97 98 98 98 97 95 92 88 85 79
48 46 39 34 29 28 26 23 20 20 18 16 18 21 24 24 23 23 25 27 45 48 53 59 61 63 66 70 77 84 92 95 97 98 98 98 98 97 96 92 87 83 78
45 38 32 30 28 26 23 21 20 17 18 20 21 21 22 23 24 26 27 41 50 55 61 61 61 63 66 72 80 87 93 97 99 98 98 98 98 98 97 91 84 78 77
37 32 30 29 26 23 22 19 17 18 20 21 22 23 24 25 25 27 36 50 55 62 62 62 62 65 71 77 84 90 95 95 96 98 98 98 98 97 94 88 79 75 73
32 31 29 26 24 22 19 18 19 20 21 22 24 26 26 27 26 31 49 54 62 63 62 64 65 70 75 82 86 92 97 95 96 97 97 98 98 98 93 85 76 71 71
32 29 27 25 22 18 18 19 19 21 23 25 27 28 28 26 28 47 52 60 64 62 64 67 70 74 79 83 87 94 97 96 96 97 94 96 95 92 87 80 75 74 84
30 28 25 21 19 19 19 19 22 25 27 28 29 30 28 26 44 53 59 65 64 64 67 69 73 75 77 81 88 93 94 95 92 91 90 89 90 90 91 92 95 96 95

GFSGL_prec_cthk_048.txt.gz
RH
54 55 59 57 55 59 62 68 72 74 76 81 81 86 78 77 72 69 69 69 64 61 59 60 60 52 46 39 33 30 31 33 32 29 28 28 27 24 20 22 21 24 25
54 59 63 63 63 68 71 72 76 77 78 80 76 81 83 81 71 71 73 69 64 63 65 62 53 46 39 32 31 34 34 32 31 29 28 27 24 22 22 25 26 25 23
58 66 70 70 73 75 76 81 77 83 80 85 85 83 81 74 73 74 72 66 67 68 63 53 46 38 32 33 35 33 31 30 29 29 26 24 22 24 26 28 25 25 31
63 70 75 78 78 80 83 80 83 78 83 87 82 81 75 75 77 74 69 72 70 63 53 44 36 34 35 36 33 33 32 29 28 26 26 26 28 29 30 32 29 36 41
70 76 81 81 82 84 82 78 84 84 85 83 83 76 78 80 76 72 77 71 61 51 40 33 34 35 34 34 33 31 32 32 30 30 30 29 31 32 36 39 44 48 54
79 83 84 88 85 81 85 84 80 87 87 77 79 80 84 76 77 79 69 59 46 35 33 34 34 32 31 30 29 30 31 31 31 30 31 32 32 34 45 55 60 63 62
83 86 88 89 87 85 80 81 87 82 83 83 86 81 79 83 74 66 51 39 34 34 33 33 32 30 27 25 25 29 28 29 32 34 32 34 38 53 64 65 67 67 62
87 87 89 89 90 85 81 85 83 84 89 84 81 86 80 71 55 44 36 34 34 33 31 29 29 26 24 25 27 29 30 29 29 31 38 50 63 65 65 66 65 64 57
83 85 85 87 88 86 85 88 90 87 83 89 85 74 57 46 39 36 36 33 33 29 26 24 21 22 24 29 30 29 28 27 29 43 58 61 61 66 69 67 65 64 57
88 86 90 93 94 94 88 86 87 92 88 76 58 46 40 39 37 35 35 32 28 23 20 19 20 22 29 31 31 31 30 34 48 54 54 58 60 61 65 68 70 68 67
96 97 97 92 83 81 94 96 91 77 57 44 41 40 39 37 36 36 32 27 24 23 24 22 21 24 30 31 31 33 40 53 52 52 53 57 62 64 66 68 72 74 71
88 81 80 85 96 98 91 74 54 42 40 39 40 38 36 37 34 30 28 26 25 24 22 22 22 26 31 27 29 42 50 53 52 55 60 63 67 71 72 74 77 80 82
87 95 97 96 84 68 52 41 38 37 40 40 37 37 34 30 26 22 20 19 17 22 21 22 23 24 24 26 42 48 50 51 55 60 64 67 70 73 75 74 78 80 84
91 87 78 64 51 43 38 36 39 42 39 38 35 32 28 23 19 18 17 16 17 19 21 22 22 21 25 42 44 48 52 55 60 64 67 70 72 74 77 78 78 79 77
72 63 54 49 40 37 40 42 41 41 37 34 30 25 21 19 18 18 20 21 23 24 25 22 19 23 41 43 47 51 56 60 66 71 75 77 79 81 85 87 85 81 80
57 52 45 40 40 42 41 44 40 35 32 27 23 20 19 18 17 18 19 23 24 24 23 21 22 42 45 49 52 57 63 68 74 80 85 87 87 90 90 92 92 90 86
51 46 42 42 41 43 44 37 34 30 26 23 21 20 19 20 18 20 24 24 19 23 22 22 41 46 51 55 60 64 68 74 82 89 91 92 92 93 93 90 91 92 86
47 43 42 41 45 42 36 32 28 25 23 21 20 19 17 16 17 19 23 21 20 21 23 41 47 52 56 59 63 67 74 82 92 95 95 96 95 94 91 91 90 88 83
43 41 42 45 40 36 31 28 25 23 21 19 17 16 16 17 18 19 20 22 22 23 37 49 54 57 60 62 67 74 84 91 96 96 98 98 98 96 93 91 86 86 84
42 44 45 40 35 30 28 25 23 21 19 16 16 18 18 19 19 19 21 23 24 34 51 56 58 59 61 65 73 82 88 95 96 97 98 98 98 98 94 89 86 82 80
46 45 40 34 30 28 25 23 21 19 17 17 18 19 21 24 22 22 23 25 30 53 57 58 59 61 65 73 80 84 91 96 96 97 98 98 98 98 96 89 83 77 75
45 39 33 30 28 26 24 21 18 17 18 18 19 19 22 23 24 23 25 28 51 58 60 60 61 67 72 78 82 86 90 91 90 91 97 95 96 93 87 80 74 71 74
39 33 31 29 28 25 21 18 18 18 18 20 22 24 25 25 25 24 27 46 56 61 61 63 68 72 75 79 83 86 88 86 89 95 95 90 86 84 79 75 74 77 84
34 32 30 29 25 20 18 18 18 19 21 23 25 26 27 27 26 26 43 53 62 62 64 68 72 73 74 78 85 87 88 85 92 96 98 99 95 89 86 87 91 95 97
34 32 30 26 21 19 19 18 20 22 23 25 26 29 29 28 27 40 53 62 64 64 67 72 73 72 73 76 83 86 87 86 90 94 97 98 98 97 98 98 97 96 96
34 33 27 23 20 20 20 21 21 22 24 27 29 29 28 28 41 51 61 65 65 68 70 72 72 71 73 74 77 85 84 85 84 87 89 93 92 92 94 95 94 96 97

GFSGL_prec_cthk_051.txt.gz
RH
38 39 53 60 73 64 72 69 68 69 71 73 76 79 80 77 80 85 82 79 76 72 70 71 68 63 63 58 48 42 37 33 31 30 29 28 25 22 21 19 18 17 16
44 49 54 72 67 65 73 74 73 74 75 79 78 77 83 80 88 86 91 85 73 71 73 71 66 65 59 49 42 36 32 33 32 31 28 25 23 20 19 19 19 18 19
56 63 59 63 59 73 77 75 76 80 82 85 83 78 79 77 81 83 78 74 72 75 74 68 67 58 48 40 35 34 34 34 31 28 26 24 22 18 18 19 21 20 22
67 67 60 63 79 81 82 81 83 80 86 88 79 79 79 83 86 87 79 72 78 77 70 66 55 45 38 35 35 36 35 31 28 28 28 26 25 23 23 24 22 27 31
79 75 68 82 86 86 84 85 80 89 90 85 82 85 88 92 83 76 76 81 78 71 64 49 40 35 35 34 36 33 30 27 27 31 30 29 28 27 26 29 38 41 45
82 71 79 87 90 88 85 84 90 86 82 84 85 92 85 79 80 84 80 79 71 54 44 35 33 33 33 32 30 27 26 30 31 31 30 31 29 29 40 47 47 47 44
80 73 83 81 84 81 85 96 87 80 85 86 85 87 84 86 83 81 75 61 47 38 34 33 31 31 29 26 23 24 26 28 31 31 30 31 38 46 48 48 51 52 49
81 81 78 82 91 96 94 83 85 88 87 92 87 90 88 83 76 65 50 41 35 34 32 31 28 24 21 22 24 29 29 28 28 28 35 43 47 50 54 55 55 54 52
86 84 91 98 92 85 86 89 92 91 94 94 90 87 78 64 52 43 36 35 34 32 29 25 22 20 21 25 30 30 30 28 27 37 45 48 50 53 55 56 58 59 55
96 98 95 88 88 90 91 96 98 94 91 88 77 62 51 41 37 35 34 33 31 26 21 19 19 21 22 28 31 31 30 26 37 42 45 47 51 56 60 64 66 66 66
94 92 97 98 98 98 98 97 95 89 76 58 48 40 37 35 35 36 34 32 29 26 21 17 16 19 25 31 31 28 27 43 44 43 45 51 56 60 65 69 72 73 72
96 96 98 97 96 94 93 86 69 50 39 39 38 35 35 36 34 30 26 23 23 19 17 18 21 25 26 23 23 27 42 45 43 46 51 56 61 66 72 75 78 80 85
96 91 92 97 97 82 59 42 37 37 38 39 36 36 35 30 26 22 19 18 16 17 19 22 23 23 19 17 24 41 44 45 49 54 58 63 70 75 79 80 84 85 88
96 94 89 70 52 42 38 36 37 42 38 37 36 32 27 23 20 19 17 15 16 20 22 22 21 19 18 26 43 47 48 53 57 61 67 74 83 87 90 90 86 86 85
71 58 53 48 41 36 37 42 42 39 38 34 29 25 22 20 18 17 19 22 24 24 23 19 17 17 28 45 48 50 55 59 64 72 80 88 92 92 92 93 90 86 84
61 54 45 39 39 42 44 42 39 35 31 27 23 21 20 20 20 19 23 23 23 21 19 18 18 29 47 49 51 55 59 65 74 85 94 96 94 93 91 92 92 88 82
55 47 42 42 43 43 42 37 33 29 25 22 21 20 18 19 18 22 22 21 18 19 19 19 29 49 50 53 55 59 66 77 84 92 93 93 95 94 94 92 90 85 80
48 43 43 42 44 40 35 32 28 24 22 20 19 17 16 17 18 18 18 17 18 19 20 28 51 52 53 55 60 69 77 83 90 89 91 96 97 96 94 92 88 82 78
45 44 44 44 39 35 31 27 24 22 21 18 15 16 17 17 18 19 19 20 21 21 26 52 54 54 56 62 71 76 81 85 85 90 94 93 93 95 93 87 82 79 77
46 45 44 39 34 30 26 24 23 20 17 16 17 17 17 18 18 19 20 21 23 26 53 55 56 57 64 71 75 79 82 82 88 93 88 86 85 86 82 78 75 72 71
46 43 40 34 30 27 25 24 20 18 17 18 18 18 20 23 22 21 21 23 25 50 57 57 59 65 70 73 78 80 80 84 91 94 90 86 82 79 77 75 73 75 81
43 41 36 31 29 27 24 21 20 19 18 18 18 19 21 23 23 23 23 25 45 57 60 61 65 69 70 74 80 79 79 83 90 94 97 94 90 86 84 85 87 90 93
42 38 33 31 29 25 23 21 20 19 19 19 20 21 23 24 24 24 25 43 54 60 62 66 69 70 71 73 80 78 78 79 86 91 91 92 94 96 95 94 94 95 97
40 36 34 31 27 25 23 20 19 19 18 19 21 23 24 24 23 26 42 52 60 62 66 68 69 70 72 72 77 80 79 80 84 85 90 92 92 92 91 93 95 97 97
40 37 34 30 27 24 22 20 19 19 19 21 21 22 22 23 32 42 51 59 61 65 67 69 69 69 71 71 71 80 81 81 81 84 87 89 89 88 88 92 96 96 97
41 37 32 29 25 23 21 19 19 19 20 20 20 23 28 35 42 50 58 61 64 68 68 69 68 67 69 69 70 72 81 80 77 78 80 81 84 85 83 88 92 94 96

GFSGL_prec_cthk_054.txt.gz
RH
39 38 34 30 33 39 58 62 75 71 75 84 89 90 82 77 80 78 75 89 70 73 78 85 84 72 69 68 67 60 57 49 42 36 32 30 29 26 22 20 17 15 13
40 44 43 44 48 51 62 69 81 78 83 88 88 80 77 80 80 85 74 76 85 88 80 75 75 69 71 69 62 57 47 40 36 32 32 31 28 25 22 19 16 13 13
39 41 48 65 70 69 69 80 78 86 88 86 79 78 81 78 78 81 83 81 80 80 88 81 75 74 69 62 53 43 38 34 34 34 31 28 26 21 19 16 16 15 17
55 52 57 73 77 72 80 80 77 91 86 82 81 78 82 81 80 78 82 89 95 90 80 76 76 68 57 47 41 36 35 36 33 29 28 26 24 21 19 20 19 25 30
78 73 71 82 83 73 64 68 89 86 82 81 82 81 83 86 91 89 87 94 90 82 76 69 60 49 42 37 34 36 35 30 27 28 30 27 24 22 20 24 31 31 32
85 85 78 79 76 65 66 80 86 83 78 84 84 97 95 91 87 83 89 86 78 71 64 50 43 37 32 32 32 29 29 28 29 30 31 29 24 22 29 35 36 37 35
88 84 85 87 69 75 81 86 83 85 90 91 98 94 88 87 94 86 79 75 64 52 44 39 33 31 31 28 24 24 25 25 30 32 31 27 25 33 39 40 42 43 43
91 95 89 74 81 89 90 86 95 95 93 93 88 91 93 90 84 77 68 55 46 40 34 32 32 29 24 22 24 26 27 27 28 26 23 26 40 43 46 47 47 47 47
93 86 75 84 90 90 92 98 95 98 95 96 94 91 86 80 67 53 45 40 34 33 32 30 25 22 20 25 26 29 29 24 23 22 30 43 45 47 48 51 52 55 52
76 80 89 98 98 98 97 98 97 98 98 97 86 77 63 50 44 39 34 33 32 30 25 22 20 19 23 23 31 29 25 22 23 36 43 45 46 50 55 60 63 65 68
98 97 98 98 98 96 98 98 98 95 85 71 57 52 44 36 35 33 32 31 27 24 21 18 17 19 23 23 23 23 22 29 40 43 43 46 53 58 64 71 77 82 82
97 98 98 98 97 97 97 93 78 61 54 46 40 38 35 33 33 30 25 23 21 20 18 18 21 22 22 19 17 17 30 42 44 46 49 55 59 66 75 84 93 95 95
97 97 97 97 96 83 63 50 42 40 41 39 35 33 34 30 26 23 22 20 18 20 20 22 20 18 16 16 18 31 42 46 48 51 56 63 71 81 91 93 93 95 91
97 97 90 67 53 44 39 38 37 38 38 36 35 31 27 24 22 21 19 18 19 20 19 17 17 17 17 20 37 46 49 50 53 59 68 79 84 86 88 92 89 89 85
65 53 48 45 40 37 38 41 41 37 35 31 28 26 23 21 21 23 21 21 22 20 18 16 16 16 22 40 48 50 53 57 65 75 79 79 80 83 87 90 90 88 86
55 50 46 43 41 41 40 39 36 33 30 27 23 21 23 21 21 17 16 18 16 17 17 17 17 24 43 49 50 53 60 69 74 75 77 80 78 76 79 84 86 84 79
54 49 43 41 40 41 39 35 32 30 26 23 22 20 18 17 18 17 16 15 16 18 18 18 24 45 51 51 55 65 71 73 73 77 81 77 72 71 75 76 77 75 73
49 44 42 42 43 39 35 32 28 25 23 22 19 18 18 18 18 17 17 16 17 18 20 25 47 52 53 58 66 71 73 73 77 84 83 78 74 72 71 72 71 70 69
45 45 44 43 39 36 32 28 26 24 22 20 19 19 18 16 17 18 19 18 19 20 23 47 53 55 62 66 70 72 73 75 81 87 90 86 80 77 73 74 75 78 81
48 47 44 40 37 33 30 27 25 23 21 20 19 17 16 15 17 18 19 19 21 24 46 54 57 63 66 69 72 73 73 77 82 87 90 91 91 90 87 86 88 91 96
50 44 40 38 35 32 29 26 25 23 21 20 18 17 19 20 19 20 19 21 25 43 54 57 62 66 66 69 73 73 72 74 78 85 88 87 89 90 92 93 95 97 98
45 41 39 37 35 31 27 27 24 23 20 18 17 18 18 19 20 19 20 28 41 53 57 60 64 66 67 67 71 74 73 74 75 80 84 84 84 86 89 93 96 96 98
41 41 40 38 34 30 29 26 24 22 20 19 17 17 18 19 19 21 29 38 50 54 58 62 63 65 66 66 67 73 76 74 74 77 77 80 83 84 87 92 94 97 98
42 42 41 39 33 31 28 26 24 22 19 17 17 17 19 21 24 30 36 47 52 57 60 62 62 63 64 65 66 67 74 76 73 72 78 80 80 84 86 90 92 95 97
45 44 42 37 34 31 28 26 23 20 18 16 16 18 23 27 31 36 45 49 54 60 63 62 62 61 63 64 65 67 68 71 72 70 72 76 78 77 83 85 89 92 95
47 45 41 38 34 31 28 24 21 19 17 16 16 24 30 33 36 42 49 53 59 64 66 66 64 63 64 63 62 64 65 64 67 70 69 72 77 76 73 78 83 88 92

GFSGL_prec_cthk_057.txt.gz
RH
43 45 44 41 36 33 28 27 39 49 53 64 69 78 84 86 90 91 91 88 83 74 71 81 90 88 79 81 73 75 74 65 60 56 46 40 35 31 27 26 23 20 17
51 52 47 44 44 44 41 37 41 50 63 64 81 84 84 86 88 89 89 81 76 77 90 84 80 83 87 88 82 77 68 63 52 43 39 35 32 29 27 24 21 17 14
62 58 57 54 50 51 57 58 58 56 71 83 89 85 83 87 88 87 83 80 81 86 87 85 93 91 87 83 77 68 58 47 41 37 35 33 32 28 24 21 18 15 14
72 63 65 66 61 60 69 75 75 69 75 87 85 92 94 90 88 82 79 87 83 92 92 91 92 91 82 69 58 48 43 38 36 35 33 32 29 24 22 21 19 16 21
75 70 72 71 71 74 82 89 89 80 81 85 89 90 90 84 82 81 80 92 97 96 90 83 82 73 59 47 43 38 36 37 33 32 30 27 24 23 23 21 20 26 28
70 79 86 88 84 82 86 88 84 85 81 73 85 87 88 86 83 93 98 98 89 82 75 75 58 48 44 40 34 31 30 32 30 29 28 26 25 25 23 23 32 34 32
71 83 85 90 90 86 82 87 78 69 64 88 86 90 87 95 97 96 96 94 87 76 62 51 46 41 34 30 27 25 25 25 26 27 28 27 25 23 29 35 39 37 38
85 91 88 84 89 91 80 79 71 72 89 85 96 90 98 98 95 90 83 72 60 51 45 39 35 30 27 24 23 26 24 24 25 24 23 21 26 35 42 43 41 41 42
95 97 93 95 92 90 82 84 88 97 95 97 93 98 97 88 82 69 57 51 46 40 36 31 27 24 22 21 25 26 25 23 22 20 22 31 39 42 44 44 46 49 48
94 92 89 84 79 82 89 98 98 95 98 97 96 87 79 65 60 52 47 42 37 32 27 24 22 20 20 25 27 25 22 19 20 25 34 39 42 46 51 55 59 62 70
82 80 82 82 92 97 97 98 98 98 95 83 67 58 53 48 42 37 34 30 27 23 21 19 18 19 25 24 24 21 18 23 30 36 39 45 48 53 62 72 80 84 84
97 97 97 98 98 98 98 97 85 66 56 52 50 43 40 36 31 28 25 23 21 19 17 17 19 22 21 17 15 16 23 33 38 43 45 49 58 67 70 72 77 82 85
94 96 97 98 97 86 67 54 48 44 42 40 36 33 31 27 25 23 20 19 18 18 20 22 20 16 14 14 16 26 36 42 45 48 57 64 64 66 67 62 64 72 78
96 95 84 63 49 41 39 40 40 38 36 34 31 27 25 23 21 20 19 17 18 20 18 16 15 14 15 18 31 41 46 47 54 62 63 64 70 65 59 60 60 64 65
59 52 47 42 40 40 41 40 38 34 31 29 26 24 22 20 19 18 21 21 20 15 14 13 14 15 20 35 45 47 50 59 64 63 66 73 69 63 61 63 64 65 66
52 47 44 43 42 41 40 37 33 30 28 25 22 21 19 19 20 18 17 16 13 13 14 15 16 21 39 47 49 55 61 64 64 66 73 77 75 70 66 66 69 70 70
51 46 43 42 41 40 36 33 30 28 25 23 22 21 20 19 18 15 14 13 14 14 16 17 22 43 49 53 60 63 63 64 66 71 77 81 82 81 80 78 78 80 81
48 43 42 42 42 38 33 31 29 27 24 22 21 20 19 17 16 15 14 14 15 16 17 22 44 50 56 60 63 65 65 65 69 74 80 83 84 85 85 86 90 93 94
45 44 44 43 38 34 33 32 29 25 23 22 21 20 18 16 15 16 16 15 16 18 25 42 50 55 58 61 64 66 68 68 69 73 80 83 83 85 86 89 94 97 98
46 47 45 39 35 34 33 31 27 25 24 22 21 20 16 15 15 16 16 17 20 28 40 49 53 56 59 60 62 66 70 70 72 74 76 80 82 84 85 89 95 96 97
49 47 41 36 36 35 34 30 28 26 24 23 23 20 17 15 15 16 17 20 28 38 47 51 54 57 59 60 61 62 68 73 72 71 75 77 79 82 85 90 93 96 97
50 43 38 37 36 36 33 31 29 27 25 24 23 19 16 15 16 17 21 27 36 46 50 52 55 57 58 59 61 62 62 66 70 69 68 71 75 76 79 85 91 95 97
45 39 39 39 38 36 34 33 31 28 25 24 20 16 15 15 17 22 27 33 43 49 54 55 55 56 58 60 61 61 62 64 66 69 68 67 70 77 79 82 86 90 95
42 41 41 42 39 37 36 34 31 27 25 23 18 15 15 18 24 29 34 42 46 52 57 59 58 57 57 60 61 61 61 62 63 64 70 70 70 76 77 78 81 87 94
44 44 45 43 40 39 38 35 30 27 25 21 17 16 19 24 30 35 39 44 50 56 60 63 64 64 64 64 64 64 65 66 63 61 65 74 73 73 74 72 75 82 91
48 48 47 44 43 41 39 35 32 28 24 20 17 17 22 27 34 38 43 47 54 60 64 68 69 71 72 72 70 67 68 69 67 62 61 70 75 70 64 65 68 76 85

GFSGL_prec_cthk_060.txt.gz
RH
37 38 39 40 41 42 44 42 38 33 31 42 47 60 68 76 83 90 91 89 86 87 89 92 89 89 83 86 82 92 82 89 85 78 74 66 56 47 41 35 30 29 26
41 40 42 44 47 50 49 50 50 47 44 46 50 54 61 74 77 86 88 85 86 90 92 89 94 90 89 94 96 85 85 84 79 69 57 48 43 38 32 30 28 26 22
44 45 48 49 52 59 56 57 57 55 55 60 59 61 63 70 74 79 83 85 92 89 93 96 91 96 90 96 96 87 75 70 60 50 44 40 35 32 31 27 25 22 17
51 58 64 69 68 74 75 76 72 67 64 71 75 70 71 73 83 84 83 80 88 95 97 91 87 96 94 91 79 68 60 52 45 42 37 33 32 29 27 25 22 18 16
61 66 70 71 71 79 80 78 77 82 83 84 82 79 73 78 88 88 90 97 94 96 97 96 96 90 81 70 62 56 51 44 37 32 31 30 28 26 25 22 19 19 22
62 63 69 76 79 90 88 80 87 91 81 92 92 85 80 84 96 89 91 93 96 98 94 90 81 70 62 52 44 38 32 30 28 29 29 27 25 24 22 19 26 31 31
73 70 71 81 91 94 90 92 92 92 96 98 95 92 86 89 94 95 93 90 95 90 82 70 60 51 44 38 34 30 26 24 26 27 26 25 23 21 25 33 36 36 37
87 85 79 86 90 90 94 93 90 93 94 94 94 85 93 99 93 98 95 87 78 67 60 52 44 39 34 29 25 25 25 22 23 22 21 20 23 32 36 38 40 40 43
85 86 84 83 82 90 98 91 92 94 90 91 83 97 95 95 92 82 74 68 59 50 43 36 30 28 24 20 25 25 23 20 19 17 18 27 33 37 40 42 48 53 51
80 81 87 90 90 96 94 94 98 95 96 98 98 96 89 80 68 59 51 46 39 32 26 24 22 18 20 24 25 23 18 14 15 20 31 35 40 44 52 57 57 57 53
81 87 81 81 83 91 93 96 98 98 97 90 78 68 62 56 47 42 36 28 25 23 20 17 16 17 23 21 19 16 14 21 29 33 38 42 50 57 58 61 58 51 51
92 93 96 97 98 97 97 97 86 67 58 52 46 41 37 32 29 27 25 21 19 17 16 16 15 12 11 12 13 15 24 32 37 41 46 55 58 57 64 60 52 53 57
91 92 94 95 94 77 55 47 44 42 40 37 33 30 29 27 24 21 19 17 16 16 15 12 11 11 12 13 16 24 35 40 44 54 59 57 58 67 68 60 57 58 58
85 81 65 48 43 41 41 41 41 38 34 32 29 28 25 21 19 18 18 17 15 13 11 11 12 12 13 17 29 40 44 51 57 58 57 61 68 71 71 69 66 66 64
56 47 44 43 43 42 42 39 36 33 30 29 27 23 20 19 18 17 17 15 14 12 12 12 13 15 20 35 42 47 53 56 57 59 62 67 72 73 74 73 74 76 78
48 44 43 42 42 41 39 36 34 31 29 26 22 20 19 19 19 18 16 14 13 13 12 13 15 23 39 44 49 54 57 58 60 61 65 71 75 75 73 74 77 82 85
48 44 43 43 42 40 37 34 31 30 28 24 22 21 21 20 19 16 15 13 13 12 13 16 26 39 44 48 53 56 58 61 62 64 67 70 75 76 76 76 79 84 87
48 44 44 44 42 38 34 33 31 30 26 24 23 22 22 21 18 15 14 13 14 15 18 26 38 43 46 49 53 55 57 62 65 67 70 74 76 77 77 78 82 85 89
48 46 46 45 39 36 34 33 31 29 27 25 24 24 22 20 17 14 13 13 14 18 25 37 42 46 48 50 53 55 57 59 64 69 70 70 74 75 74 77 82 87 92
49 48 48 43 38 35 34 33 31 30 28 27 26 24 22 19 16 14 14 14 18 25 34 42 44 48 50 51 52 54 56 58 60 64 69 68 68 72 74 77 79 82 88
51 52 48 40 36 36 35 33 33 32 31 28 26 25 22 18 16 14 14 18 25 33 40 45 48 49 51 52 53 55 57 58 61 62 64 68 69 68 74 78 74 77 85
53 51 44 38 38 39 36 35 34 34 32 29 27 24 21 17 15 14 18 25 31 39 43 48 51 53 53 53 54 57 58 58 60 61 60 63 69 72 72 73 72 74 80
54 48 41 40 41 40 38 37 37 36 32 29 27 25 21 17 17 20 25 30 37 42 47 52 54 56 57 58 60 61 62 63 65 65 62 59 64 71 72 68 65 68 73
51 45 42 43 44 42 40 40 39 37 34 31 28 25 21 18 21 25 29 34 41 45 50 55 58 61 63 66 68 68 68 67 68 70 68 61 60 68 70 63 60 58 64
47 45 46 47 46 44 42 42 40 37 35 32 28 25 21 20 23 28 33 37 44 48 54 59 63 66 68 70 71 72 73 74 72 72 72 66 61 66 70 68 69 61 58
48 49 50 50 48 45 44 43 41 39 35 31 28 24 20 20 24 29 35 40 47 53 58 62 66 70 72 72 71 72 73 74 75 73 73 67 61 64 67 66 61 54 56

GFSGL_prec_cthk_063.txt.gz
RH
34 35 35 35 36 37 39 40 40 41 42 44 43 42 45 49 55 64 73 83 92 93 91 89 87 86 83 83 84 93 96 97 98 97 93 85 76 67 61 50 45 40 34
43 42 40 39 40 40 40 44 47 51 52 52 53 54 55 58 62 65 70 76 80 80 79 84 85 86 89 91 95 96 96 97 89 83 79 73 62 50 48 44 37 32 28
35 36 38 39 39 42 43 44 46 52 55 57 61 59 61 69 70 70 69 68 67 69 75 82 85 87 98 96 97 98 92 84 80 71 65 61 56 47 41 34 29 25 21
41 43 44 46 49 54 59 59 62 71 70 71 67 67 69 79 78 75 69 66 70 82 90 93 94 97 98 98 96 88 81 76 69 61 51 43 40 35 31 28 25 21 18
44 49 53 54 52 56 62 65 73 78 80 82 80 81 82 83 89 84 75 75 84 94 95 99 99 98 93 82 79 72 66 56 48 44 41 37 33 33 29 24 22 24 26
48 55 58 54 59 69 73 80 87 90 90 92 90 87 89 90 91 88 86 87 95 97 94 97 97 86 78 69 60 53 46 40 39 34 31 28 26 25 24 24 27 29 28
55 61 57 60 66 79 83 90 98 98 97 98 97 97 97 95 92 92 94 94 98 97 91 78 69 66 62 53 45 37 32 30 26 24 25 24 23 19 23 27 30 34 36
63 62 61 65 74 80 86 94 98 98 98 98 98 98 98 99 98 98 97 97 88 78 73 66 56 48 39 32 28 21 18 18 18 18 18 16 19 27 32 35 36 40 42
67 66 67 72 75 82 90 95 95 96 97 95 95 96 97 91 96 91 83 73 61 54 44 38 31 27 22 20 22 19 14 12 12 12 14 21 28 32 36 40 45 46 46
74 71 73 75 78 83 85 88 97 97 91 94 97 92 96 87 73 62 54 48 38 33 29 24 19 16 14 20 18 13 12 11 12 18 27 31 36 41 47 47 47 53 51
78 77 77 82 88 94 95 96 97 97 97 91 79 69 57 48 41 35 29 25 22 20 18 16 14 12 10 9 10 10 11 19 26 31 35 41 48 49 48 52 59 61 56
84 86 88 90 92 93 95 90 72 57 50 44 39 34 31 29 27 24 21 20 18 16 15 12 10 9 9 9 10 13 21 31 36 42 47 48 49 52 60 64 66 67 65
83 84 86 88 75 48 42 41 41 40 36 33 30 28 27 24 22 20 19 18 16 13 12 10 9 9 10 11 16 28 34 39 43 46 48 50 55 61 64 67 67 67 69
78 69 50 41 41 41 41 40 37 33 31 29 28 26 23 20 20 20 18 17 13 12 10 10 10 11 13 22 33 37 40 44 46 49 51 54 58 63 66 67 66 68 70
50 42 41 40 41 41 40 37 34 32 31 29 27 23 21 21 22 20 19 16 13 12 11 11 12 15 26 34 37 40 43 46 49 52 54 57 60 63 66 67 69 71 73
44 42 42 41 42 40 36 35 33 31 30 28 24 21 21 22 22 20 17 14 13 12 11 12 16 27 34 36 38 41 45 47 50 53 58 60 62 65 66 66 69 72 75
47 44 43 42 42 38 35 34 32 31 29 27 25 24 24 24 22 19 17 15 14 12 13 16 26 34 37 39 42 43 45 47 49 52 55 60 61 62 65 65 67 69 73
48 46 45 45 42 38 35 33 32 30 29 28 27 26 27 26 23 20 16 15 14 13 16 24 34 37 40 42 44 44 45 47 49 52 54 57 61 62 63 65 69 71 71
49 48 48 46 42 38 35 34 32 31 31 30 28 29 28 27 23 20 17 15 13 16 23 33 37 41 44 46 46 47 48 50 52 53 55 56 56 60 66 69 69 71 69
51 50 50 47 43 38 36 35 34 34 33 32 31 30 29 27 23 20 17 15 15 23 31 36 41 44 48 50 51 51 51 53 54 56 57 56 54 56 64 67 66 63 60
54 51 51 48 43 38 38 37 37 37 36 35 33 31 31 27 23 20 17 16 23 29 34 39 45 47 50 53 53 53 55 56 59 61 63 63 60 56 58 64 63 61 62
55 54 52 48 42 39 39 40 40 39 38 36 34 33 32 28 24 21 19 24 28 33 36 42 48 51 54 55 57 59 61 62 63 64 65 66 67 61 57 62 64 66 70
57 56 52 47 43 42 42 43 42 41 39 37 36 34 32 29 25 24 25 28 32 37 39 45 51 55 58 61 65 67 69 69 70 70 68 67 67 64 58 60 65 64 62
58 55 50 46 44 46 46 45 44 42 40 38 36 35 32 30 26 25 27 31 34 38 42 48 55 59 62 65 69 70 69 70 70 72 72 68 66 65 60 62 62 55 51
56 52 48 47 49 50 48 46 44 42 40 38 36 34 32 30 26 25 28 31 35 40 44 53 59 63 65 70 70 70 70 71 67 68 70 68 67 63 61 62 58 52 47
55 52 50 51 52 51 48 46 44 43 41 39 37 35 32 30 26 24 25 29 36 41 48 57 63 67 70 73 72 70 70 71 69 68 67 67 63 61 62 60 58 51 49

GFSGL_prec_cthk_066.txt.gz
RH
35 35 33 32 32 34 36 38 40 41 42 41 41 41 42 47 50 53 56 59 64 72 78 88 88 90 96 90 88 88 92 91 96 98 99 99 96 92 87 79 69 61 61
36 37 38 39 37 37 38 39 41 43 45 48 48 50 54 55 56 60 62 66 70 71 75 82 82 81 81 81 82 88 91 93 99 99 98 93 84 76 73 72 68 59 45
35 31 31 32 33 37 40 42 43 46 49 52 55 54 55 58 63 68 71 75 77 79 81 79 76 79 78 78 86 95 97 97 98 93 87 82 75 67 59 52 45 35 31
34 34 36 37 40 42 44 45 48 50 52 54 62 66 70 72 72 74 79 86 87 84 82 78 77 76 83 96 99 99 97 91 84 77 72 66 59 52 44 41 36 31 26
38 38 40 41 40 40 42 47 53 58 61 67 72 77 84 86 84 81 81 87 88 88 85 76 87 89 99 99 97 89 79 75 66 57 54 46 39 33 30 25 23 22 24
43 43 42 45 45 46 48 58 65 74 76 77 83 85 89 85 88 88 93 93 97 93 84 85 94 98 90 84 77 72 62 49 45 41 34 28 26 24 22 20 22 25 25
47 48 48 48 46 52 59 65 72 79 87 90 94 95 97 95 96 97 98 99 94 95 90 95 90 83 77 69 51 39 32 26 22 24 22 20 18 18 19 22 28 30 33
51 55 51 53 55 59 64 69 73 81 86 92 97 97 98 98 98 98 97 98 97 93 87 81 67 47 38 33 27 22 16 16 15 14 15 16 18 23 28 31 35 40 43
58 57 57 59 61 64 68 72 80 84 85 92 95 96 97 97 97 97 91 86 76 65 52 40 31 27 22 15 17 15 15 12 10 9 11 16 23 28 32 38 41 42 42
63 63 66 63 66 68 70 75 82 86 88 92 96 97 89 83 76 67 54 44 33 27 23 20 17 14 12 15 13 12 9 10 12 16 24 28 32 35 38 40 42 48 54
70 67 66 72 75 77 79 80 83 87 88 80 64 54 47 44 38 31 26 22 21 18 16 14 13 12 9 9 9 10 10 17 25 28 31 33 37 40 43 48 54 57 59
77 77 76 76 77 77 72 54 42 40 39 36 33 31 30 27 24 21 19 18 16 16 16 13 12 9 8 9 9 12 19 27 30 32 35 38 41 44 48 53 57 59 59
74 74 74 72 51 39 39 38 37 34 32 30 29 28 25 22 21 20 20 19 18 16 14 12 10 9 10 11 15 25 29 32 34 36 39 42 44 47 51 54 57 58 60
72 65 44 38 38 38 37 34 32 31 30 28 27 25 22 21 21 23 22 21 18 16 13 12 11 11 13 19 27 30 32 35 36 38 41 43 47 51 52 55 57 58 57
47 39 39 39 38 37 35 32 31 30 28 27 25 24 23 23 26 24 22 22 20 16 14 13 13 14 21 28 30 33 36 37 39 41 42 45 47 50 53 54 56 56 59
42 42 41 39 38 36 34 33 31 29 28 26 25 25 25 25 26 25 23 20 18 16 14 13 14 21 28 31 34 37 39 40 41 42 43 45 47 50 53 56 58 61 63
45 44 43 42 41 37 35 33 31 29 28 28 28 28 27 27 28 26 24 21 19 16 15 14 20 28 31 34 37 39 41 42 43 45 46 48 49 49 50 52 58 65 67
46 45 44 46 42 39 37 35 32 31 31 31 31 31 30 29 28 27 25 23 20 17 16 20 28 31 34 38 41 43 45 47 48 49 51 52 53 54 53 52 56 61 62
47 47 47 47 43 41 40 37 33 33 34 35 34 32 32 31 30 29 27 24 20 18 19 27 31 34 38 41 45 48 50 51 51 53 55 58 62 63 63 59 56 60 63
50 50 51 49 46 44 41 37 34 35 37 37 36 34 33 32 32 31 28 25 20 21 27 32 33 38 41 44 48 50 52 54 55 57 60 62 63 65 66 66 61 59 62
53 53 54 51 47 46 43 38 36 38 40 39 38 36 34 33 33 31 29 25 24 28 32 34 36 40 44 47 50 53 55 59 63 66 68 69 70 69 68 68 63 60 62
57 56 56 53 50 48 45 39 40 42 42 41 39 37 35 34 34 33 31 29 30 31 35 35 38 42 47 51 54 59 62 66 68 68 71 71 71 72 69 67 62 61 60
60 59 59 55 51 49 46 42 44 45 43 41 39 37 35 34 34 33 32 31 31 33 35 37 40 44 50 56 60 63 65 70 69 71 70 67 69 69 68 64 62 62 60
63 63 63 55 51 48 47 46 48 46 44 42 41 38 37 36 34 33 31 31 32 34 36 39 43 48 55 61 64 67 72 71 69 71 71 68 67 66 64 62 64 63 60
67 69 60 54 50 49 50 50 50 48 46 45 44 42 39 37 35 34 32 30 30 33 35 40 45 51 59 67 70 74 75 73 73 73 73 71 67 64 59 60 62 60 59
74 63 57 53 51 51 52 51 50 51 50 49 48 46 42 38 35 34 33 30 28 30 34 41 49 58 68 73 77 77 76 75 75 76 75 71 67 64 62 61 59 58 57

GFSGL_prec_cthk_069.txt.gz
RH
33 32 32 32 31 30 29 30 31 32 32 33 35 37 39 43 48 55 57 58 63 69 72 74 76 80 80 94 95 92 94 92 91 95 87 88 91 92 94 94 91 85 78
35 35 34 35 35 35 33 29 29 30 31 35 39 41 43 48 53 55 59 60 63 67 69 73 80 83 85 81 76 94 91 86 84 87 84 90 98 97 93 89 84 76 64
35 36 34 33 29 28 29 30 31 34 37 41 44 47 50 53 57 61 63 66 70 70 77 81 85 85 83 84 77 81 78 79 79 80 98 96 89 82 74 68 59 49 40
36 35 35 32 32 31 32 34 36 38 41 45 49 51 57 65 69 71 75 78 77 76 78 82 87 86 84 87 84 84 77 75 85 91 86 78 70 61 49 38 35 32 24
38 37 36 34 35 36 36 35 38 42 46 51 58 63 67 72 77 84 87 90 89 83 83 87 91 92 91 89 79 78 82 84 81 75 66 54 43 35 30 25 21 18 13
42 42 40 40 40 41 41 41 43 47 55 61 66 75 79 81 80 78 80 87 86 84 91 99 99 97 96 90 91 85 80 68 54 40 33 27 22 19 17 15 15 16 19
46 47 46 47 43 43 43 45 50 56 62 66 70 73 76 81 84 87 91 94 97 97 98 98 97 93 89 82 70 61 47 30 22 15 13 16 16 15 14 15 22 28 31
53 52 50 49 46 45 50 54 56 61 65 66 70 75 78 81 85 90 94 97 98 98 97 94 84 75 65 47 32 25 16 13 12 12 12 11 12 16 24 28 31 34 34
57 55 53 52 50 50 53 57 60 66 70 72 72 76 79 82 88 92 94 90 82 72 61 47 38 30 22 14 13 13 11 13 12 9 9 12 21 25 28 31 33 37 42
61 60 59 54 58 58 62 66 68 70 72 74 75 74 70 65 56 43 37 34 32 28 25 21 17 14 11 10 9 9 10 10 10 14 20 24 27 30 33 35 38 44 49
63 63 61 62 65 66 67 67 67 64 59 42 34 32 32 29 26 24 22 20 19 17 17 17 14 12 10 9 8 8 9 11 19 25 26 28 32 35 38 41 45 49 52
69 69 69 70 68 64 50 41 36 33 30 28 27 26 25 23 21 19 18 18 17 17 17 15 13 11 10 10 10 10 13 22 25 28 30 33 35 37 39 43 47 49 52
74 72 71 66 45 36 36 34 31 29 28 27 26 24 22 21 20 20 21 21 20 19 17 15 14 13 13 13 13 18 25 27 29 31 34 37 38 39 40 42 45 47 49
70 68 51 37 36 36 34 31 29 28 27 25 24 23 22 22 23 26 27 28 25 23 20 17 15 14 14 16 22 26 27 30 32 34 37 38 39 40 41 43 44 46 49
60 41 37 37 37 35 32 30 28 28 26 25 24 23 24 26 26 24 25 25 24 23 20 19 17 17 18 25 28 29 31 33 35 37 39 40 41 42 45 45 44 45 48
39 39 40 41 40 36 34 31 30 29 26 25 26 27 27 27 26 27 27 27 26 24 22 21 19 20 26 29 30 32 34 35 37 40 42 44 45 47 49 50 50 52 51
41 43 42 43 40 38 37 34 32 31 28 28 29 29 30 30 29 29 30 29 28 26 23 22 20 25 31 31 33 35 37 39 42 44 46 47 48 51 55 58 59 60 58
43 44 44 45 44 41 39 38 35 33 30 30 32 34 33 32 32 31 30 30 29 27 24 22 24 32 33 34 36 39 41 43 46 48 50 50 53 56 59 61 62 62 61
44 45 46 47 46 44 43 41 39 36 33 33 35 36 36 35 34 32 30 30 30 28 25 25 32 36 35 36 40 43 45 47 49 51 53 56 61 63 65 66 67 67 66
48 47 47 50 50 48 46 45 43 39 35 36 38 39 38 36 34 33 31 30 30 28 28 32 36 38 38 40 43 46 48 50 54 57 61 66 68 70 68 66 68 67 64
53 52 52 53 53 50 49 48 46 42 38 39 42 41 38 36 35 33 32 31 31 32 33 36 39 41 42 43 46 49 53 56 60 63 67 71 72 71 69 68 68 67 62
60 58 54 55 54 51 51 50 48 43 41 43 45 42 40 38 37 36 34 33 33 34 36 37 40 42 42 44 48 52 58 63 64 68 73 72 72 73 72 69 66 61 60
68 64 59 58 58 55 53 51 47 44 44 46 46 44 43 41 40 39 38 35 32 33 35 36 38 41 43 46 52 58 64 68 72 74 75 75 76 76 73 68 63 59 60
75 70 63 63 62 59 54 51 48 46 47 47 48 47 47 46 45 45 42 39 36 35 34 33 35 38 43 49 58 66 72 76 79 79 79 78 77 75 73 67 64 65 63
85 80 70 65 68 60 53 51 49 48 47 47 49 50 51 50 49 48 45 42 39 37 32 29 31 36 45 55 64 71 78 82 81 82 80 79 76 73 70 67 67 66 64
90 87 73 72 68 58 53 51 50 48 48 49 51 53 55 55 53 51 48 45 41 37 31 28 30 37 47 59 71 78 83 83 84 84 82 78 75 73 69 68 68 68 65

GFSGL_prec_cthk_072.txt.gz
RH
34 33 32 32 31 29 28 28 28 28 27 25 25 26 28 32 35 38 41 47 51 55 64 68 75 80 83 87 90 91 93 91 92 91 97 96 97 97 95 87 82 87 89
37 36 35 34 33 33 33 34 30 26 26 28 29 30 32 36 39 43 47 53 56 62 67 73 75 80 84 84 83 87 91 88 87 86 84 96 90 87 83 81 81 77 70
35 35 34 34 33 32 31 27 27 28 28 29 30 33 37 41 47 48 50 57 65 74 78 79 80 82 85 87 88 91 89 88 89 98 95 85 83 75 67 65 64 60 46
35 35 35 34 33 33 32 32 31 31 30 31 33 36 40 44 48 51 58 63 66 75 83 89 92 89 83 85 82 92 91 90 91 89 82 76 65 60 57 51 38 31 23
39 38 37 34 34 35 35 34 34 33 34 36 40 46 51 54 58 60 63 68 71 75 81 84 88 85 86 84 97 96 95 88 89 85 73 59 55 44 31 25 16 8 7
43 41 41 41 39 38 38 38 38 39 42 44 47 51 56 60 64 66 67 72 72 79 80 83 86 87 90 93 95 91 87 73 70 58 49 30 26 20 15 12 9 13 17
48 48 47 46 45 43 40 40 42 44 45 49 52 55 56 61 64 68 72 76 80 85 88 91 91 95 98 93 81 75 67 54 35 20 12 11 11 10 9 12 18 20 22
54 52 51 51 48 44 44 45 47 48 50 54 57 59 62 65 67 71 74 78 82 84 87 88 85 74 62 50 38 28 23 17 13 10 8 8 7 10 17 20 22 23 24
60 57 57 54 49 48 49 50 53 55 57 59 60 63 64 66 61 55 44 36 32 31 30 27 24 22 20 16 15 14 13 12 10 8 7 11 17 20 22 23 25 26 28
62 61 59 56 56 54 55 57 58 59 58 58 47 32 26 25 24 22 20 20 19 18 17 17 17 16 14 12 11 10 10 11 9 10 16 20 22 23 25 27 28 30 33
63 62 60 60 60 61 61 61 57 43 32 28 25 24 23 21 19 18 17 18 19 19 19 19 18 15 14 13 12 12 12 12 13 18 21 23 25 27 28 31 33 34 36
65 64 63 64 64 62 48 37 33 30 26 24 24 23 21 20 18 18 18 19 20 20 19 19 19 17 16 15 14 14 14 17 22 23 25 27 29 30 32 34 35 37 39
69 70 69 67 51 36 34 32 29 27 26 25 24 22 21 20 20 21 22 22 23 23 23 22 21 19 18 17 16 17 23 25 26 27 29 31 32 33 35 37 39 41 42
72 72 64 42 36 36 33 31 28 27 27 25 23 22 22 23 24 25 26 27 26 26 24 23 22 21 20 20 22 27 28 28 30 31 31 32 34 36 38 41 43 44 45
66 59 40 38 38 37 34 32 30 29 28 27 25 24 25 26 26 27 27 27 27 27 26 25 24 23 22 24 30 31 31 32 32 33 34 35 36 40 43 45 47 49 53
57 39 39 40 40 38 37 35 34 32 30 29 28 27 27 29 30 30 29 29 28 28 27 25 24 23 24 30 33 33 34 35 35 36 38 38 41 44 45 48 52 56 57
40 39 42 43 42 41 41 39 37 35 34 33 32 30 30 32 32 32 32 31 29 28 27 26 25 26 30 35 35 36 38 39 39 41 42 43 44 46 49 54 58 61 62
40 41 42 43 44 44 43 41 41 39 38 37 35 33 33 35 36 35 32 30 29 28 27 27 27 30 37 38 38 40 43 44 44 45 47 48 51 53 58 65 67 67 64
44 43 43 44 46 45 44 44 44 43 41 40 38 37 37 39 39 36 33 32 30 30 28 28 30 35 40 41 41 43 45 46 47 48 53 55 59 61 66 69 70 69 67
45 44 46 46 47 48 46 45 45 44 43 42 42 40 41 43 40 37 35 35 35 34 32 32 35 39 43 44 44 45 45 46 50 54 60 63 65 67 72 72 72 71 68
59 49 46 49 51 51 50 49 46 45 44 44 44 42 44 46 43 41 40 38 38 38 38 37 39 42 44 43 44 43 44 50 57 62 65 69 70 74 75 75 76 73 67
70 62 56 54 55 55 54 52 50 47 46 46 44 44 47 48 46 45 44 43 43 42 41 40 39 39 39 42 41 42 48 55 63 68 73 75 77 79 78 79 76 71 67
83 73 66 60 60 61 58 56 54 50 48 47 46 47 49 49 49 49 50 49 47 45 43 41 39 36 35 37 39 44 51 60 67 74 78 79 82 82 81 77 73 68 66
95 87 77 68 64 64 62 60 58 53 50 48 48 49 49 48 50 53 55 53 49 46 43 41 39 34 32 32 38 44 54 64 71 78 80 83 86 84 80 76 73 71 69
98 97 90 77 70 72 66 65 62 54 51 50 49 48 48 48 53 58 58 55 50 47 44 42 39 34 30 31 38 46 57 67 74 79 79 82 83 81 78 76 76 75 73
98 98 95 86 88 80 70 71 62 55 53 52 50 49 48 53 57 62 60 57 52 50 47 47 43 38 34 35 41 48 59 68 75 78 78 81 81 80 78 77 77 75 72

GFSGL_prec_cthk_075.txt.gz
RH
30 30 29 29 29 29 28 27 27 27 27 28 29 25 24 24 25 27 29 32 37 41 43 47 54 59 66 74 75 78 89 90 93 95 97 98 95 91 91 94 93 91 91
33 33 33 33 33 33 32 31 31 31 31 29 24 24 25 25 27 30 35 39 43 45 47 50 58 64 74 85 85 81 90 92 96 94 96 94 91 92 90 91 90 87 75
35 35 34 34 33 32 32 31 31 30 28 27 26 26 26 28 32 36 41 43 45 49 53 56 60 66 73 81 89 88 88 94 89 93 88 90 91 92 87 85 73 59 46
36 35 34 34 33 32 31 31 30 30 30 29 28 29 32 36 41 43 45 49 52 54 57 60 66 70 72 79 82 84 81 87 89 92 97 87 86 79 69 59 48 37 30
39 38 37 36 34 34 33 35 34 34 32 31 33 37 41 44 49 51 54 56 58 60 62 65 66 69 74 78 85 89 85 82 88 96 82 76 64 59 47 32 21 15 10
43 42 41 41 40 39 38 38 39 35 35 37 41 45 48 50 50 52 55 58 59 63 67 70 73 78 80 84 91 95 97 90 83 77 66 54 34 20 12 10 9 11 17
47 47 48 46 45 44 44 42 38 39 43 44 45 49 52 53 55 56 58 60 62 66 67 67 68 73 76 78 72 64 53 44 40 33 21 14 10 9 9 9 16 19 21
54 54 52 51 50 50 45 41 41 44 48 52 53 53 55 56 55 51 46 43 40 37 34 31 26 21 18 18 18 16 16 16 14 13 11 10 8 8 13 19 21 23 23
60 58 57 56 54 50 46 46 46 51 56 55 55 55 48 33 27 22 19 17 16 15 15 15 15 16 17 15 14 14 14 13 13 14 12 12 13 19 21 23 24 24 24
61 61 60 58 55 54 53 54 55 58 58 49 30 24 21 20 19 17 16 16 16 16 17 17 17 17 16 16 15 14 14 14 14 13 15 19 21 23 24 25 26 27 28
63 64 62 59 57 58 59 61 59 45 30 27 24 22 21 20 18 17 16 18 19 19 20 20 20 20 20 19 17 17 17 16 15 18 24 25 25 27 27 28 29 29 29
67 65 62 62 61 63 60 42 33 30 27 25 23 22 21 19 19 18 19 21 22 23 23 23 23 22 21 20 19 19 19 21 24 27 27 27 29 29 30 30 30 31 33
68 67 65 66 65 44 37 33 30 27 26 25 24 24 23 22 22 22 23 24 24 25 25 24 24 23 22 21 21 22 25 29 30 30 31 31 31 31 31 32 32 34 37
72 71 71 67 40 38 35 33 30 29 27 27 27 26 26 25 24 25 26 27 27 27 26 25 24 23 23 23 25 27 31 32 33 34 34 34 34 34 34 34 35 38 40
74 74 66 41 38 37 36 34 33 33 32 31 29 29 29 28 28 28 30 30 29 28 26 25 24 24 24 25 28 31 33 34 36 37 39 39 39 39 39 39 39 41 45
68 63 45 38 39 39 38 36 37 37 36 33 32 33 33 32 31 32 32 32 31 28 27 26 25 25 25 28 32 34 35 38 41 42 43 44 43 43 43 44 46 48 52
63 50 38 40 41 41 40 39 41 39 38 37 37 37 36 35 34 34 35 34 32 30 29 28 28 28 28 33 37 39 41 43 44 46 46 45 45 48 51 54 57 59 61
59 44 40 41 43 44 43 42 42 41 40 40 39 39 39 39 38 37 38 37 34 32 31 31 31 32 34 39 42 43 44 44 44 44 45 46 51 54 60 63 65 64 68
56 47 45 45 46 46 44 43 43 43 42 40 40 41 42 43 41 41 42 40 38 36 35 35 35 36 38 43 46 44 43 44 44 45 48 53 59 63 68 70 71 72 74
59 51 46 45 45 46 47 46 47 46 45 43 43 43 44 45 44 44 45 43 41 41 40 39 39 39 39 42 44 44 43 44 45 47 53 59 64 70 74 76 76 79 77
68 60 56 51 46 47 51 52 49 49 48 47 46 46 47 47 46 48 49 47 46 46 45 44 41 39 39 39 41 43 42 42 44 49 55 62 70 76 78 80 82 82 79
81 70 66 62 56 54 54 55 53 52 51 52 50 48 48 48 48 50 49 48 49 50 50 47 43 40 39 39 39 39 39 40 43 50 57 64 73 77 79 83 84 81 76
94 86 80 75 66 60 58 59 61 56 54 56 54 51 49 47 48 50 49 51 55 54 52 50 46 43 40 39 38 37 36 39 44 52 59 67 73 74 78 83 82 78 75
92 97 92 88 81 72 66 62 68 65 59 59 58 54 50 48 49 50 53 57 60 57 54 51 48 45 42 41 39 37 35 38 44 54 61 66 72 73 75 79 80 78 76
96 99 98 97 91 86 78 67 70 73 65 63 62 56 52 50 50 53 60 63 63 58 56 52 49 47 46 45 44 41 38 41 45 54 60 65 70 73 75 79 81 80 80
97 98 99 98 98 96 91 79 84 83 73 72 63 56 53 52 53 61 67 69 63 60 57 54 54 53 53 53 51 46 41 44 48 54 58 63 67 71 74 77 80 81 80

GFSGL_prec_cthk_078.txt.gz
RH
30 30 29 29 29 28 28 27 26 26 27 28 29 30 30 31 28 25 25 25 26 30 34 37 41 41 44 49 51 55 59 67 79 88 85 84 86 93 99 97 99 97 90
34 34 34 33 33 32 32 32 32 32 32 31 30 29 31 26 25 25 26 28 32 34 37 41 41 43 47 51 52 55 64 70 79 81 82 90 89 98 93 95 91 89 89
37 37 36 35 34 34 34 34 33 33 33 32 32 29 28 27 26 27 30 34 37 38 41 45 48 51 55 55 60 62 66 71 73 75 79 85 84 85 87 97 90 84 67
39 39 38 36 35 34 33 33 32 31 30 28 29 29 28 27 28 33 37 42 44 45 49 52 51 55 59 59 62 65 69 75 78 80 76 76 82 92 86 76 63 51 42
42 41 40 39 37 36 34 33 32 31 32 33 33 30 30 34 37 42 46 48 49 51 52 52 55 59 61 63 66 70 75 80 83 86 88 89 79 72 67 54 39 22 12
47 44 43 42 42 40 37 36 37 37 37 35 34 36 40 40 43 46 48 51 51 51 53 50 48 52 53 56 57 56 59 60 66 65 56 47 42 37 27 16 11 8 10
52 48 47 47 47 45 43 42 41 41 38 39 41 42 43 46 47 49 49 48 41 37 36 36 34 35 36 36 33 28 21 17 16 15 14 14 13 12 11 9 8 13 19
56 53 52 52 53 52 50 48 45 41 42 43 46 48 49 50 46 37 30 26 24 23 21 19 16 15 14 14 14 14 14 15 15 16 15 14 13 12 11 11 18 20 21
61 60 58 58 57 55 52 49 46 45 46 49 52 51 40 29 23 19 17 17 16 15 16 16 16 16 16 15 16 16 16 17 17 16 16 15 15 16 19 22 22 23 24
64 64 63 61 61 58 54 52 52 54 54 51 37 27 23 20 19 18 17 16 16 17 18 18 19 19 19 19 18 18 18 18 18 18 17 20 22 25 26 26 26 27 28
63 64 64 63 63 60 58 57 59 57 43 29 25 24 22 21 19 18 17 17 18 19 20 21 22 22 22 21 20 19 19 18 19 18 21 25 28 29 30 30 31 30 31
67 66 67 66 64 63 63 64 53 35 28 27 25 24 23 21 21 21 20 21 22 23 24 24 24 23 22 21 21 20 20 20 22 24 28 30 31 33 33 34 34 34 34
72 72 71 67 67 67 63 40 32 29 28 26 26 25 24 24 24 24 24 24 25 26 26 26 26 24 23 23 22 22 23 25 28 30 31 33 35 36 37 38 39 39 39
75 75 72 70 71 57 37 34 32 30 28 28 28 27 27 27 28 28 28 27 28 28 28 28 26 25 24 24 25 26 28 31 33 35 37 39 40 41 42 42 41 40 40
75 76 74 74 56 38 37 35 33 32 32 32 32 31 31 31 32 32 31 31 31 31 30 29 28 27 26 26 28 31 34 36 37 39 40 40 41 42 42 41 40 43 45
79 78 78 68 41 39 38 37 35 34 34 35 36 35 35 35 35 36 35 34 34 33 33 32 31 29 28 29 32 36 37 38 40 41 41 41 42 42 43 46 49 52 55
81 76 68 46 40 41 41 40 38 37 37 38 38 38 38 38 39 39 39 38 37 36 36 35 34 32 32 33 36 40 40 41 42 43 43 43 43 44 46 52 58 62 66
72 69 62 42 42 43 43 42 41 40 40 40 39 38 39 39 40 41 42 41 40 40 40 39 38 37 37 38 41 42 43 44 45 46 46 45 45 45 50 56 63 69 71
72 69 56 45 45 45 45 45 44 43 42 44 41 41 41 42 42 43 44 44 44 45 45 44 42 41 42 43 44 43 44 43 46 47 46 46 47 48 53 60 67 72 74
78 70 58 50 48 47 47 47 45 43 44 46 45 44 44 45 45 46 46 46 47 48 49 49 46 45 45 45 44 44 43 42 46 46 45 46 48 51 57 63 69 72 75
84 79 64 55 53 51 48 48 47 46 47 48 47 47 47 46 46 47 47 48 49 50 51 52 51 48 48 46 45 43 39 39 45 46 45 46 49 53 59 65 68 71 76
92 86 77 65 60 59 57 54 54 54 53 52 51 51 50 51 50 50 50 50 51 54 55 56 55 52 51 48 46 43 39 39 41 46 43 45 49 56 60 65 68 72 75
89 92 93 88 77 71 69 64 61 58 57 55 56 54 54 54 54 52 52 51 53 56 59 62 59 55 53 50 47 45 40 38 43 45 43 44 51 58 62 66 68 71 75
94 90 87 88 89 85 82 77 70 64 63 61 65 67 58 58 59 55 52 52 55 59 65 64 61 58 56 51 50 47 42 44 47 47 46 44 50 58 63 68 70 72 74
95 95 89 91 93 94 92 89 83 76 71 68 77 74 65 66 65 58 54 53 58 64 68 65 63 61 58 56 55 51 49 51 51 51 51 49 51 55 60 64 69 72 72
95 95 93 91 96 98 98 97 94 87 82 77 86 86 78 80 69 59 55 56 64 67 70 66 65 64 62 59 59 57 56 57 56 56 56 55 53 56 60 63 66 68 70

GFSGL_prec_cthk_081.txt.gz
RH
44 45 44 36 33 31 29 28 26 26 26 28 29 31 33 35 36 36 36 35 29 25 26 28 31 34 37 39 42 45 49 50 50 53 58 60 64 66 74 81 84 90 90
43 43 46 40 35 33 32 32 32 33 33 33 33 33 33 32 30 30 31 27 25 26 29 32 34 37 40 44 46 49 51 51 54 59 62 63 65 66 72 77 80 81 86
39 38 37 38 38 36 36 35 34 34 35 35 35 35 34 34 33 29 28 26 26 31 34 37 40 44 48 48 50 52 54 55 59 62 64 66 68 69 69 72 79 85 88
40 42 42 40 38 37 37 36 35 34 34 35 34 34 32 30 30 30 27 29 34 38 42 44 47 48 49 49 50 52 53 55 58 60 63 68 72 75 76 78 77 72 61
44 42 42 40 39 39 38 37 37 37 35 35 34 33 34 33 31 33 37 41 43 45 46 47 47 45 45 43 43 43 43 42 44 47 51 52 53 52 49 43 36 29 24
50 48 44 43 42 41 41 40 39 38 37 37 38 37 35 38 42 42 43 46 46 47 47 39 35 32 32 33 36 37 38 39 41 41 37 32 32 27 24 23 19 14 10
53 52 50 47 46 46 47 46 44 43 42 40 40 40 42 42 43 45 47 46 40 35 31 29 26 26 25 24 20 17 15 15 14 14 14 14 15 15 15 16 15 14 15
58 56 55 53 51 52 52 51 48 45 44 44 43 46 45 47 48 45 34 26 21 19 18 15 14 15 15 15 16 16 16 17 17 16 17 17 16 16 16 16 15 18 22
62 60 59 58 57 56 56 55 52 50 48 47 47 49 50 39 26 21 19 18 18 17 16 16 16 17 18 18 18 18 18 18 18 18 17 16 15 15 23 22 24 27 28
64 64 63 63 61 62 61 57 54 52 50 50 48 40 31 24 21 20 19 19 18 17 17 18 20 20 21 21 20 20 19 18 17 17 16 16 19 20 23 26 28 31 32
67 66 65 66 66 64 62 59 57 56 55 43 37 30 23 22 21 21 20 19 19 19 20 21 22 23 23 23 21 20 20 19 18 18 19 20 23 26 29 32 34 35 36
70 69 66 66 66 66 64 62 61 56 44 37 27 24 23 23 23 23 22 22 22 22 23 25 25 25 24 23 23 23 22 21 22 22 24 28 29 31 34 37 37 38 39
72 70 69 68 69 67 66 65 58 45 34 27 26 25 24 25 25 26 26 26 26 26 26 26 26 26 25 25 25 25 25 26 27 29 31 32 34 36 38 38 39 39 39
76 76 74 74 70 69 69 60 42 32 29 28 27 26 27 28 29 30 30 30 31 30 30 29 28 28 28 28 29 29 29 30 33 34 35 35 36 38 40 41 40 39 39
80 79 77 75 73 73 60 41 33 32 31 29 29 30 32 33 34 34 34 34 34 33 32 32 31 31 31 31 32 32 33 36 38 37 38 39 39 41 43 43 42 41 43
81 78 78 76 75 63 45 37 35 33 32 32 32 34 35 37 37 37 37 37 37 37 36 35 35 35 35 36 36 36 37 39 41 41 42 42 41 43 43 45 45 45 46
80 80 80 79 78 51 41 39 37 36 35 35 36 37 39 41 39 38 39 40 40 41 40 39 38 39 40 41 40 40 41 42 43 45 45 44 42 44 45 47 46 46 49
84 84 83 80 70 43 42 41 40 39 39 40 39 39 41 42 40 41 41 42 44 44 45 44 44 45 45 45 44 44 44 44 45 47 46 46 44 44 48 48 48 48 52
79 79 77 72 58 43 44 43 43 43 42 43 44 42 42 44 45 44 44 45 47 48 48 48 49 50 51 50 48 47 45 44 46 46 47 46 44 46 51 51 49 51 55
82 77 74 73 59 46 45 45 45 45 45 45 45 43 44 47 47 47 48 49 50 51 52 52 54 53 57 57 53 51 48 44 43 44 45 42 45 49 52 51 51 53 57
92 87 81 78 67 54 52 51 49 47 47 45 45 45 46 50 50 51 51 53 53 53 54 53 55 56 62 63 58 54 50 47 44 43 41 39 45 49 54 54 53 55 59
94 93 91 88 78 64 57 55 54 54 54 53 50 49 51 52 51 52 53 54 55 54 54 55 57 59 66 65 60 57 53 49 46 46 42 39 44 49 54 55 58 58 61
91 93 92 92 92 85 72 67 65 64 63 61 60 57 56 54 54 57 56 56 57 57 56 56 59 62 68 67 63 60 57 54 51 50 47 45 47 50 54 55 59 59 62
93 93 94 94 95 92 88 81 77 79 79 76 71 69 64 61 62 74 67 60 67 61 58 59 62 65 71 70 66 64 62 60 60 57 53 53 55 55 58 60 61 62 60
92 94 96 97 98 98 98 94 86 82 84 85 79 74 72 71 76 78 70 73 77 66 62 63 65 72 73 73 71 69 67 66 63 60 61 60 62 63 65 66 67 65 63
85 90 92 93 95 97 98 98 94 91 95 96 89 83 80 80 85 91 86 91 78 67 65 68 72 75 78 74 74 73 71 69 64 63 63 64 65 69 72 71 70 67 69

GFSGL_prec_cthk_084.txt.gz
RH
51 51 47 44 41 38 38 37 35 30 28 27 26 27 31 32 33 39 39 40 39 36 33 32 26 28 31 33 37 38 40 43 45 46 47 53 55 56 57 57 58 59 67
54 53 46 43 45 47 46 44 38 34 32 32 31 31 32 34 35 36 36 34 33 33 30 28 27 32 35 38 41 44 46 47 47 49 50 50 52 56 57 56 60 62 63
53 50 47 47 49 45 44 47 44 37 34 34 34 35 36 35 35 36 35 34 32 31 29 29 34 39 42 43 44 46 47 47 47 49 48 44 44 46 49 53 58 61 62
48 48 47 45 43 44 41 39 40 40 37 35 36 35 36 35 36 34 33 32 31 30 33 38 42 44 43 45 44 42 40 39 40 39 39 40 42 43 45 48 50 50 46
48 43 42 41 40 40 41 42 41 38 37 35 34 34 33 34 34 34 35 34 37 42 43 45 46 42 36 36 34 34 34 35 36 37 38 39 40 40 38 36 34 32 28
59 56 53 46 44 43 44 46 44 39 38 38 36 36 37 37 37 40 43 45 46 47 46 46 36 33 32 31 30 30 30 29 28 29 28 24 22 19 17 16 14 14 13
62 59 59 56 53 49 48 47 45 42 42 41 40 41 41 42 43 46 47 46 48 44 36 30 26 25 21 18 16 15 16 16 16 16 16 16 16 15 15 15 14 13 12
66 62 63 64 59 53 53 51 49 48 47 45 44 44 45 47 47 48 49 42 30 22 18 18 18 17 16 16 17 18 18 19 18 17 17 16 16 15 14 14 14 14 16
71 65 62 63 59 58 57 55 55 54 52 50 49 50 49 50 45 34 25 21 19 19 19 19 18 18 18 19 20 20 20 20 19 18 18 17 17 17 15 17 18 20 23
70 70 69 64 63 63 62 60 60 58 57 56 54 51 46 35 28 23 20 20 20 20 19 19 19 20 22 22 22 22 21 21 20 20 20 19 19 20 21 24 27 28 30
72 71 70 67 66 67 66 64 65 64 61 57 50 42 33 28 23 21 21 21 21 21 22 22 22 23 24 24 23 23 22 23 23 23 23 24 24 26 28 30 32 33 34
75 73 73 72 69 67 69 69 69 66 61 51 44 38 30 24 23 23 22 22 23 24 25 26 26 26 26 26 25 24 24 25 27 28 29 31 31 31 32 34 36 36 36
77 75 74 74 72 71 71 71 70 67 56 47 39 31 26 25 25 24 25 26 27 29 30 30 30 29 29 28 28 28 28 30 31 33 35 35 35 35 36 38 38 36 37
80 79 78 76 74 74 74 74 71 61 48 40 32 27 27 26 27 28 30 31 33 34 34 34 33 32 32 31 31 31 32 34 36 37 38 38 38 39 40 40 40 38 36
86 85 82 82 81 78 77 76 66 52 42 33 29 29 28 29 30 32 34 37 38 38 38 38 37 36 35 34 35 36 37 38 40 41 42 41 42 42 42 43 41 40 40
86 85 85 84 83 80 80 74 53 42 36 33 32 30 31 32 35 37 40 41 40 39 40 40 40 40 40 41 41 42 41 41 44 46 45 44 44 45 45 43 42 42 44
86 85 85 85 83 82 81 60 47 40 36 35 33 33 34 36 37 39 42 41 40 42 43 44 46 46 46 45 46 48 46 45 47 50 48 47 46 46 46 44 45 46 48
88 87 86 85 85 84 74 53 46 40 38 37 37 37 38 39 40 41 43 43 44 46 47 48 48 50 50 49 48 53 53 50 49 52 50 48 47 48 46 44 47 48 50
87 86 87 87 88 86 76 50 44 42 40 40 41 42 42 42 42 43 43 46 49 50 51 52 53 53 54 54 51 56 59 56 54 53 50 47 47 48 47 45 48 50 52
91 89 86 85 82 79 69 48 45 44 43 43 43 43 43 44 43 42 42 45 49 52 53 54 55 54 56 56 55 59 64 62 57 56 53 50 48 46 45 47 50 51 54
96 95 93 88 80 76 73 55 48 48 47 47 46 46 46 45 44 44 44 44 50 53 54 56 56 56 58 59 59 63 69 65 60 59 57 54 52 49 49 47 50 54 55
95 97 97 95 93 87 82 71 58 56 56 56 55 54 52 51 51 50 50 50 53 53 55 55 57 58 60 62 63 66 71 70 66 64 63 61 58 55 51 51 52 55 58
93 92 96 97 97 96 94 90 75 63 61 63 63 63 63 63 61 59 58 58 58 58 67 60 63 67 65 68 68 69 74 73 71 70 69 68 67 63 58 57 57 59 62
80 88 96 95 95 97 96 94 91 85 73 68 66 67 70 74 73 71 69 66 66 71 75 70 75 75 70 72 72 72 78 76 74 73 72 70 68 66 65 64 64 65 68
76 79 85 91 93 97 97 96 97 99 98 92 85 81 78 80 80 78 76 72 76 79 79 84 85 72 72 73 73 76 75 68 67 66 65 66 67 67 67 68 69 70 70
78 79 79 82 87 92 93 96 97 99 98 98 98 93 92 92 87 84 83 82 83 89 94 95 79 73 70 71 71 72 68 60 59 59 58 60 66 67 69 68 68 64 60

GFSGL_prec_cthk_087.txt.gz
RH
57 56 53 53 51 48 46 42 42 41 37 35 33 32 36 33 35 36 40 41 40 43 43 39 35 33 31 29 29 34 36 39 42 44 44 44 44 46 47 50 52 52 55
57 57 55 51 50 52 53 47 44 43 41 40 40 40 36 36 37 35 35 39 42 40 40 36 33 30 28 30 34 38 41 43 44 44 43 44 41 40 40 43 46 47 48
52 52 52 49 50 53 54 48 44 45 46 46 46 46 40 36 35 36 36 37 37 35 35 32 30 28 32 37 41 42 44 42 41 38 37 36 36 37 39 40 41 43 45
54 59 54 49 50 51 49 48 47 48 46 42 43 43 44 43 40 38 37 36 36 34 31 30 31 37 40 43 43 40 36 34 33 32 33 34 35 37 38 39 40 40 40
54 59 59 52 50 48 50 49 48 46 44 40 37 37 36 36 35 35 35 32 34 33 34 38 42 43 43 37 34 31 29 29 29 30 31 32 33 33 31 28 26 21 17
57 59 59 59 54 48 45 42 41 41 41 42 41 41 39 36 35 37 37 37 40 44 45 45 45 39 34 32 29 26 24 21 21 21 22 22 20 18 16 15 14 13 12
64 66 65 64 65 59 53 50 45 44 43 43 41 43 41 39 41 42 43 46 47 47 46 42 33 29 25 20 17 16 16 17 17 18 18 17 17 17 16 15 14 13 13
64 67 69 68 66 63 62 59 58 53 50 49 47 45 43 44 46 47 48 48 48 42 31 22 20 19 18 18 18 18 19 19 19 19 18 18 18 18 17 16 15 14 16
67 64 64 67 67 65 62 64 63 61 57 53 49 48 49 50 52 54 50 37 24 20 20 20 20 19 19 20 20 21 21 21 20 19 19 20 20 20 20 20 22 23 24
71 69 69 69 67 69 64 66 65 61 59 57 56 56 55 52 46 37 28 23 20 20 21 21 21 21 21 22 22 22 22 22 22 22 22 23 24 24 26 27 28 27 29
77 77 73 73 71 70 70 73 68 67 65 62 61 59 51 42 35 28 24 21 21 22 22 23 24 24 25 25 25 24 24 24 24 25 26 27 29 31 32 32 31 31 33
78 77 77 76 74 73 75 72 72 71 70 68 62 52 44 37 30 26 22 22 23 24 25 26 28 29 29 29 28 27 27 27 27 28 30 32 34 35 36 35 36 36 35
82 82 79 78 79 79 79 78 78 76 73 68 56 48 41 35 29 25 24 26 26 27 29 31 33 33 33 32 32 31 30 30 32 34 36 37 38 39 39 39 39 38 38
87 87 83 81 81 80 79 78 78 76 73 59 50 45 38 32 27 27 28 28 29 32 34 36 37 38 38 37 36 35 35 36 38 40 41 42 42 43 43 43 42 41 40
89 89 88 88 85 83 81 81 80 79 67 55 48 41 34 29 29 29 30 32 34 37 40 41 42 41 41 41 41 41 42 42 44 45 46 47 48 48 48 46 45 44 44
92 89 88 89 89 88 86 84 83 76 65 53 44 37 32 30 30 31 33 36 38 41 44 43 44 44 45 46 47 46 46 46 49 51 50 50 51 51 51 48 47 46 47
92 91 89 89 89 89 88 86 84 73 56 47 40 35 33 32 32 35 37 38 40 44 46 46 48 49 50 51 52 51 50 51 53 56 56 54 54 55 53 51 50 50 50
92 93 93 91 90 90 89 88 86 64 51 45 40 37 35 35 37 39 40 41 43 44 47 49 51 53 54 55 56 56 55 55 56 60 60 57 56 55 53 52 52 53 53
96 94 92 90 92 93 92 91 82 61 53 47 42 40 39 39 40 40 42 44 45 45 46 47 50 53 55 56 59 59 58 58 59 62 64 62 59 57 55 54 54 56 59
97 96 95 93 90 90 92 91 86 61 53 48 44 42 42 43 43 44 45 45 44 44 45 46 47 51 57 58 59 61 61 63 63 64 69 66 62 61 60 58 57 60 61
97 97 97 97 96 91 88 87 84 64 49 48 47 46 45 45 45 45 45 46 46 46 48 49 49 53 59 57 58 64 68 68 67 71 73 69 65 63 61 59 55 54 56
88 96 97 98 98 98 96 91 85 79 62 53 52 52 54 56 55 55 54 53 53 54 52 52 53 56 59 63 66 70 72 73 71 73 74 71 63 59 58 58 56 56 55
74 75 82 92 98 98 98 98 97 94 87 72 61 58 57 59 62 63 64 63 61 62 61 60 62 65 63 70 73 78 79 74 76 74 72 64 61 57 55 55 55 58 59
75 78 77 76 80 91 98 98 98 98 98 97 89 78 69 66 67 67 67 68 70 69 68 71 71 72 76 82 83 80 74 76 75 71 64 59 56 55 54 54 57 59 62
71 72 76 79 79 79 85 93 98 99 98 97 98 97 93 84 80 79 80 81 83 81 80 81 77 79 91 92 86 75 74 71 67 65 57 54 55 54 54 55 59 62 63
77 76 77 78 80 81 82 82 85 92 97 98 98 98 98 98 97 93 90 89 88 85 87 85 82 89 97 94 79 76 68 62 60 62 57 54 53 52 53 58 61 61 57

GFSGL_prec_cthk_090.txt.gz
RH
58 60 60 57 55 55 52 49 47 45 44 42 40 38 36 33 35 39 40 41 44 45 41 46 44 43 44 37 35 33 32 34 38 40 43 43 40 39 38 35 35 38 44
62 59 61 62 58 56 54 52 49 47 46 46 44 42 43 43 45 44 49 50 45 50 44 41 44 41 37 35 32 31 35 38 41 43 42 38 36 35 35 37 38 40 40
67 62 59 57 59 58 56 53 50 49 49 50 48 45 46 47 49 51 51 51 44 46 46 46 39 37 35 32 32 38 40 41 42 38 35 34 33 33 34 35 36 37 37
58 59 57 53 55 52 50 49 47 51 52 51 48 44 45 48 47 46 47 48 48 46 40 39 37 34 32 35 42 42 40 37 33 31 31 31 31 32 33 32 32 32 32
56 54 54 51 53 54 53 53 50 50 51 49 47 48 49 46 44 39 40 40 40 39 38 35 36 36 41 45 41 34 32 30 30 29 29 28 28 28 28 26 24 21 18
61 59 59 55 54 59 59 57 54 50 49 49 50 48 46 43 40 41 41 42 38 38 43 39 44 47 46 38 31 29 28 27 23 23 22 23 22 21 18 17 17 16 19
65 65 64 61 58 58 60 63 63 56 52 50 44 43 42 42 43 44 44 46 43 50 49 49 49 44 33 27 22 20 18 17 17 18 18 19 19 18 18 18 17 17 16
70 67 66 66 65 64 67 67 67 66 61 56 52 49 47 45 46 50 49 48 49 51 52 49 37 24 20 20 20 19 19 19 19 20 20 20 19 19 19 19 19 19 19
72 70 68 66 64 66 70 72 72 70 65 63 60 56 54 53 53 51 51 51 53 51 38 24 20 20 21 21 21 21 21 21 21 21 21 21 21 22 22 23 25 26 28
77 74 73 69 67 67 66 66 70 71 69 65 66 64 62 58 60 57 54 49 38 28 23 21 20 22 22 22 23 23 23 23 23 24 24 24 24 25 27 29 30 31 32
79 79 80 81 80 77 74 73 74 73 73 69 68 63 62 61 55 51 41 32 26 24 22 21 23 24 24 25 26 26 26 26 26 27 27 27 29 32 33 33 35 35 36
78 79 79 80 80 78 77 76 77 77 78 78 75 70 65 57 50 40 34 28 25 22 22 25 26 27 28 29 30 30 30 30 30 30 30 33 35 36 36 38 39 39 40
84 84 88 88 85 82 80 84 83 81 81 81 78 74 66 57 43 37 31 27 24 23 27 29 29 30 32 34 34 35 34 35 35 35 37 39 40 41 42 42 43 43 43
85 87 88 90 88 87 85 85 86 86 86 85 83 71 60 50 42 36 32 28 26 28 30 30 33 36 38 40 40 40 39 40 41 42 44 45 46 46 45 47 48 48 47
89 91 92 91 90 92 91 89 87 86 85 85 77 64 56 50 43 38 32 29 30 31 32 35 39 42 44 43 43 44 45 45 46 47 49 51 52 51 49 51 52 51 50
92 93 95 94 92 92 93 91 89 87 87 84 69 60 52 47 40 34 31 32 32 34 36 39 43 46 46 46 48 50 51 50 51 51 52 54 56 55 54 54 55 55 54
95 94 95 95 95 93 92 93 92 91 90 81 70 59 50 44 38 34 33 33 34 37 39 41 44 47 49 50 52 55 57 56 55 55 56 57 59 60 58 57 57 56 56
97 97 95 95 94 96 93 93 94 94 92 79 64 55 47 41 36 35 34 35 38 40 42 44 46 47 49 51 53 56 58 60 59 59 59 62 63 64 63 61 59 58 55
97 97 98 98 96 95 96 97 95 94 94 75 60 52 47 42 39 37 37 39 41 43 44 46 49 48 48 48 48 51 56 61 62 62 64 68 69 70 68 65 63 56 50
95 97 97 98 98 96 94 96 98 97 96 75 58 53 49 44 43 42 41 41 43 44 45 46 46 47 47 47 49 50 57 63 61 65 71 73 73 74 72 68 59 53 49
83 90 98 98 98 98 98 96 97 97 96 82 63 57 53 48 45 44 44 45 44 44 44 45 46 47 48 51 50 51 54 62 69 71 75 76 76 75 74 66 56 52 50
70 73 78 84 96 98 98 98 98 96 95 94 78 55 52 50 49 48 47 47 48 52 52 52 54 56 57 56 56 57 61 66 69 78 80 76 78 76 70 58 54 53 51
71 73 74 75 75 79 93 98 98 98 98 96 92 82 62 56 56 56 57 61 62 61 60 63 67 66 62 64 63 64 67 74 85 82 75 79 77 72 60 56 54 53 53
71 72 71 72 74 77 78 77 86 98 98 98 98 98 94 81 70 67 65 64 67 72 72 70 69 72 70 67 70 71 79 87 87 77 76 79 74 65 58 56 54 53 53
71 71 72 71 70 71 73 77 79 79 83 96 98 98 98 98 97 93 86 79 73 74 76 79 80 83 81 84 80 81 91 96 85 76 75 76 67 63 58 54 54 55 56
80 79 78 78 77 77 77 77 78 79 81 83 84 92 97 98 98 98 98 98 93 88 87 87 90 96 91 91 83 89 96 91 81 78 75 70 68 63 54 52 53 56 58

GFSGL_prec_cthk_093.txt.gz
RH
80 75 72 70 67 66 64 62 61 59 58 56 51 48 47 47 45 42 42 41 42 43 48 51 51 56 46 50 42 45 40 40 40 36 40 41 42 40 36 34 32 31 32
75 72 68 68 67 67 67 64 61 57 56 53 51 49 48 48 46 45 46 48 49 51 50 56 57 59 48 49 44 39 39 37 37 39 43 42 40 36 34 32 31 32 34
59 63 67 70 66 64 60 62 61 60 58 56 54 53 53 52 52 52 49 50 53 57 57 58 54 52 51 50 41 39 34 37 42 42 41 38 37 34 32 31 31 32 33
50 52 55 61 68 69 65 60 56 56 57 53 52 51 52 52 54 54 51 52 53 54 51 51 52 51 44 41 37 35 39 43 45 36 34 32 32 31 31 30 30 30 28
54 55 54 54 53 56 58 60 59 56 52 52 49 49 49 51 51 50 48 50 53 51 47 42 41 41 38 37 39 44 43 41 33 30 30 30 29 29 27 26 26 23 20
58 58 59 58 56 54 54 54 55 57 59 54 51 49 47 50 50 49 51 50 48 44 40 42 42 41 40 46 47 46 38 32 29 28 26 26 25 23 22 20 17 17 19
62 63 62 62 62 60 58 58 58 61 62 59 58 52 47 47 49 50 50 49 46 43 44 42 45 47 55 51 43 36 28 25 22 21 20 20 20 19 18 18 18 18 18
68 68 67 67 68 66 65 63 59 59 61 62 63 61 56 50 48 46 47 48 48 47 51 55 55 52 48 37 29 21 20 21 21 21 20 20 20 20 19 20 20 21 22
74 73 73 72 72 69 66 65 64 64 66 70 68 68 64 59 57 56 55 54 57 61 58 54 52 38 27 26 21 21 22 23 22 21 21 21 22 22 22 23 25 27 29
77 78 78 77 74 72 70 69 67 66 68 70 72 72 68 63 60 61 61 62 64 65 60 39 28 28 24 22 22 24 25 24 24 24 24 25 24 25 26 28 30 31 32
74 78 81 80 79 77 78 78 76 73 70 67 69 71 71 70 63 65 66 65 56 45 34 29 29 25 22 23 26 27 27 27 27 27 28 28 29 29 31 34 35 36 37
76 79 78 78 76 77 81 80 78 78 77 75 74 75 74 74 72 67 59 54 44 38 31 28 26 24 24 28 29 29 30 31 32 32 33 34 34 35 38 39 40 41 40
84 82 83 82 80 84 86 84 85 82 81 81 80 80 81 78 71 60 56 47 41 36 32 28 29 27 30 31 31 33 34 36 38 39 39 39 41 43 44 45 45 44 44
84 86 84 84 84 85 87 87 86 86 86 86 87 87 87 82 71 62 54 47 39 33 30 33 29 32 33 34 36 38 41 43 43 43 44 45 47 49 50 50 50 48 48
87 86 86 88 89 93 92 92 92 91 90 89 90 90 90 80 67 59 51 43 38 36 35 32 34 35 36 39 42 44 46 47 47 48 49 51 53 53 53 53 53 54 54
89 91 91 92 93 94 96 94 94 94 92 90 90 91 87 72 64 55 49 46 43 39 35 35 36 38 42 44 46 48 50 52 54 55 56 56 56 56 56 56 58 59 59
90 93 94 95 95 95 96 98 95 94 96 94 93 92 80 68 61 54 50 44 40 37 35 36 38 42 45 46 48 50 53 56 58 59 58 59 58 59 61 61 63 63 62
89 95 96 96 97 96 96 96 97 96 96 97 97 95 78 66 57 52 47 41 38 37 37 38 41 43 45 46 48 50 51 52 53 54 56 61 59 60 65 68 69 69 65
80 89 94 97 98 98 98 97 97 98 98 97 97 94 74 64 57 52 46 42 39 38 38 39 42 44 45 47 50 49 49 49 50 53 57 60 60 63 71 72 73 72 69
67 76 84 91 97 98 98 98 97 98 98 98 98 95 75 63 55 49 46 43 41 39 39 41 44 44 45 46 46 46 48 48 50 54 56 59 66 70 75 76 74 74 71
60 65 69 78 86 93 98 98 97 97 98 98 98 98 84 64 59 54 47 44 44 44 43 41 42 44 44 44 46 47 49 52 56 56 58 62 69 77 79 78 77 76 67
62 65 67 67 71 75 80 88 97 98 98 98 98 98 96 81 66 62 60 54 49 46 44 45 45 46 46 49 51 54 61 63 58 59 61 67 78 82 78 80 78 76 60
68 69 70 70 71 72 73 74 75 81 94 98 98 98 97 96 87 66 57 56 53 51 50 50 51 56 61 59 60 69 71 65 64 65 67 78 85 79 80 82 80 69 60
71 72 72 72 72 72 72 71 73 76 78 79 85 95 97 98 97 95 85 71 61 60 61 64 70 71 68 75 73 71 69 69 66 68 78 91 91 79 82 82 79 68 60
76 76 76 75 75 73 72 72 71 71 71 74 78 80 83 87 93 97 98 98 96 85 80 75 72 73 76 76 76 79 86 80 78 80 89 96 89 80 83 81 78 68 56
50 63 72 79 81 81 80 79 79 79 79 78 77 77 80 82 85 87 90 95 97 97 97 97 94 88 82 85 87 87 93 90 91 87 96 95 85 84 82 84 81 62 53

GFSGL_prec_cthk_096.txt.gz
RH
70 68 71 80 78 74 72 72 72 70 68 64 62 62 60 57 55 52 48 46 50 50 50 56 48 59 55 61 65 58 57 49 49 47 43 39 40 42 41 37 35 32 32
75 76 81 79 76 76 72 70 67 66 63 62 62 60 57 54 52 50 49 53 54 52 54 55 55 55 58 62 69 64 55 49 46 43 38 40 44 44 37 34 35 33 33
63 66 68 67 69 73 73 71 71 70 70 67 65 60 56 55 54 54 55 56 57 57 61 58 55 58 56 59 60 54 49 45 39 34 41 42 42 39 35 32 33 32 32
49 49 52 56 58 59 63 63 66 66 65 61 57 57 58 57 55 55 53 54 58 59 59 59 60 59 59 57 52 43 42 39 36 41 42 40 39 34 32 30 31 30 30
47 49 52 53 53 54 53 53 55 56 63 65 63 61 56 53 52 52 52 51 52 56 56 56 57 59 57 50 43 43 39 39 48 41 34 36 32 31 29 29 28 26 24
50 52 54 56 56 58 58 58 55 52 52 56 59 60 61 57 55 52 52 49 50 52 51 52 55 52 50 43 42 43 49 53 40 34 36 31 28 26 26 25 24 21 18
54 57 60 61 62 63 63 62 62 61 58 56 55 58 60 62 60 59 53 50 49 50 53 54 53 49 46 44 46 52 52 41 33 34 30 25 23 22 21 20 19 19 20
55 58 61 63 66 68 67 65 65 64 63 60 58 59 63 65 63 62 59 55 52 53 53 50 47 46 47 55 59 53 40 29 30 25 23 23 22 21 21 20 21 22 23
59 62 66 69 71 73 72 71 70 69 66 66 66 63 62 64 69 69 67 62 58 59 59 57 56 58 58 55 40 26 23 28 24 23 24 24 23 22 22 23 24 25 27
64 67 68 70 73 76 76 75 72 70 69 68 67 66 64 68 71 72 71 69 64 65 63 64 65 65 55 33 26 29 29 24 26 27 26 25 24 25 25 27 28 30 32
69 69 70 71 72 75 78 77 77 76 75 75 73 72 70 72 74 75 73 70 70 68 69 69 60 41 34 29 28 29 25 28 29 28 28 28 29 30 31 33 33 35 37
70 71 72 78 80 79 78 77 74 77 80 79 78 77 76 78 79 75 73 72 67 62 57 45 39 33 31 30 31 27 30 31 31 31 32 34 35 36 38 38 39 41 42
73 78 81 82 82 82 83 82 83 84 83 84 85 81 81 81 82 80 74 67 67 59 48 42 38 34 33 33 30 31 33 34 35 37 39 40 42 43 42 44 46 47 47
78 80 81 82 83 83 84 86 86 86 89 90 88 88 88 89 89 83 70 63 60 52 47 43 38 37 36 34 35 35 38 39 42 45 47 48 47 47 49 50 52 52 52
85 86 86 86 86 86 87 89 90 94 93 93 94 91 92 93 93 84 73 64 59 54 50 44 39 36 35 38 37 40 42 47 50 51 51 50 51 53 54 56 57 57 57
89 86 86 87 88 89 91 94 95 95 95 95 95 96 93 94 93 80 72 64 59 55 49 41 39 37 39 39 42 44 49 52 53 54 56 57 57 57 59 60 60 60 62
87 84 83 89 91 93 95 95 95 96 96 96 95 96 96 94 91 79 69 63 58 53 46 44 45 41 40 42 44 49 52 53 54 56 57 58 58 57 60 59 61 64 67
72 75 79 82 88 94 96 96 96 97 97 96 96 96 97 97 90 77 67 61 55 49 48 48 43 40 40 42 46 50 50 51 52 55 55 55 55 54 57 58 65 70 71
71 73 71 73 79 88 91 95 96 97 97 96 96 96 97 97 91 73 65 58 53 54 47 41 38 38 40 42 47 48 49 49 51 51 51 53 54 55 58 60 68 74 75
62 62 62 62 68 73 80 88 93 96 96 97 97 97 96 96 90 78 70 64 59 49 44 43 42 42 42 42 44 50 49 47 49 48 48 50 53 59 60 64 72 77 76
60 59 60 61 65 66 68 76 83 88 93 97 98 97 95 96 93 83 72 62 56 50 46 46 46 44 41 41 47 48 46 46 46 48 49 53 63 61 62 69 76 77 78
64 64 66 66 67 68 66 66 68 70 74 80 90 97 97 96 96 95 84 74 68 62 54 49 46 45 49 49 46 46 46 46 49 53 58 71 66 64 68 74 80 79 81
69 69 69 69 70 70 70 71 72 72 72 73 75 79 86 95 97 98 97 92 83 72 69 64 60 55 53 51 51 50 51 56 62 66 78 74 66 66 71 81 84 79 83
72 75 74 73 73 73 74 74 74 73 72 72 73 73 75 80 83 86 93 98 98 96 81 65 59 58 58 57 59 62 70 71 77 81 78 71 68 69 74 88 90 81 86
38 45 53 65 73 76 78 79 78 77 77 76 76 75 74 73 73 76 81 83 86 93 98 98 95 82 74 73 75 79 82 79 83 79 81 86 82 76 86 96 90 84 87
23 22 22 26 33 44 54 63 72 78 82 82 82 82 82 81 80 80 80 80 81 82 86 89 93 97 98 97 93 89 85 86 87 82 87 93 86 88 95 97 89 90 85

GFSGL_prec_cthk_099.txt.gz
RH
48 52 54 58 63 70 70 72 75 78 77 75 74 72 69 65 61 60 59 56 54 51 51 55 58 56 58 60 60 68 62 62 71 57 62 56 52 42 40 38 40 37 33
53 59 64 67 71 74 79 78 73 71 72 71 69 66 65 64 63 60 60 57 55 52 53 52 53 58 58 55 63 62 62 63 68 61 56 51 43 40 43 43 39 36 33
56 63 67 72 75 73 71 69 71 75 74 74 75 73 73 68 65 63 60 58 55 57 56 59 59 62 62 60 61 58 64 64 61 50 46 44 40 45 44 41 40 34 33
54 58 62 65 64 63 60 57 55 59 65 71 68 66 69 65 63 61 60 59 59 59 57 58 60 62 63 63 62 59 66 61 51 46 44 41 50 45 39 40 36 34 31
44 47 50 53 55 54 53 54 54 56 57 58 56 54 58 62 60 59 57 55 55 56 56 56 56 59 59 61 61 60 57 53 48 43 45 51 48 39 38 40 34 31 28
46 48 49 50 51 52 55 57 59 59 58 57 56 55 53 51 52 60 62 61 59 55 56 56 55 55 59 58 59 56 54 51 40 46 50 44 36 38 38 31 30 27 24
51 52 54 55 56 57 59 60 61 61 62 61 60 59 57 55 52 52 56 58 61 62 61 55 54 53 51 55 55 55 53 47 48 50 39 36 31 33 28 27 26 24 20
53 53 54 55 56 58 60 62 65 67 66 65 62 60 59 58 57 55 56 60 66 67 64 63 57 53 52 52 51 50 53 56 55 43 34 30 31 28 25 24 22 21 22
54 54 55 57 60 64 66 68 71 71 71 69 67 65 64 63 62 62 62 65 68 67 68 70 63 58 57 55 54 59 61 57 36 27 26 30 28 27 25 24 23 24 26
55 57 59 61 66 67 69 71 73 74 75 73 71 68 67 67 66 65 67 67 67 68 70 74 73 69 70 68 69 63 46 33 31 26 33 32 29 27 26 25 26 28 31
62 64 66 69 70 69 70 69 71 72 72 72 72 73 75 74 72 72 74 74 71 73 73 74 74 73 70 65 56 42 37 34 31 37 32 31 30 29 29 29 32 35 37
71 72 72 73 73 74 76 77 79 78 78 78 79 79 80 81 79 77 78 81 80 77 74 76 72 64 56 46 41 40 36 34 36 35 35 35 33 34 34 37 41 42 41
75 77 79 77 79 80 80 81 80 80 81 81 82 83 84 85 85 85 85 84 83 76 70 63 59 52 49 43 39 38 36 38 37 37 38 39 40 41 43 47 47 45 46
80 80 79 78 80 81 81 82 83 84 84 84 85 86 90 90 90 90 90 89 81 75 68 60 54 52 47 42 42 37 38 40 41 41 42 45 47 50 51 50 49 51 54
80 78 81 83 83 85 85 86 87 88 88 89 89 92 91 91 93 92 95 90 80 74 67 61 54 52 45 43 41 44 41 43 42 46 50 53 55 54 53 54 56 58 60
80 83 86 87 88 87 84 85 88 89 92 93 93 92 93 94 94 94 94 88 80 74 66 59 53 48 44 42 42 41 43 44 47 51 56 58 57 57 58 60 60 63 61
83 81 81 83 81 79 82 87 92 93 95 95 94 94 94 94 96 97 93 85 79 72 68 62 56 54 47 44 41 41 45 46 50 56 60 59 59 59 59 57 57 58 59
74 74 72 74 75 75 75 84 89 93 94 94 95 95 94 93 95 97 95 86 78 72 69 60 54 46 41 39 43 46 45 47 50 57 56 57 58 58 57 56 56 57 61
69 72 73 73 74 73 72 74 78 86 90 94 95 95 94 94 95 96 96 86 78 71 61 56 51 55 57 54 48 46 44 45 49 53 52 54 54 56 55 54 55 59 62
67 67 68 67 64 64 64 67 67 68 76 85 92 95 95 94 95 96 97 89 79 71 60 58 58 57 50 47 44 42 43 44 46 50 57 56 51 51 50 52 57 66 65
63 62 62 65 66 67 67 67 67 67 67 71 79 84 88 92 96 97 98 93 83 75 70 63 55 48 45 43 39 40 44 46 46 49 57 50 48 48 51 56 68 69 68
70 68 68 68 69 70 69 68 69 69 68 67 68 70 72 75 82 94 98 98 95 86 76 66 62 59 53 50 51 54 51 47 51 49 47 47 49 51 60 72 75 69 74
69 72 75 74 73 72 72 72 72 72 72 72 73 73 74 74 75 78 81 90 98 98 96 92 81 69 63 62 59 54 52 57 57 53 51 51 54 62 77 85 75 72 77
38 46 56 62 69 74 76 76 76 75 74 74 74 74 74 73 74 74 75 77 82 86 90 96 97 94 84 76 72 69 66 61 57 56 58 61 68 82 89 81 74 72 80
28 27 26 27 28 32 41 46 53 64 68 74 77 79 79 79 78 78 78 76 75 76 78 81 85 90 94 97 88 73 67 67 71 72 74 79 83 87 90 86 86 85 86
28 26 24 23 21 20 19 18 18 21 26 33 45 57 66 74 81 84 84 83 82 82 81 81 82 82 84 86 89 93 97 92 84 84 88 90 87 86 84 84 93 89 89

GFSGL_prec_cthk_102.txt.gz
RH
42 46 55 58 51 51 51 55 58 63 71 73 72 74 76 75 70 67 65 64 63 62 62 58 56 58 58 60 63 68 66 68 71 70 73 64 66 59 57 50 41 43 44
43 46 48 50 50 52 58 59 63 67 68 66 67 66 66 65 65 64 66 66 65 64 62 59 58 60 58 58 60 65 71 67 70 67 71 65 70 58 50 42 43 46 44
44 47 46 48 53 55 59 65 68 72 63 60 63 68 70 72 71 70 70 68 66 66 63 61 61 61 61 61 63 64 67 69 70 71 68 68 65 51 46 42 48 47 39
43 43 46 51 55 61 65 68 64 59 58 54 52 52 57 64 68 67 66 66 68 63 62 68 67 67 66 65 64 67 65 71 72 66 64 67 58 51 44 51 49 42 39
40 42 46 51 55 57 57 57 57 54 52 51 50 51 52 53 53 52 55 59 61 61 59 60 63 62 64 64 64 64 67 68 70 67 61 60 57 47 53 50 43 37 41
40 43 45 47 48 49 50 50 51 52 53 55 56 57 57 55 54 53 52 51 50 52 59 66 66 62 61 63 64 62 61 65 61 60 61 58 54 53 47 42 39 42 35
44 45 46 46 48 50 51 53 53 54 56 57 58 59 60 60 58 57 55 53 52 52 52 58 66 67 68 66 63 61 60 58 61 61 59 55 59 47 42 41 34 36 32
50 52 52 52 53 53 53 54 54 56 59 61 62 64 64 64 63 61 58 55 55 57 58 59 65 69 70 68 67 61 58 58 56 56 58 60 45 40 40 33 36 34 30
55 55 54 54 55 55 56 58 60 63 65 66 67 68 68 67 66 63 61 60 61 64 65 65 66 72 72 71 73 65 60 61 60 63 63 47 39 34 30 30 34 31 29
54 56 58 58 58 59 60 60 62 65 67 66 66 67 69 70 70 68 67 66 67 68 68 68 69 71 72 73 74 75 71 76 70 59 42 34 32 30 31 37 34 31 30
61 60 60 60 62 63 63 65 68 69 70 70 71 73 73 72 72 72 73 73 72 74 76 75 73 72 73 76 78 75 70 63 48 43 39 38 35 33 39 37 34 33 34
66 67 67 68 67 68 70 74 76 74 73 73 74 76 77 78 78 77 77 77 78 82 82 81 80 78 75 73 72 65 57 45 44 43 40 38 43 41 39 38 38 41 42
77 77 76 75 77 80 78 76 75 74 73 76 78 79 82 83 83 82 84 87 86 85 87 83 78 75 69 65 59 53 47 42 42 46 40 40 43 43 44 44 47 49 51
82 83 84 83 81 79 75 74 76 77 78 81 82 85 85 86 85 86 87 88 89 91 85 81 77 72 64 57 51 48 44 42 38 40 46 45 44 47 49 52 55 56 55
82 82 82 82 80 78 78 81 81 80 80 82 84 86 88 89 88 87 89 90 92 87 82 78 76 69 59 51 48 50 44 45 47 46 50 49 49 51 57 60 59 58 57
83 80 79 79 80 85 86 88 87 85 84 85 86 88 90 92 92 91 91 92 93 87 85 83 78 66 54 51 57 50 47 43 47 46 47 49 52 58 62 62 61 60 60
84 87 90 90 86 81 79 80 77 77 79 84 89 92 94 94 94 95 94 94 91 88 86 81 76 71 67 60 51 48 50 51 53 53 53 51 57 64 67 63 62 62 59
76 76 76 78 78 75 74 79 77 76 75 79 86 90 93 95 95 96 95 95 93 89 87 83 72 70 61 59 61 53 45 50 48 52 52 55 59 69 66 63 62 60 58
75 74 72 70 72 75 77 74 73 73 71 71 75 80 86 92 96 95 95 95 96 96 84 79 72 71 66 60 55 51 50 48 45 50 51 52 56 64 60 61 59 58 59
75 75 74 70 70 72 72 71 65 64 65 66 66 66 71 77 85 93 96 96 96 96 88 75 63 61 62 61 53 52 50 48 50 49 50 49 50 57 62 67 64 60 54
82 81 79 78 72 70 70 67 65 67 68 69 69 67 65 68 71 75 80 89 96 97 95 85 72 66 63 58 62 67 63 59 53 50 49 47 46 50 58 62 56 54 52
68 80 82 82 76 71 70 71 71 71 71 70 70 70 69 68 68 69 70 72 77 88 96 94 88 78 66 64 61 53 47 46 46 44 45 52 49 49 54 50 50 56 56
47 52 66 70 72 76 76 75 75 74 73 72 72 72 72 72 72 72 72 73 74 75 77 82 91 94 94 84 71 63 60 57 52 55 61 57 54 64 60 57 55 54 63
41 39 37 36 41 51 58 63 64 66 68 71 74 76 76 75 75 75 74 74 74 75 76 77 78 82 88 92 93 87 73 67 70 70 64 62 64 65 62 59 59 64 83
40 37 34 32 30 29 28 27 25 25 29 33 35 42 49 52 60 68 75 79 80 81 81 80 79 79 79 82 85 87 91 96 88 83 80 79 74 70 66 65 68 76 95
45 42 38 35 32 30 28 27 26 24 23 22 24 26 26 25 26 31 41 51 57 70 83 87 87 87 87 86 86 85 86 88 88 89 83 79 75 75 76 78 80 87 97

GFSGL_prec_cthk_105.txt.gz
RH
52 52 57 58 62 56 51 49 49 48 48 51 54 54 57 62 65 67 72 70 68 67 66 65 65 64 65 65 68 67 73 73 70 74 77 76 76 78 77 68 71 58 53
51 54 52 59 56 52 52 52 51 52 53 58 57 53 54 54 57 63 64 66 69 72 71 69 69 71 69 71 70 70 72 73 68 75 76 82 77 74 76 70 70 56 47
41 43 51 55 52 51 52 53 55 58 56 56 61 60 57 53 51 56 66 71 73 72 72 74 73 70 71 73 74 73 72 74 76 75 74 75 76 80 77 74 64 57 46
47 45 43 45 48 51 54 57 55 57 58 62 58 55 52 48 47 47 49 51 56 60 64 67 68 72 73 71 76 74 74 77 76 74 71 75 80 78 74 69 63 54 52
45 44 45 46 47 50 53 54 55 56 56 55 50 47 46 48 49 50 51 51 51 49 49 50 53 64 69 70 74 75 74 75 75 74 75 78 82 75 68 66 58 59 54
48 46 44 44 47 46 53 56 52 51 49 48 47 47 48 51 53 53 53 53 54 54 53 53 53 54 56 61 71 73 73 70 71 72 73 72 69 68 67 62 60 56 48
45 45 44 45 44 47 48 47 48 47 48 49 49 50 50 51 52 54 55 56 57 56 55 54 54 56 58 58 61 68 75 74 75 72 70 67 66 66 66 67 59 48 44
47 45 44 44 46 46 47 50 52 51 50 50 50 52 54 55 56 58 59 59 59 58 56 56 59 59 60 62 62 68 73 73 74 72 66 66 65 64 64 58 51 47 48
50 51 50 51 51 51 53 54 52 52 53 53 54 55 56 56 57 57 58 60 61 62 62 63 65 64 65 67 66 68 74 77 73 71 68 65 66 67 56 46 42 46 43
58 55 55 56 55 54 54 55 56 56 56 56 58 59 58 57 59 60 63 64 64 64 67 69 72 73 71 71 71 73 73 78 77 75 73 75 76 58 48 42 41 40 34
64 61 60 58 56 57 58 59 59 58 61 65 64 62 62 62 64 64 67 69 69 70 70 72 75 78 78 78 78 75 76 75 76 76 71 62 55 46 44 39 37 36 41
71 66 64 63 63 64 64 64 65 66 67 66 66 67 67 67 68 70 72 73 74 75 75 81 81 83 86 84 81 77 76 73 73 68 56 46 42 45 41 40 38 44 43
80 78 76 74 74 72 72 73 74 71 71 68 67 67 69 70 73 75 76 77 77 78 80 84 86 88 88 84 78 70 69 67 61 56 49 43 46 47 43 47 47 45 47
84 82 82 80 78 80 82 80 77 72 69 70 69 70 72 74 75 78 81 82 82 81 82 86 84 85 86 81 77 70 64 57 52 48 44 50 52 48 45 51 49 54 54
83 83 84 84 84 83 81 77 75 71 71 75 75 75 76 78 79 82 84 85 85 86 86 85 83 81 84 79 70 63 58 54 47 44 49 45 45 48 52 49 55 57 61
83 82 82 82 81 80 77 77 76 81 82 82 81 76 74 77 82 85 86 88 91 90 91 87 84 82 84 74 65 63 55 47 47 49 48 47 52 60 57 59 60 63 66
78 80 82 84 85 86 86 86 84 77 73 73 72 71 70 74 81 83 87 90 91 92 92 91 89 91 84 70 62 55 56 59 56 59 56 52 55 52 57 60 63 69 70
78 78 78 78 77 78 78 80 80 75 72 76 74 73 70 70 76 82 85 90 91 91 92 90 87 86 79 74 74 72 71 63 57 53 53 59 59 62 59 61 69 75 70
73 71 71 72 74 75 75 73 75 73 77 76 73 71 70 67 66 67 73 82 89 93 93 93 90 83 73 76 69 62 61 58 51 53 55 56 54 61 58 61 72 73 67
67 71 73 73 75 77 77 76 74 74 74 74 70 64 65 64 61 60 62 68 76 82 88 93 93 86 75 74 74 67 61 64 64 57 55 55 51 55 55 56 60 64 67
69 71 72 81 82 82 83 83 82 78 76 75 69 66 68 68 68 66 63 63 66 66 70 77 86 88 78 70 68 73 72 59 53 51 49 49 48 49 49 50 51 54 61
62 61 63 68 77 81 82 83 85 81 76 72 71 72 71 70 69 70 70 70 70 70 72 72 73 76 81 85 78 72 65 61 70 71 66 61 57 54 53 53 53 57 57
54 50 48 48 57 70 72 73 76 78 80 80 77 75 75 74 74 73 73 72 72 72 72 73 74 75 77 77 79 82 82 72 72 63 60 59 58 57 55 54 55 55 55
47 46 46 45 43 40 39 41 49 56 59 61 61 61 60 61 63 63 63 65 69 73 75 75 75 76 78 78 79 80 83 87 87 80 68 62 58 55 58 60 57 60 67
51 49 45 42 40 38 35 33 31 30 30 29 28 31 30 29 29 31 37 43 47 50 56 65 74 81 83 84 83 83 83 84 84 86 88 83 80 76 77 78 75 71 71
74 71 66 61 57 53 50 46 43 40 39 38 36 34 31 29 31 31 31 30 29 28 31 36 42 47 54 69 84 89 89 89 89 88 86 85 86 85 82 82 83 86 88

GFSGL_prec_cthk_108.txt.gz
RH
67 65 62 61 62 62 64 65 61 60 56 50 44 42 47 50 49 49 52 52 52 55 58 59 61 65 70 72 70 70 69 80 79 86 86 90 79 88 90 80 84 80 75
61 62 58 55 59 58 63 67 63 58 53 47 48 48 49 49 48 48 47 47 49 50 52 59 65 69 73 75 76 81 81 82 82 82 86 85 84 81 83 90 79 83 87
57 56 56 54 56 62 64 63 60 57 50 52 52 50 49 49 50 45 42 41 41 43 45 48 51 56 62 66 70 75 81 83 83 85 88 88 86 83 83 80 81 82 77
57 55 51 54 58 60 61 58 57 52 53 52 51 53 52 51 46 41 41 42 44 45 45 46 47 47 47 48 52 61 72 80 82 82 85 85 86 83 80 84 88 91 83
51 48 48 48 51 50 51 53 50 49 49 51 53 52 47 46 44 43 42 43 45 46 47 49 48 48 50 52 54 56 57 65 72 81 86 82 84 83 81 81 89 77 80
56 53 51 53 49 48 52 49 46 47 51 52 52 48 44 43 45 44 45 44 45 47 48 49 50 50 51 53 56 57 57 61 64 67 76 84 83 84 83 84 77 74 73
57 53 52 52 48 45 45 45 46 48 52 47 47 45 45 44 45 45 47 48 48 48 48 49 50 50 50 53 56 58 59 61 61 65 71 80 81 81 79 76 76 74 72
53 48 48 46 44 44 47 47 47 48 46 48 48 47 46 45 47 48 49 49 47 46 48 50 51 53 55 57 60 62 62 63 65 66 72 79 82 82 73 72 71 72 68
46 46 46 48 50 50 49 48 48 49 51 53 50 48 48 49 49 50 50 50 51 52 53 53 54 55 59 62 65 68 70 68 68 69 73 78 80 78 76 69 70 65 54
56 57 58 60 58 56 59 63 56 53 55 54 52 52 51 52 54 55 54 54 55 56 57 57 59 60 63 68 71 71 74 74 73 74 76 81 83 77 77 76 70 54 47
64 65 63 61 61 62 61 60 56 57 57 54 55 56 56 57 57 58 58 59 60 62 62 61 61 64 67 72 76 76 79 80 79 77 74 75 76 85 90 74 55 50 43
72 73 69 70 70 68 66 62 59 61 59 60 60 61 61 60 61 62 62 63 64 67 66 66 65 67 71 75 79 82 82 81 80 77 73 68 70 66 58 49 54 49 44
86 85 84 81 80 79 76 72 68 67 69 68 68 67 65 63 63 64 67 67 66 66 69 69 71 72 74 78 80 83 82 79 75 71 66 61 58 57 52 45 47 46 48
95 94 92 89 86 83 80 77 79 80 77 75 73 68 65 65 67 68 69 69 69 70 73 76 77 76 74 74 78 79 78 76 73 68 62 59 52 49 45 49 51 50 55
95 94 94 90 89 88 87 87 86 83 78 76 72 71 73 74 71 68 69 70 71 74 78 80 80 82 79 73 79 76 75 73 67 62 58 52 49 46 50 60 53 53 60
89 90 90 89 88 87 85 83 80 77 74 75 76 79 77 72 65 62 63 67 72 77 80 83 85 86 82 78 80 75 68 66 64 62 55 49 46 47 57 56 55 56 56
79 79 81 84 85 84 82 82 82 82 82 81 80 73 68 69 67 66 68 70 73 77 81 84 87 87 83 86 86 77 71 67 64 57 50 48 56 58 53 61 62 61 66
77 78 80 81 81 80 80 80 79 77 77 78 78 74 71 74 67 64 66 67 68 71 75 82 86 89 85 83 79 72 69 63 60 60 58 60 59 60 58 62 59 65 66
72 72 73 75 76 76 75 74 75 76 75 74 78 76 75 72 72 68 65 61 60 60 65 70 76 81 87 85 80 73 74 76 74 72 71 59 56 53 57 66 66 67 65
72 71 69 68 68 71 75 76 75 76 77 79 80 77 76 74 73 69 66 65 65 63 63 65 70 70 72 78 76 71 77 73 65 62 60 54 59 61 64 59 60 65 63
71 70 69 68 70 69 77 81 83 83 84 85 86 86 83 76 76 73 70 70 70 70 69 68 68 69 70 69 67 64 70 80 80 67 66 68 62 56 52 56 52 57 62
66 63 60 59 60 67 69 76 77 81 86 87 87 89 87 81 79 76 74 73 72 71 71 71 72 73 75 75 74 69 64 62 58 71 77 68 67 67 61 60 55 53 53
64 60 59 56 54 51 49 55 69 73 74 77 79 80 81 81 82 80 77 76 76 77 77 76 76 75 75 75 76 76 77 78 74 74 70 68 73 74 72 68 65 62 60
61 58 53 50 47 47 46 45 44 43 40 41 44 46 49 48 47 47 49 49 48 53 55 54 55 60 70 77 80 80 80 81 81 81 78 79 79 75 71 71 68 66 65
78 72 68 64 61 56 47 43 41 41 40 37 36 35 33 32 32 32 30 30 31 30 29 31 35 39 45 49 55 63 73 81 85 86 86 84 83 83 82 79 73 68 63
83 81 79 77 78 76 74 72 69 65 63 59 55 53 52 51 48 46 44 42 41 39 38 40 37 34 33 33 38 43 48 50 61 71 79 86 89 90 90 90 90 89 85

GFSGL_prec_cthk_111.txt.gz
RH
69 72 75 78 78 79 79 79 76 70 68 65 61 57 54 49 41 39 38 40 42 39 37 38 40 42 43 45 50 55 63 69 72 77 82 86 86 90 90 88 90 98 95
68 67 65 68 71 73 74 74 71 67 63 63 60 56 52 47 39 41 40 41 39 37 35 36 37 39 40 42 44 45 48 55 58 66 73 76 81 86 88 89 92 93 95
71 69 68 69 68 69 72 74 70 67 62 62 61 60 52 46 44 44 43 41 37 35 34 34 34 36 38 39 40 42 43 47 50 55 56 63 77 83 88 89 92 92 87
63 62 62 61 65 66 68 68 64 63 60 61 61 57 49 46 47 47 42 38 34 35 34 35 35 37 38 40 41 42 43 47 50 55 57 59 64 69 82 86 90 90 91
58 59 56 54 58 62 63 63 62 61 60 57 53 49 46 48 48 43 38 39 36 36 36 37 38 39 40 41 42 42 43 48 51 54 57 59 65 69 78 82 83 86 89
63 59 52 49 47 48 47 49 56 56 50 50 51 52 49 49 46 43 39 40 39 41 40 40 40 40 40 40 41 42 46 50 51 56 59 61 65 68 71 79 86 89 84
63 59 55 53 50 52 50 49 49 51 51 51 54 51 44 44 45 45 43 42 45 45 41 38 39 42 43 43 43 45 48 52 56 59 63 63 64 69 72 80 82 89 82
67 64 61 58 55 57 55 50 48 49 50 52 49 43 47 53 51 48 45 46 45 44 40 40 43 44 46 45 47 50 53 57 60 64 67 68 67 69 71 79 84 88 84
64 65 65 62 58 54 51 50 50 49 49 52 55 57 56 54 51 48 47 45 46 48 45 43 44 47 48 48 51 53 56 60 66 68 70 72 71 71 73 78 80 82 80
51 50 49 49 49 51 52 52 52 53 56 60 62 60 58 53 50 47 48 51 50 50 49 48 50 51 54 54 55 58 61 64 70 72 74 76 76 76 78 78 88 82 83
55 58 59 59 57 55 57 57 58 61 65 67 68 64 58 55 52 51 52 53 54 56 55 55 55 56 56 57 58 61 63 67 73 76 78 79 78 78 79 81 82 88 91
69 64 65 68 68 68 66 67 68 70 69 68 64 66 65 59 57 57 55 57 60 59 58 58 58 59 59 59 61 65 67 71 74 76 79 78 75 70 66 70 85 85 66
83 80 78 76 76 78 76 74 72 72 75 78 79 76 72 69 67 66 64 63 61 60 62 61 61 63 62 63 64 67 70 70 71 73 74 75 75 72 65 60 62 55 51
92 92 92 90 90 88 86 86 87 89 90 87 87 88 87 84 80 72 66 64 61 62 64 63 62 65 67 66 64 67 72 73 69 69 70 72 70 66 62 54 56 49 43
98 99 98 97 96 98 97 96 95 94 92 94 96 93 90 84 77 74 70 65 60 58 62 63 65 69 72 72 69 66 74 72 71 71 68 67 64 60 58 52 50 46 52
92 93 96 96 99 95 98 99 97 98 98 97 94 89 85 82 79 72 67 63 61 64 66 68 69 72 74 75 73 70 72 70 70 67 64 63 61 56 52 49 50 56 61
82 83 84 88 92 97 96 95 95 94 93 91 89 89 85 82 77 75 69 67 67 67 66 67 70 72 73 75 74 78 78 71 68 64 66 67 60 56 52 46 53 62 62
84 82 82 83 84 85 85 86 86 86 86 87 87 85 82 81 78 79 75 69 69 68 66 65 67 68 68 69 69 72 74 71 65 62 61 60 57 52 50 54 56 53 60
82 79 77 77 77 77 76 76 79 81 82 84 83 81 80 80 80 81 77 76 72 71 69 65 61 60 62 65 67 65 66 65 68 70 67 62 63 62 61 62 62 54 59
78 78 76 75 74 74 73 71 73 77 81 83 83 82 80 79 82 83 82 80 76 74 72 67 66 65 65 67 67 65 62 55 57 62 64 66 66 67 65 61 60 60 68
70 68 69 73 74 73 73 74 72 77 80 83 84 85 84 85 86 86 86 86 82 78 76 71 70 70 71 70 69 70 70 64 55 56 61 62 62 62 62 60 58 60 70
71 69 67 63 61 63 62 65 70 73 79 77 79 83 86 86 87 88 88 90 87 82 81 78 75 75 74 74 73 72 73 73 66 60 58 62 64 66 67 64 60 56 54
82 77 73 70 66 60 59 59 56 53 57 66 72 75 77 78 80 81 80 78 76 76 74 71 69 69 71 75 79 78 78 76 75 74 72 69 65 64 63 60 64 72 74
83 79 76 72 68 64 59 54 51 50 49 48 47 45 43 42 43 44 44 46 45 42 41 41 41 46 50 52 52 54 62 66 70 75 78 79 80 78 77 79 77 71 71
90 91 89 85 83 80 76 70 65 59 54 49 47 47 45 45 44 43 42 40 39 39 39 39 38 36 33 32 33 37 40 45 51 58 61 66 71 77 83 86 87 86 85
88 88 87 84 82 81 81 80 81 81 78 75 71 69 68 65 63 61 60 59 58 57 55 52 49 47 45 44 44 44 42 40 42 45 48 51 55 61 66 72 79 86 92

GFSGL_prec_cthk_114.txt.gz
RH
93 90 88 84 83 83 90 94 88 88 89 87 88 83 77 69 63 60 55 50 44 43 41 37 34 31 31 30 32 33 35 37 39 40 42 45 48 57 60 71 75 78 88
78 78 81 84 85 89 87 90 89 88 86 82 79 73 70 70 65 59 52 47 41 40 38 35 31 30 31 31 31 32 32 32 32 39 39 43 45 48 52 56 63 69 80
79 75 77 80 81 84 84 85 85 88 83 80 74 68 66 67 62 58 52 48 45 41 38 34 31 32 32 32 33 34 33 32 35 35 37 41 48 50 54 58 63 68 76
80 79 76 74 75 78 82 83 84 84 82 78 73 68 67 62 58 57 55 51 46 42 38 34 32 32 32 35 35 35 37 36 34 37 40 42 46 50 54 57 60 66 75
79 78 77 73 71 75 80 81 80 81 80 75 72 66 63 61 59 56 53 50 46 42 40 35 32 34 36 36 36 34 36 35 36 37 43 46 49 52 60 62 67 70 73
78 76 71 66 63 66 69 72 77 78 74 71 67 64 60 57 55 53 52 48 45 45 43 36 36 37 36 37 39 37 38 37 36 41 46 50 53 56 62 64 67 70 73
76 78 76 71 66 62 62 63 59 58 58 56 55 56 56 55 55 55 51 47 45 45 41 38 37 37 39 40 39 40 41 40 42 48 49 52 56 59 64 68 68 70 71
72 71 75 73 70 65 62 62 60 58 55 55 55 55 57 58 57 52 49 48 46 45 43 39 41 43 45 42 41 41 44 45 46 50 51 54 58 62 65 69 71 71 74
65 69 75 76 76 74 66 63 63 61 56 54 54 53 53 53 53 52 53 52 48 45 42 44 46 47 48 46 46 47 48 49 49 50 53 57 60 65 69 72 74 74 76
59 64 68 69 70 71 68 65 62 62 59 57 56 55 57 58 58 56 54 52 47 48 49 50 52 55 52 49 55 53 53 52 51 52 57 60 64 67 73 77 78 77 78
55 57 59 60 60 61 62 61 60 60 61 63 64 65 66 64 63 59 56 54 54 53 55 56 57 56 57 58 57 56 55 54 55 56 58 61 66 71 79 82 82 79 79
65 64 65 64 65 68 70 72 73 74 71 68 67 70 71 67 65 63 59 59 66 67 62 58 59 60 61 62 61 57 55 57 59 58 61 66 69 70 74 79 82 84 82
79 79 82 81 79 77 77 76 77 80 79 79 77 75 74 73 74 74 73 72 74 72 70 62 64 63 63 63 60 59 57 59 59 59 62 64 68 70 76 76 72 71 73
88 88 89 90 91 90 88 88 86 86 85 86 85 87 86 87 87 83 83 82 84 76 69 63 60 61 64 63 61 57 57 59 60 61 62 64 66 67 70 72 68 62 60
88 88 92 93 93 95 96 96 98 98 97 96 95 93 95 96 90 87 86 84 76 69 65 61 59 62 64 63 64 61 59 58 62 60 61 65 66 66 66 67 64 56 54
85 87 92 99 98 99 98 99 99 96 98 98 99 98 97 98 96 90 87 82 77 70 63 62 63 65 67 66 66 65 63 60 62 61 60 61 60 60 62 63 61 54 50
81 81 80 82 86 88 91 95 96 97 98 99 98 97 98 97 93 89 87 80 77 73 68 67 67 66 65 64 66 69 62 64 66 61 60 58 60 62 63 56 56 54 48
90 87 85 84 83 81 83 84 88 90 93 94 95 94 93 91 89 88 88 84 79 77 72 70 70 68 65 63 63 65 61 59 58 57 52 55 58 59 55 54 56 51 52
96 95 92 88 83 81 80 80 81 80 79 81 84 87 88 89 89 88 84 81 81 80 77 75 75 71 68 65 62 60 61 60 58 54 53 54 55 55 57 54 48 49 52
90 89 86 84 84 82 80 79 78 78 77 79 80 82 85 88 88 86 84 83 81 81 81 82 81 77 74 71 64 64 65 67 63 57 52 50 50 54 57 60 62 58 62
82 82 80 77 74 72 74 80 82 81 80 80 83 86 86 89 90 90 89 87 85 85 85 86 86 86 80 77 74 70 70 70 70 70 63 53 55 56 50 49 54 60 62
65 73 81 78 75 72 69 67 64 70 83 81 86 87 85 85 88 88 89 88 88 88 88 88 89 88 86 82 82 81 77 75 75 75 73 68 64 63 66 64 59 51 50
61 65 75 85 85 82 80 76 70 64 60 63 70 80 83 86 85 85 84 84 85 85 84 81 79 78 77 75 76 75 74 77 78 80 79 79 77 74 70 66 63 62 61
56 61 64 68 79 83 82 80 75 67 63 57 54 54 53 52 54 52 49 48 48 48 48 48 47 45 42 41 47 55 57 57 58 61 63 64 68 73 76 80 81 77 76
61 66 67 68 79 82 83 85 85 83 78 72 65 61 58 56 56 56 55 49 48 47 46 46 45 46 46 45 44 44 41 40 41 42 46 49 54 58 61 65 70 74 79
67 71 74 73 74 82 90 92 88 89 89 87 87 85 80 75 68 64 64 65 65 63 63 62 61 60 59 59 57 55 53 51 49 47 46 44 46 48 49 53 59 62 66

GFSGL_prec_cthk_117.txt.gz
RH
97 96 95 90 87 83 85 90 98 94 91 94 97 96 93 88 94 93 76 65 59 52 51 48 45 41 34 32 30 29 29 31 34 34 31 32 32 36 37 39 44 51 57
95 95 93 92 89 83 84 92 88 91 93 90 91 93 92 92 91 81 73 67 60 54 49 42 39 37 35 34 31 29 29 30 32 33 33 32 35 38 38 38 44 47 52
92 91 89 88 88 84 84 86 92 84 88 91 92 95 95 85 80 73 68 65 58 53 49 45 39 38 36 32 31 31 29 30 30 31 32 34 35 37 40 41 45 49 56
89 91 89 90 89 89 90 93 91 91 95 93 91 85 82 77 74 70 63 59 58 54 52 45 40 39 38 36 33 31 30 30 31 32 33 35 39 42 44 42 45 49 56
87 86 81 82 80 81 87 88 91 93 93 87 81 78 76 74 72 66 63 61 58 55 52 45 44 42 41 38 37 34 31 31 32 33 35 38 41 44 50 51 48 54 57
86 81 80 79 79 77 72 76 85 87 86 83 79 76 73 74 71 66 63 61 56 55 50 47 46 43 40 39 37 34 33 34 36 39 38 42 45 50 51 54 56 58 61
88 87 85 83 81 78 75 79 82 80 79 84 85 81 75 70 69 65 62 58 55 52 49 48 46 42 40 39 39 37 35 35 37 38 40 43 48 50 54 57 58 63 63
89 91 93 91 88 83 79 75 72 72 72 71 65 61 60 61 62 63 62 59 59 54 50 48 44 41 39 42 44 40 40 40 43 43 44 47 48 51 54 58 62 65 68
72 74 81 83 79 79 79 76 73 71 65 64 62 59 57 58 59 63 62 58 55 52 50 47 45 45 46 45 46 46 44 44 45 46 47 49 51 55 57 60 64 67 72
79 77 75 74 78 81 83 83 81 76 71 69 67 63 61 61 61 60 59 56 55 53 50 47 46 47 51 52 51 51 51 49 49 50 52 50 53 57 60 62 66 72 78
56 59 65 69 72 72 75 76 74 70 67 65 64 65 65 63 62 62 61 58 56 55 52 50 54 54 54 55 56 54 55 56 55 54 54 53 54 58 62 65 70 77 83
67 65 62 61 60 62 62 64 63 63 64 63 64 65 64 64 66 66 63 65 63 60 61 61 61 62 64 59 60 58 59 59 59 58 57 54 57 61 63 64 69 80 87
80 78 79 80 78 77 75 75 74 74 74 72 72 74 76 75 74 73 73 70 70 69 69 71 73 68 66 67 66 65 59 56 55 60 57 54 57 58 59 64 71 76 77
82 86 87 85 89 91 93 93 92 90 88 84 84 84 85 86 85 82 78 76 77 78 79 81 79 73 69 68 64 65 62 52 53 59 58 56 56 55 56 60 66 70 72
78 85 92 93 94 96 96 97 97 95 95 94 96 95 93 92 92 90 90 92 92 89 88 82 77 71 69 66 66 64 61 60 57 58 59 55 54 55 56 57 59 63 66
78 80 84 92 97 94 97 98 98 98 98 98 99 99 98 98 98 97 98 98 98 95 92 85 76 70 68 67 64 65 67 64 61 60 58 55 51 51 53 53 53 55 59
79 82 84 86 86 85 87 94 97 97 97 98 98 98 98 99 99 98 99 99 99 96 93 89 78 72 72 71 67 68 68 68 64 61 59 52 49 49 51 54 57 56 55
71 83 89 91 91 91 90 89 90 92 93 94 96 98 98 98 98 98 98 96 97 96 91 87 83 79 76 73 72 70 68 67 63 58 58 52 43 43 45 47 50 51 51
58 63 71 83 91 92 91 90 87 85 83 84 86 85 87 91 94 95 97 95 96 91 89 90 87 84 82 79 78 75 71 67 65 63 60 53 47 44 44 43 45 46 49
53 54 55 56 65 78 86 90 91 87 85 84 83 81 81 83 84 87 90 91 93 92 91 91 89 86 84 83 82 81 80 75 70 69 66 62 55 48 47 48 48 47 47
47 50 53 58 60 63 69 75 75 76 81 85 90 86 83 84 89 90 90 91 93 94 94 93 92 90 88 87 86 85 84 84 80 77 73 72 70 60 53 55 51 48 49
50 50 51 52 55 57 61 72 77 78 75 72 78 86 90 92 94 90 90 91 92 92 95 95 94 92 90 89 88 87 86 88 87 83 82 80 78 77 72 67 66 67 61
58 54 52 49 50 52 54 56 62 77 80 79 76 66 66 79 91 90 93 93 91 91 92 92 92 93 92 90 87 86 84 84 84 81 81 85 86 85 83 83 82 76 71
54 54 56 60 63 63 62 58 57 60 68 81 80 72 65 61 60 65 67 69 72 74 71 65 60 56 53 52 50 48 46 52 53 59 62 64 67 70 72 76 78 77 80
59 60 60 61 62 64 65 66 72 75 77 81 81 82 76 69 64 58 57 57 56 56 53 49 46 47 47 48 49 51 51 50 48 48 51 51 51 53 54 56 59 62 65
60 63 64 65 64 60 54 54 58 66 83 87 89 91 95 89 83 77 73 71 69 68 67 66 65 63 61 61 61 59 60 62 62 62 62 59 56 53 52 53 55 57 60